<?xml version="1.0" encoding="UTF-8" standalone="no" ?>
<gpx xmlns="http://www.topografix.com/GPX/1/1" xmlns:xsi="http://www.w3.org/2001/XMLSchema-instance" xsi:schemaLocation="http://www.topografix.com/GPX/1/1 http://www.topografix.com/GPX/1/1/gpx.xsd" version="1.1" creator="VisuGPX - https://www.visugpx.com">
  <metadata>
    <name>LaBala0316</name>
    <desc><![CDATA[sortie de chantier, remise à l'eau, préparation, tour de Groix
avec Johan et Gauvain]]></desc>
  </metadata>
  <trk>
    <name><![CDATA[Tracé actuel: 30 AVR 2016 21:25]]></name>
    <trkseg>
      <trkpt lat="47.6438" lon="-3.44579">
        <ele>1.1</ele>
        <time>2016-04-30T19:25:06Z</time>
      </trkpt>
      <trkpt lat="47.64378" lon="-3.44571">
        <ele>1.1</ele>
        <time>2016-04-30T19:25:30Z</time>
      </trkpt>
      <trkpt lat="47.64379" lon="-3.4457">
        <ele>4.46</ele>
        <time>2016-04-30T19:25:57Z</time>
      </trkpt>
      <trkpt lat="47.64379" lon="-3.44571">
        <ele>2.54</ele>
        <time>2016-04-30T19:26:24Z</time>
      </trkpt>
      <trkpt lat="47.6438" lon="-3.44579">
        <ele>2.06</ele>
        <time>2016-04-30T19:26:41Z</time>
      </trkpt>
      <trkpt lat="47.64375" lon="-3.44586">
        <ele>3.98</ele>
        <time>2016-04-30T19:26:55Z</time>
      </trkpt>
      <trkpt lat="47.64375" lon="-3.44586">
        <ele>3.02</ele>
        <time>2016-04-30T19:27:13Z</time>
      </trkpt>
      <trkpt lat="47.64373" lon="-3.44588">
        <ele>2.06</ele>
        <time>2016-04-30T19:27:22Z</time>
      </trkpt>
      <trkpt lat="47.6437" lon="-3.44598">
        <ele>0.62</ele>
        <time>2016-04-30T19:27:36Z</time>
      </trkpt>
      <trkpt lat="47.64364" lon="-3.44605">
        <ele>0.62</ele>
        <time>2016-04-30T19:27:46Z</time>
      </trkpt>
      <trkpt lat="47.64358" lon="-3.44612">
        <ele>2.06</ele>
        <time>2016-04-30T19:27:58Z</time>
      </trkpt>
      <trkpt lat="47.64344" lon="-3.44627">
        <ele>0.62</ele>
        <time>2016-04-30T19:28:09Z</time>
      </trkpt>
      <trkpt lat="47.64329" lon="-3.44633">
        <ele>-0.34</ele>
        <time>2016-04-30T19:28:23Z</time>
      </trkpt>
      <trkpt lat="47.64327" lon="-3.44634">
        <ele>-0.34</ele>
        <time>2016-04-30T19:28:25Z</time>
      </trkpt>
      <trkpt lat="47.64322" lon="-3.44636">
        <ele>0.14</ele>
        <time>2016-04-30T19:28:37Z</time>
      </trkpt>
      <trkpt lat="47.64321" lon="-3.44635">
        <ele>0.62</ele>
        <time>2016-04-30T19:28:54Z</time>
      </trkpt>
      <trkpt lat="47.6432" lon="-3.44635">
        <ele>1.1</ele>
        <time>2016-04-30T19:29:12Z</time>
      </trkpt>
      <trkpt lat="47.6432" lon="-3.44635">
        <ele>1.58</ele>
        <time>2016-04-30T19:29:29Z</time>
      </trkpt>
      <trkpt lat="47.64319" lon="-3.44635">
        <ele>1.58</ele>
        <time>2016-04-30T19:29:43Z</time>
      </trkpt>
      <trkpt lat="47.6432" lon="-3.44635">
        <ele>2.06</ele>
        <time>2016-04-30T19:30:01Z</time>
      </trkpt>
      <trkpt lat="47.64319" lon="-3.44634">
        <ele>2.06</ele>
        <time>2016-04-30T19:30:18Z</time>
      </trkpt>
      <trkpt lat="47.6432" lon="-3.44634">
        <ele>2.06</ele>
        <time>2016-04-30T19:30:46Z</time>
      </trkpt>
      <trkpt lat="47.6432" lon="-3.44634">
        <ele>2.06</ele>
        <time>2016-04-30T19:31:10Z</time>
      </trkpt>
      <trkpt lat="47.6432" lon="-3.44634">
        <ele>2.06</ele>
        <time>2016-04-30T19:31:22Z</time>
      </trkpt>
      <trkpt lat="47.64321" lon="-3.44635">
        <ele>2.06</ele>
        <time>2016-04-30T19:31:34Z</time>
      </trkpt>
      <trkpt lat="47.64323" lon="-3.44639">
        <ele>2.06</ele>
        <time>2016-04-30T19:31:38Z</time>
      </trkpt>
      <trkpt lat="47.64316" lon="-3.44662">
        <ele>0.14</ele>
        <time>2016-04-30T19:31:54Z</time>
      </trkpt>
      <trkpt lat="47.64309" lon="-3.44683">
        <ele>1.1</ele>
        <time>2016-04-30T19:32:07Z</time>
      </trkpt>
      <trkpt lat="47.64308" lon="-3.44687">
        <ele>-0.34</ele>
        <time>2016-04-30T19:32:11Z</time>
      </trkpt>
      <trkpt lat="47.643" lon="-3.44708">
        <ele>-2.75</ele>
        <time>2016-04-30T19:32:25Z</time>
      </trkpt>
      <trkpt lat="47.64292" lon="-3.44731">
        <ele>-2.75</ele>
        <time>2016-04-30T19:32:40Z</time>
      </trkpt>
      <trkpt lat="47.64286" lon="-3.44747">
        <ele>-3.23</ele>
        <time>2016-04-30T19:32:50Z</time>
      </trkpt>
      <trkpt lat="47.64286" lon="-3.44759">
        <ele>-1.79</ele>
        <time>2016-04-30T19:32:58Z</time>
      </trkpt>
      <trkpt lat="47.64298" lon="-3.44783">
        <ele>1.1</ele>
        <time>2016-04-30T19:33:14Z</time>
      </trkpt>
      <trkpt lat="47.643" lon="-3.4479">
        <ele>1.1</ele>
        <time>2016-04-30T19:33:18Z</time>
      </trkpt>
      <trkpt lat="47.6431" lon="-3.44799">
        <ele>0.62</ele>
        <time>2016-04-30T19:33:33Z</time>
      </trkpt>
      <trkpt lat="47.64307" lon="-3.44797">
        <ele>0.62</ele>
        <time>2016-04-30T19:33:37Z</time>
      </trkpt>
      <trkpt lat="47.64295" lon="-3.4479">
        <ele>1.1</ele>
        <time>2016-04-30T19:33:50Z</time>
      </trkpt>
      <trkpt lat="47.64285" lon="-3.44799">
        <ele>2.06</ele>
        <time>2016-04-30T19:34:04Z</time>
      </trkpt>
      <trkpt lat="47.64284" lon="-3.448">
        <ele>2.06</ele>
        <time>2016-04-30T19:34:05Z</time>
      </trkpt>
      <trkpt lat="47.6428" lon="-3.44803">
        <ele>3.02</ele>
        <time>2016-04-30T19:34:10Z</time>
      </trkpt>
      <trkpt lat="47.64269" lon="-3.44816">
        <ele>4.94</ele>
        <time>2016-04-30T19:34:24Z</time>
      </trkpt>
      <trkpt lat="47.64263" lon="-3.44823">
        <ele>5.91</ele>
        <time>2016-04-30T19:34:31Z</time>
      </trkpt>
      <trkpt lat="47.64256" lon="-3.44834">
        <ele>8.79</ele>
        <time>2016-04-30T19:34:44Z</time>
      </trkpt>
      <trkpt lat="47.64259" lon="-3.44842">
        <ele>5.91</ele>
        <time>2016-04-30T19:34:56Z</time>
      </trkpt>
      <trkpt lat="47.64256" lon="-3.44857">
        <ele>5.91</ele>
        <time>2016-04-30T19:35:09Z</time>
      </trkpt>
      <trkpt lat="47.6425" lon="-3.44861">
        <ele>19.36</ele>
        <time>2016-04-30T19:35:53Z</time>
      </trkpt>
      <trkpt lat="47.64246" lon="-3.44883">
        <ele>15.52</ele>
        <time>2016-04-30T19:36:08Z</time>
      </trkpt>
      <trkpt lat="47.64248" lon="-3.44882">
        <ele>17.44</ele>
        <time>2016-04-30T19:36:13Z</time>
      </trkpt>
      <trkpt lat="47.64254" lon="-3.44853">
        <ele>18.4</ele>
        <time>2016-04-30T19:36:33Z</time>
      </trkpt>
      <trkpt lat="47.64254" lon="-3.44852">
        <ele>17.44</ele>
        <time>2016-04-30T19:36:46Z</time>
      </trkpt>
      <trkpt lat="47.64256" lon="-3.4484">
        <ele>18.4</ele>
        <time>2016-04-30T19:36:54Z</time>
      </trkpt>
      <trkpt lat="47.6425" lon="-3.44834">
        <ele>16.96</ele>
        <time>2016-04-30T19:37:01Z</time>
      </trkpt>
      <trkpt lat="47.64236" lon="-3.44832">
        <ele>16</ele>
        <time>2016-04-30T19:37:18Z</time>
      </trkpt>
      <trkpt lat="47.64242" lon="-3.44832">
        <ele>14.56</ele>
        <time>2016-04-30T19:37:25Z</time>
      </trkpt>
      <trkpt lat="47.64253" lon="-3.44837">
        <ele>11.67</ele>
        <time>2016-04-30T19:37:41Z</time>
      </trkpt>
      <trkpt lat="47.64254" lon="-3.44839">
        <ele>11.19</ele>
        <time>2016-04-30T19:37:53Z</time>
      </trkpt>
      <trkpt lat="47.64253" lon="-3.44841">
        <ele>12.15</ele>
        <time>2016-04-30T19:38:05Z</time>
      </trkpt>
      <trkpt lat="47.64251" lon="-3.44842">
        <ele>10.71</ele>
        <time>2016-04-30T19:38:22Z</time>
      </trkpt>
      <trkpt lat="47.64249" lon="-3.44846">
        <ele>8.31</ele>
        <time>2016-04-30T19:38:37Z</time>
      </trkpt>
      <trkpt lat="47.64248" lon="-3.44845">
        <ele>7.83</ele>
        <time>2016-04-30T19:39:03Z</time>
      </trkpt>
      <trkpt lat="47.64244" lon="-3.44843">
        <ele>7.35</ele>
        <time>2016-04-30T19:39:28Z</time>
      </trkpt>
      <trkpt lat="47.64244" lon="-3.44848">
        <ele>3.5</ele>
        <time>2016-04-30T19:40:02Z</time>
      </trkpt>
      <trkpt lat="47.64247" lon="-3.44848">
        <ele>3.98</ele>
        <time>2016-04-30T19:40:35Z</time>
      </trkpt>
      <trkpt lat="47.64248" lon="-3.44849">
        <ele>4.46</ele>
        <time>2016-04-30T19:41:02Z</time>
      </trkpt>
      <trkpt lat="47.64251" lon="-3.44848">
        <ele>5.91</ele>
        <time>2016-04-30T19:41:29Z</time>
      </trkpt>
      <trkpt lat="47.64252" lon="-3.44848">
        <ele>5.91</ele>
        <time>2016-04-30T19:41:58Z</time>
      </trkpt>
      <trkpt lat="47.64251" lon="-3.44851">
        <ele>5.91</ele>
        <time>2016-04-30T19:42:28Z</time>
      </trkpt>
      <trkpt lat="47.64254" lon="-3.44853">
        <ele>7.83</ele>
        <time>2016-04-30T19:42:55Z</time>
      </trkpt>
      <trkpt lat="47.64255" lon="-3.44855">
        <ele>9.27</ele>
        <time>2016-04-30T19:43:38Z</time>
      </trkpt>
      <trkpt lat="47.64254" lon="-3.44853">
        <ele>10.23</ele>
        <time>2016-04-30T19:44:08Z</time>
      </trkpt>
      <trkpt lat="47.64254" lon="-3.44852">
        <ele>11.67</ele>
        <time>2016-04-30T19:44:40Z</time>
      </trkpt>
      <trkpt lat="47.64251" lon="-3.44851">
        <ele>12.63</ele>
        <time>2016-04-30T19:45:12Z</time>
      </trkpt>
      <trkpt lat="47.64251" lon="-3.44851">
        <ele>13.12</ele>
        <time>2016-04-30T19:45:44Z</time>
      </trkpt>
      <trkpt lat="47.64251" lon="-3.44852">
        <ele>13.12</ele>
        <time>2016-04-30T19:46:15Z</time>
      </trkpt>
      <trkpt lat="47.64248" lon="-3.44849">
        <ele>11.67</ele>
        <time>2016-04-30T19:46:40Z</time>
      </trkpt>
      <trkpt lat="47.64248" lon="-3.4485">
        <ele>11.19</ele>
        <time>2016-04-30T19:47:10Z</time>
      </trkpt>
      <trkpt lat="47.64258" lon="-3.44842">
        <ele>9.27</ele>
        <time>2016-04-30T19:47:49Z</time>
      </trkpt>
      <trkpt lat="47.64255" lon="-3.44851">
        <ele>14.56</ele>
        <time>2016-04-30T19:48:23Z</time>
      </trkpt>
      <trkpt lat="47.64256" lon="-3.44851">
        <ele>17.92</ele>
        <time>2016-04-30T19:48:54Z</time>
      </trkpt>
      <trkpt lat="47.64255" lon="-3.44855">
        <ele>16</ele>
        <time>2016-04-30T19:49:22Z</time>
      </trkpt>
      <trkpt lat="47.64247" lon="-3.44863">
        <ele>15.04</ele>
        <time>2016-04-30T19:49:48Z</time>
      </trkpt>
      <trkpt lat="47.64248" lon="-3.44856">
        <ele>12.15</ele>
        <time>2016-04-30T19:50:15Z</time>
      </trkpt>
      <trkpt lat="47.64248" lon="-3.44858">
        <ele>12.15</ele>
        <time>2016-04-30T19:50:43Z</time>
      </trkpt>
      <trkpt lat="47.64261" lon="-3.44859">
        <ele>13.6</ele>
        <time>2016-04-30T19:51:34Z</time>
      </trkpt>
      <trkpt lat="47.64264" lon="-3.44847">
        <ele>14.56</ele>
        <time>2016-04-30T19:52:00Z</time>
      </trkpt>
      <trkpt lat="47.64255" lon="-3.44842">
        <ele>12.63</ele>
        <time>2016-04-30T19:52:25Z</time>
      </trkpt>
      <trkpt lat="47.64256" lon="-3.44843">
        <ele>12.15</ele>
        <time>2016-04-30T19:52:29Z</time>
      </trkpt>
      <trkpt lat="47.64256" lon="-3.44832">
        <ele>10.71</ele>
        <time>2016-04-30T19:52:56Z</time>
      </trkpt>
      <trkpt lat="47.64256" lon="-3.44854">
        <ele>12.15</ele>
        <time>2016-04-30T19:53:17Z</time>
      </trkpt>
      <trkpt lat="47.64255" lon="-3.44851">
        <ele>10.71</ele>
        <time>2016-04-30T19:53:39Z</time>
      </trkpt>
      <trkpt lat="47.64258" lon="-3.44844">
        <ele>9.27</ele>
        <time>2016-04-30T19:54:05Z</time>
      </trkpt>
      <trkpt lat="47.64255" lon="-3.44844">
        <ele>8.31</ele>
        <time>2016-04-30T19:54:17Z</time>
      </trkpt>
      <trkpt lat="47.64248" lon="-3.44853">
        <ele>7.83</ele>
        <time>2016-04-30T19:55:19Z</time>
      </trkpt>
      <trkpt lat="47.64245" lon="-3.44855">
        <ele>5.42</ele>
        <time>2016-04-30T19:55:43Z</time>
      </trkpt>
      <trkpt lat="47.64238" lon="-3.44857">
        <ele>4.46</ele>
        <time>2016-04-30T19:56:09Z</time>
      </trkpt>
      <trkpt lat="47.64232" lon="-3.44852">
        <ele>4.46</ele>
        <time>2016-04-30T19:56:36Z</time>
      </trkpt>
      <trkpt lat="47.64235" lon="-3.44852">
        <ele>4.46</ele>
        <time>2016-04-30T19:56:39Z</time>
      </trkpt>
      <trkpt lat="47.64254" lon="-3.44858">
        <ele>3.5</ele>
        <time>2016-04-30T19:57:17Z</time>
      </trkpt>
      <trkpt lat="47.64254" lon="-3.44852">
        <ele>3.98</ele>
        <time>2016-04-30T19:57:43Z</time>
      </trkpt>
      <trkpt lat="47.64246" lon="-3.44856">
        <ele>6.87</ele>
        <time>2016-04-30T19:58:05Z</time>
      </trkpt>
      <trkpt lat="47.64248" lon="-3.44852">
        <ele>7.35</ele>
        <time>2016-04-30T19:58:31Z</time>
      </trkpt>
      <trkpt lat="47.64248" lon="-3.44852">
        <ele>7.35</ele>
        <time>2016-04-30T19:58:59Z</time>
      </trkpt>
      <trkpt lat="47.64252" lon="-3.4485">
        <ele>8.31</ele>
        <time>2016-04-30T20:00:23Z</time>
      </trkpt>
      <trkpt lat="47.64255" lon="-3.44848">
        <ele>2.06</ele>
        <time>2016-04-30T20:00:49Z</time>
      </trkpt>
      <trkpt lat="47.64258" lon="-3.44839">
        <ele>0.62</ele>
        <time>2016-04-30T20:01:18Z</time>
      </trkpt>
      <trkpt lat="47.64252" lon="-3.44846">
        <ele>11.19</ele>
        <time>2016-04-30T20:01:45Z</time>
      </trkpt>
      <trkpt lat="47.64247" lon="-3.44857">
        <ele>10.23</ele>
        <time>2016-04-30T20:02:01Z</time>
      </trkpt>
      <trkpt lat="47.64245" lon="-3.44852">
        <ele>4.94</ele>
        <time>2016-04-30T20:02:24Z</time>
      </trkpt>
      <trkpt lat="47.6424" lon="-3.44849">
        <ele>-1.3</ele>
        <time>2016-04-30T20:02:46Z</time>
      </trkpt>
      <trkpt lat="47.64241" lon="-3.44861">
        <ele>-0.82</ele>
        <time>2016-04-30T20:03:09Z</time>
      </trkpt>
      <trkpt lat="47.64237" lon="-3.44858">
        <ele>2.54</ele>
        <time>2016-04-30T20:03:34Z</time>
      </trkpt>
      <trkpt lat="47.6424" lon="-3.44856">
        <ele>3.02</ele>
        <time>2016-04-30T20:04:04Z</time>
      </trkpt>
      <trkpt lat="47.64241" lon="-3.44853">
        <ele>3.02</ele>
        <time>2016-04-30T20:04:41Z</time>
      </trkpt>
      <trkpt lat="47.64238" lon="-3.44851">
        <ele>2.54</ele>
        <time>2016-04-30T20:04:48Z</time>
      </trkpt>
      <trkpt lat="47.64248" lon="-3.44847">
        <ele>3.02</ele>
        <time>2016-04-30T20:05:08Z</time>
      </trkpt>
      <trkpt lat="47.64249" lon="-3.44848">
        <ele>3.5</ele>
        <time>2016-04-30T20:05:38Z</time>
      </trkpt>
      <trkpt lat="47.64249" lon="-3.44849">
        <ele>3.98</ele>
        <time>2016-04-30T20:06:08Z</time>
      </trkpt>
      <trkpt lat="47.6424" lon="-3.44873">
        <ele>5.91</ele>
        <time>2016-04-30T20:06:34Z</time>
      </trkpt>
      <trkpt lat="47.64242" lon="-3.44867">
        <ele>5.91</ele>
        <time>2016-04-30T20:07:00Z</time>
      </trkpt>
      <trkpt lat="47.64248" lon="-3.4486">
        <ele>5.91</ele>
        <time>2016-04-30T20:07:18Z</time>
      </trkpt>
      <trkpt lat="47.64248" lon="-3.4486">
        <ele>7.35</ele>
        <time>2016-04-30T20:07:37Z</time>
      </trkpt>
      <trkpt lat="47.64243" lon="-3.44859">
        <ele>8.79</ele>
        <time>2016-04-30T20:07:58Z</time>
      </trkpt>
      <trkpt lat="47.64237" lon="-3.44867">
        <ele>10.71</ele>
        <time>2016-04-30T20:08:06Z</time>
      </trkpt>
      <trkpt lat="47.64234" lon="-3.44865">
        <ele>9.27</ele>
        <time>2016-04-30T20:08:33Z</time>
      </trkpt>
      <trkpt lat="47.64244" lon="-3.44856">
        <ele>9.27</ele>
        <time>2016-04-30T20:08:55Z</time>
      </trkpt>
      <trkpt lat="47.64249" lon="-3.44851">
        <ele>9.27</ele>
        <time>2016-04-30T20:09:24Z</time>
      </trkpt>
      <trkpt lat="47.64247" lon="-3.4485">
        <ele>8.79</ele>
        <time>2016-04-30T20:09:51Z</time>
      </trkpt>
      <trkpt lat="47.64243" lon="-3.44848">
        <ele>7.83</ele>
        <time>2016-04-30T20:10:14Z</time>
      </trkpt>
      <trkpt lat="47.64244" lon="-3.4485">
        <ele>7.35</ele>
        <time>2016-04-30T20:10:45Z</time>
      </trkpt>
      <trkpt lat="47.64246" lon="-3.44848">
        <ele>8.31</ele>
        <time>2016-04-30T20:11:13Z</time>
      </trkpt>
      <trkpt lat="47.64246" lon="-3.44846">
        <ele>9.27</ele>
        <time>2016-04-30T20:11:24Z</time>
      </trkpt>
      <trkpt lat="47.64241" lon="-3.44848">
        <ele>9.27</ele>
        <time>2016-04-30T20:11:48Z</time>
      </trkpt>
      <trkpt lat="47.64242" lon="-3.44852">
        <ele>9.27</ele>
        <time>2016-04-30T20:12:17Z</time>
      </trkpt>
      <trkpt lat="47.64253" lon="-3.44856">
        <ele>11.19</ele>
        <time>2016-04-30T20:12:40Z</time>
      </trkpt>
      <trkpt lat="47.64254" lon="-3.44851">
        <ele>12.15</ele>
        <time>2016-04-30T20:13:08Z</time>
      </trkpt>
      <trkpt lat="47.64254" lon="-3.44851">
        <ele>13.6</ele>
        <time>2016-04-30T20:13:39Z</time>
      </trkpt>
      <trkpt lat="47.64254" lon="-3.44851">
        <ele>16</ele>
        <time>2016-04-30T20:14:09Z</time>
      </trkpt>
      <trkpt lat="47.64256" lon="-3.44848">
        <ele>15.52</ele>
        <time>2016-04-30T20:14:38Z</time>
      </trkpt>
      <trkpt lat="47.6426" lon="-3.44848">
        <ele>16.48</ele>
        <time>2016-04-30T20:15:10Z</time>
      </trkpt>
      <trkpt lat="47.64259" lon="-3.44847">
        <ele>16.48</ele>
        <time>2016-04-30T20:15:37Z</time>
      </trkpt>
      <trkpt lat="47.64258" lon="-3.44847">
        <ele>16.96</ele>
        <time>2016-04-30T20:16:12Z</time>
      </trkpt>
      <trkpt lat="47.64258" lon="-3.44849">
        <ele>16.96</ele>
        <time>2016-04-30T20:16:39Z</time>
      </trkpt>
      <trkpt lat="47.64252" lon="-3.4485">
        <ele>16.48</ele>
        <time>2016-04-30T20:17:04Z</time>
      </trkpt>
      <trkpt lat="47.64249" lon="-3.44848">
        <ele>16</ele>
        <time>2016-04-30T20:17:32Z</time>
      </trkpt>
      <trkpt lat="47.64255" lon="-3.44855">
        <ele>11.67</ele>
        <time>2016-04-30T20:17:53Z</time>
      </trkpt>
      <trkpt lat="47.64253" lon="-3.44853">
        <ele>11.67</ele>
        <time>2016-04-30T20:18:22Z</time>
      </trkpt>
      <trkpt lat="47.64248" lon="-3.44854">
        <ele>10.23</ele>
        <time>2016-04-30T20:18:52Z</time>
      </trkpt>
      <trkpt lat="47.64243" lon="-3.44851">
        <ele>8.79</ele>
        <time>2016-04-30T20:19:15Z</time>
      </trkpt>
      <trkpt lat="47.64244" lon="-3.44848">
        <ele>5.42</ele>
        <time>2016-04-30T20:19:34Z</time>
      </trkpt>
      <trkpt lat="47.6425" lon="-3.44848">
        <ele>7.83</ele>
        <time>2016-04-30T20:19:54Z</time>
      </trkpt>
      <trkpt lat="47.64256" lon="-3.44855">
        <ele>4.94</ele>
        <time>2016-04-30T20:20:15Z</time>
      </trkpt>
      <trkpt lat="47.64259" lon="-3.44851">
        <ele>3.98</ele>
        <time>2016-04-30T20:20:39Z</time>
      </trkpt>
      <trkpt lat="47.64259" lon="-3.44851">
        <ele>2.54</ele>
        <time>2016-04-30T20:21:02Z</time>
      </trkpt>
      <trkpt lat="47.64269" lon="-3.44851">
        <ele>3.02</ele>
        <time>2016-04-30T20:21:22Z</time>
      </trkpt>
      <trkpt lat="47.64249" lon="-3.44845">
        <ele>3.98</ele>
        <time>2016-04-30T20:21:43Z</time>
      </trkpt>
      <trkpt lat="47.64248" lon="-3.44843">
        <ele>3.5</ele>
        <time>2016-04-30T20:22:06Z</time>
      </trkpt>
      <trkpt lat="47.64249" lon="-3.44846">
        <ele>3.5</ele>
        <time>2016-04-30T20:22:30Z</time>
      </trkpt>
      <trkpt lat="47.64251" lon="-3.44846">
        <ele>5.42</ele>
        <time>2016-04-30T20:23:02Z</time>
      </trkpt>
      <trkpt lat="47.64253" lon="-3.44846">
        <ele>5.42</ele>
        <time>2016-04-30T20:23:15Z</time>
      </trkpt>
      <trkpt lat="47.64264" lon="-3.44839">
        <ele>7.35</ele>
        <time>2016-04-30T20:23:47Z</time>
      </trkpt>
      <trkpt lat="47.64257" lon="-3.44844">
        <ele>6.87</ele>
        <time>2016-04-30T20:24:16Z</time>
      </trkpt>
      <trkpt lat="47.64245" lon="-3.44846">
        <ele>7.35</ele>
        <time>2016-04-30T20:24:42Z</time>
      </trkpt>
      <trkpt lat="47.64246" lon="-3.44846">
        <ele>7.83</ele>
        <time>2016-04-30T20:25:07Z</time>
      </trkpt>
      <trkpt lat="47.64244" lon="-3.44842">
        <ele>7.35</ele>
        <time>2016-04-30T20:25:31Z</time>
      </trkpt>
      <trkpt lat="47.64246" lon="-3.44845">
        <ele>7.35</ele>
        <time>2016-04-30T20:25:56Z</time>
      </trkpt>
      <trkpt lat="47.64247" lon="-3.44845">
        <ele>7.35</ele>
        <time>2016-04-30T20:26:26Z</time>
      </trkpt>
      <trkpt lat="47.64248" lon="-3.44849">
        <ele>6.87</ele>
        <time>2016-04-30T20:26:51Z</time>
      </trkpt>
      <trkpt lat="47.64245" lon="-3.44848">
        <ele>6.39</ele>
        <time>2016-04-30T20:27:16Z</time>
      </trkpt>
      <trkpt lat="47.64227" lon="-3.44831">
        <ele>3.5</ele>
        <time>2016-04-30T20:27:44Z</time>
      </trkpt>
      <trkpt lat="47.64227" lon="-3.44836">
        <ele>3.5</ele>
        <time>2016-04-30T20:28:08Z</time>
      </trkpt>
      <trkpt lat="47.64247" lon="-3.44846">
        <ele>3.98</ele>
        <time>2016-04-30T20:28:35Z</time>
      </trkpt>
      <trkpt lat="47.64247" lon="-3.44853">
        <ele>6.39</ele>
        <time>2016-04-30T20:28:57Z</time>
      </trkpt>
      <trkpt lat="47.64254" lon="-3.44848">
        <ele>6.39</ele>
        <time>2016-04-30T20:29:21Z</time>
      </trkpt>
      <trkpt lat="47.64251" lon="-3.44846">
        <ele>6.87</ele>
        <time>2016-04-30T20:29:47Z</time>
      </trkpt>
      <trkpt lat="47.6425" lon="-3.44845">
        <ele>7.35</ele>
        <time>2016-04-30T20:30:15Z</time>
      </trkpt>
      <trkpt lat="47.6425" lon="-3.44846">
        <ele>7.35</ele>
        <time>2016-04-30T20:30:41Z</time>
      </trkpt>
      <trkpt lat="47.64251" lon="-3.44847">
        <ele>8.31</ele>
        <time>2016-04-30T20:31:12Z</time>
      </trkpt>
      <trkpt lat="47.6425" lon="-3.4485">
        <ele>8.31</ele>
        <time>2016-04-30T20:31:41Z</time>
      </trkpt>
      <trkpt lat="47.64248" lon="-3.44849">
        <ele>7.83</ele>
        <time>2016-04-30T20:32:15Z</time>
      </trkpt>
      <trkpt lat="47.64248" lon="-3.44848">
        <ele>8.31</ele>
        <time>2016-04-30T20:32:39Z</time>
      </trkpt>
      <trkpt lat="47.64247" lon="-3.4485">
        <ele>7.83</ele>
        <time>2016-04-30T20:33:06Z</time>
      </trkpt>
      <trkpt lat="47.64251" lon="-3.44848">
        <ele>7.83</ele>
        <time>2016-04-30T20:33:31Z</time>
      </trkpt>
      <trkpt lat="47.64246" lon="-3.44849">
        <ele>3.98</ele>
        <time>2016-04-30T20:33:52Z</time>
      </trkpt>
      <trkpt lat="47.64249" lon="-3.44848">
        <ele>4.46</ele>
        <time>2016-04-30T20:34:16Z</time>
      </trkpt>
      <trkpt lat="47.64247" lon="-3.44855">
        <ele>3.5</ele>
        <time>2016-04-30T20:34:41Z</time>
      </trkpt>
      <trkpt lat="47.64245" lon="-3.4486">
        <ele>4.46</ele>
        <time>2016-04-30T20:35:01Z</time>
      </trkpt>
      <trkpt lat="47.64238" lon="-3.44872">
        <ele>3.98</ele>
        <time>2016-04-30T20:35:22Z</time>
      </trkpt>
      <trkpt lat="47.64242" lon="-3.44865">
        <ele>3.98</ele>
        <time>2016-04-30T20:35:51Z</time>
      </trkpt>
      <trkpt lat="47.64242" lon="-3.4487">
        <ele>4.46</ele>
        <time>2016-04-30T20:36:08Z</time>
      </trkpt>
      <trkpt lat="47.64243" lon="-3.44868">
        <ele>-1.3</ele>
        <time>2016-04-30T20:36:34Z</time>
      </trkpt>
      <trkpt lat="47.64231" lon="-3.44888">
        <ele>-1.79</ele>
        <time>2016-04-30T20:36:55Z</time>
      </trkpt>
      <trkpt lat="47.64225" lon="-3.44922">
        <ele>-1.79</ele>
        <time>2016-04-30T20:37:27Z</time>
      </trkpt>
      <trkpt lat="47.64236" lon="-3.44889">
        <ele>3.5</ele>
        <time>2016-04-30T20:37:51Z</time>
      </trkpt>
      <trkpt lat="47.64249" lon="-3.44861">
        <ele>4.46</ele>
        <time>2016-04-30T20:38:17Z</time>
      </trkpt>
      <trkpt lat="47.64248" lon="-3.44843">
        <ele>3.02</ele>
        <time>2016-04-30T20:38:40Z</time>
      </trkpt>
      <trkpt lat="47.64244" lon="-3.44846">
        <ele>2.06</ele>
        <time>2016-04-30T20:39:05Z</time>
      </trkpt>
      <trkpt lat="47.64246" lon="-3.44848">
        <ele>3.02</ele>
        <time>2016-04-30T20:39:27Z</time>
      </trkpt>
      <trkpt lat="47.64252" lon="-3.44848">
        <ele>7.35</ele>
        <time>2016-04-30T20:39:54Z</time>
      </trkpt>
      <trkpt lat="47.64252" lon="-3.44841">
        <ele>12.63</ele>
        <time>2016-04-30T20:40:14Z</time>
      </trkpt>
      <trkpt lat="47.64253" lon="-3.44842">
        <ele>16</ele>
        <time>2016-04-30T20:40:27Z</time>
      </trkpt>
      <trkpt lat="47.64253" lon="-3.44843">
        <ele>16.96</ele>
        <time>2016-04-30T20:40:47Z</time>
      </trkpt>
      <trkpt lat="47.64254" lon="-3.44843">
        <ele>17.44</ele>
        <time>2016-04-30T20:41:04Z</time>
      </trkpt>
      <trkpt lat="47.64254" lon="-3.44844">
        <ele>16.96</ele>
        <time>2016-04-30T20:41:20Z</time>
      </trkpt>
      <trkpt lat="47.64255" lon="-3.44844">
        <ele>17.44</ele>
        <time>2016-04-30T20:41:34Z</time>
      </trkpt>
      <trkpt lat="47.64255" lon="-3.44845">
        <ele>16.48</ele>
        <time>2016-04-30T20:41:55Z</time>
      </trkpt>
      <trkpt lat="47.64256" lon="-3.44844">
        <ele>16.96</ele>
        <time>2016-04-30T20:42:14Z</time>
      </trkpt>
      <trkpt lat="47.64257" lon="-3.44844">
        <ele>17.44</ele>
        <time>2016-04-30T20:42:37Z</time>
      </trkpt>
      <trkpt lat="47.64257" lon="-3.44844">
        <ele>18.4</ele>
        <time>2016-04-30T20:43:01Z</time>
      </trkpt>
      <trkpt lat="47.64258" lon="-3.44843">
        <ele>18.4</ele>
        <time>2016-04-30T20:43:25Z</time>
      </trkpt>
      <trkpt lat="47.64258" lon="-3.44843">
        <ele>18.4</ele>
        <time>2016-04-30T20:43:39Z</time>
      </trkpt>
      <trkpt lat="47.64258" lon="-3.44843">
        <ele>18.4</ele>
        <time>2016-04-30T20:43:53Z</time>
      </trkpt>
      <trkpt lat="47.64259" lon="-3.44843">
        <ele>18.4</ele>
        <time>2016-04-30T20:44:14Z</time>
      </trkpt>
      <trkpt lat="47.64259" lon="-3.44842">
        <ele>18.88</ele>
        <time>2016-04-30T20:44:33Z</time>
      </trkpt>
      <trkpt lat="47.64259" lon="-3.44842">
        <ele>19.36</ele>
        <time>2016-04-30T20:44:48Z</time>
      </trkpt>
      <trkpt lat="47.64259" lon="-3.44842">
        <ele>19.36</ele>
        <time>2016-04-30T20:45:01Z</time>
      </trkpt>
      <trkpt lat="47.64259" lon="-3.44842">
        <ele>19.36</ele>
        <time>2016-04-30T20:45:20Z</time>
      </trkpt>
      <trkpt lat="47.64258" lon="-3.44842">
        <ele>18.88</ele>
        <time>2016-04-30T20:45:35Z</time>
      </trkpt>
      <trkpt lat="47.64252" lon="-3.44846">
        <ele>16.48</ele>
        <time>2016-04-30T20:45:51Z</time>
      </trkpt>
      <trkpt lat="47.64251" lon="-3.44846">
        <ele>16</ele>
        <time>2016-04-30T20:46:20Z</time>
      </trkpt>
      <trkpt lat="47.64253" lon="-3.44843">
        <ele>14.08</ele>
        <time>2016-04-30T20:46:45Z</time>
      </trkpt>
      <trkpt lat="47.64251" lon="-3.44847">
        <ele>13.6</ele>
        <time>2016-04-30T20:47:11Z</time>
      </trkpt>
      <trkpt lat="47.64252" lon="-3.44847">
        <ele>13.6</ele>
        <time>2016-04-30T20:47:43Z</time>
      </trkpt>
      <trkpt lat="47.64253" lon="-3.44848">
        <ele>12.63</ele>
        <time>2016-04-30T20:48:11Z</time>
      </trkpt>
      <trkpt lat="47.64255" lon="-3.44844">
        <ele>12.15</ele>
        <time>2016-04-30T20:48:32Z</time>
      </trkpt>
      <trkpt lat="47.64253" lon="-3.44858">
        <ele>10.23</ele>
        <time>2016-04-30T20:48:51Z</time>
      </trkpt>
      <trkpt lat="47.64254" lon="-3.44852">
        <ele>11.67</ele>
        <time>2016-04-30T20:49:15Z</time>
      </trkpt>
      <trkpt lat="47.64252" lon="-3.44845">
        <ele>12.63</ele>
        <time>2016-04-30T20:49:37Z</time>
      </trkpt>
      <trkpt lat="47.64265" lon="-3.44841">
        <ele>11.67</ele>
        <time>2016-04-30T20:50:01Z</time>
      </trkpt>
      <trkpt lat="47.64253" lon="-3.44848">
        <ele>11.19</ele>
        <time>2016-04-30T20:50:24Z</time>
      </trkpt>
      <trkpt lat="47.64251" lon="-3.44846">
        <ele>10.23</ele>
        <time>2016-04-30T20:50:52Z</time>
      </trkpt>
      <trkpt lat="47.64243" lon="-3.44843">
        <ele>12.63</ele>
        <time>2016-04-30T20:51:16Z</time>
      </trkpt>
      <trkpt lat="47.64252" lon="-3.44842">
        <ele>11.19</ele>
        <time>2016-04-30T20:51:36Z</time>
      </trkpt>
      <trkpt lat="47.6425" lon="-3.44844">
        <ele>11.19</ele>
        <time>2016-04-30T20:52:05Z</time>
      </trkpt>
      <trkpt lat="47.64249" lon="-3.44845">
        <ele>9.75</ele>
        <time>2016-04-30T20:52:30Z</time>
      </trkpt>
      <trkpt lat="47.6425" lon="-3.44847">
        <ele>7.83</ele>
        <time>2016-04-30T20:52:54Z</time>
      </trkpt>
      <trkpt lat="47.6425" lon="-3.44845">
        <ele>8.31</ele>
        <time>2016-04-30T20:53:17Z</time>
      </trkpt>
      <trkpt lat="47.64251" lon="-3.44845">
        <ele>8.31</ele>
        <time>2016-04-30T20:53:42Z</time>
      </trkpt>
      <trkpt lat="47.64251" lon="-3.44847">
        <ele>8.79</ele>
        <time>2016-04-30T20:54:11Z</time>
      </trkpt>
      <trkpt lat="47.64251" lon="-3.44848">
        <ele>9.27</ele>
        <time>2016-04-30T20:54:47Z</time>
      </trkpt>
      <trkpt lat="47.6425" lon="-3.44848">
        <ele>9.75</ele>
        <time>2016-04-30T20:55:23Z</time>
      </trkpt>
      <trkpt lat="47.64252" lon="-3.4485">
        <ele>10.23</ele>
        <time>2016-04-30T20:55:49Z</time>
      </trkpt>
      <trkpt lat="47.64256" lon="-3.44861">
        <ele>7.35</ele>
        <time>2016-04-30T20:56:12Z</time>
      </trkpt>
      <trkpt lat="47.64251" lon="-3.44853">
        <ele>9.27</ele>
        <time>2016-04-30T20:56:44Z</time>
      </trkpt>
      <trkpt lat="47.6425" lon="-3.44851">
        <ele>10.23</ele>
        <time>2016-04-30T20:57:14Z</time>
      </trkpt>
      <trkpt lat="47.64249" lon="-3.44851">
        <ele>10.23</ele>
        <time>2016-04-30T20:57:42Z</time>
      </trkpt>
      <trkpt lat="47.6425" lon="-3.44849">
        <ele>9.27</ele>
        <time>2016-04-30T20:58:07Z</time>
      </trkpt>
      <trkpt lat="47.64249" lon="-3.44846">
        <ele>10.23</ele>
        <time>2016-04-30T20:58:21Z</time>
      </trkpt>
      <trkpt lat="47.64247" lon="-3.44846">
        <ele>10.71</ele>
        <time>2016-04-30T20:58:40Z</time>
      </trkpt>
      <trkpt lat="47.64247" lon="-3.44845">
        <ele>11.19</ele>
        <time>2016-04-30T20:59:00Z</time>
      </trkpt>
      <trkpt lat="47.64246" lon="-3.44844">
        <ele>12.15</ele>
        <time>2016-04-30T20:59:24Z</time>
      </trkpt>
      <trkpt lat="47.64246" lon="-3.44843">
        <ele>13.12</ele>
        <time>2016-04-30T20:59:52Z</time>
      </trkpt>
      <trkpt lat="47.64246" lon="-3.44843">
        <ele>13.6</ele>
        <time>2016-04-30T21:00:14Z</time>
      </trkpt>
      <trkpt lat="47.64246" lon="-3.44843">
        <ele>14.56</ele>
        <time>2016-04-30T21:00:43Z</time>
      </trkpt>
      <trkpt lat="47.64246" lon="-3.44842">
        <ele>14.56</ele>
        <time>2016-04-30T21:01:06Z</time>
      </trkpt>
      <trkpt lat="47.64246" lon="-3.44842">
        <ele>14.56</ele>
        <time>2016-04-30T21:01:34Z</time>
      </trkpt>
      <trkpt lat="47.64246" lon="-3.44842">
        <ele>15.04</ele>
        <time>2016-04-30T21:01:58Z</time>
      </trkpt>
      <trkpt lat="47.64246" lon="-3.44841">
        <ele>15.52</ele>
        <time>2016-04-30T21:02:20Z</time>
      </trkpt>
      <trkpt lat="47.64245" lon="-3.44841">
        <ele>15.52</ele>
        <time>2016-04-30T21:02:43Z</time>
      </trkpt>
      <trkpt lat="47.64245" lon="-3.44841">
        <ele>15.52</ele>
        <time>2016-04-30T21:03:08Z</time>
      </trkpt>
      <trkpt lat="47.64246" lon="-3.44841">
        <ele>15.52</ele>
        <time>2016-04-30T21:03:28Z</time>
      </trkpt>
      <trkpt lat="47.64246" lon="-3.4484">
        <ele>15.52</ele>
        <time>2016-04-30T21:03:55Z</time>
      </trkpt>
      <trkpt lat="47.64246" lon="-3.4484">
        <ele>16</ele>
        <time>2016-04-30T21:04:12Z</time>
      </trkpt>
      <trkpt lat="47.64246" lon="-3.4484">
        <ele>16.48</ele>
        <time>2016-04-30T21:04:34Z</time>
      </trkpt>
      <trkpt lat="47.64246" lon="-3.44839">
        <ele>16.96</ele>
        <time>2016-04-30T21:05:00Z</time>
      </trkpt>
      <trkpt lat="47.64246" lon="-3.44839">
        <ele>17.44</ele>
        <time>2016-04-30T21:05:25Z</time>
      </trkpt>
      <trkpt lat="47.64246" lon="-3.44838">
        <ele>17.92</ele>
        <time>2016-04-30T21:05:52Z</time>
      </trkpt>
      <trkpt lat="47.64246" lon="-3.44838">
        <ele>17.92</ele>
        <time>2016-04-30T21:06:20Z</time>
      </trkpt>
      <trkpt lat="47.64247" lon="-3.44838">
        <ele>17.92</ele>
        <time>2016-04-30T21:06:41Z</time>
      </trkpt>
      <trkpt lat="47.64247" lon="-3.44838">
        <ele>18.4</ele>
        <time>2016-04-30T21:07:08Z</time>
      </trkpt>
      <trkpt lat="47.64247" lon="-3.44838">
        <ele>18.88</ele>
        <time>2016-04-30T21:07:32Z</time>
      </trkpt>
      <trkpt lat="47.64246" lon="-3.44838">
        <ele>18.4</ele>
        <time>2016-04-30T21:07:57Z</time>
      </trkpt>
      <trkpt lat="47.64245" lon="-3.44839">
        <ele>18.4</ele>
        <time>2016-04-30T21:08:23Z</time>
      </trkpt>
      <trkpt lat="47.64245" lon="-3.44839">
        <ele>18.4</ele>
        <time>2016-04-30T21:08:38Z</time>
      </trkpt>
      <trkpt lat="47.64245" lon="-3.44838">
        <ele>18.4</ele>
        <time>2016-04-30T21:09:04Z</time>
      </trkpt>
      <trkpt lat="47.64245" lon="-3.44839">
        <ele>18.88</ele>
        <time>2016-04-30T21:09:25Z</time>
      </trkpt>
      <trkpt lat="47.64245" lon="-3.44838">
        <ele>18.88</ele>
        <time>2016-04-30T21:09:42Z</time>
      </trkpt>
      <trkpt lat="47.64245" lon="-3.44838">
        <ele>18.88</ele>
        <time>2016-04-30T21:10:01Z</time>
      </trkpt>
      <trkpt lat="47.64245" lon="-3.44839">
        <ele>18.88</ele>
        <time>2016-04-30T21:10:21Z</time>
      </trkpt>
      <trkpt lat="47.64245" lon="-3.4484">
        <ele>18.88</ele>
        <time>2016-04-30T21:10:43Z</time>
      </trkpt>
      <trkpt lat="47.64245" lon="-3.4484">
        <ele>18.4</ele>
        <time>2016-04-30T21:11:04Z</time>
      </trkpt>
      <trkpt lat="47.64245" lon="-3.44839">
        <ele>18.4</ele>
        <time>2016-04-30T21:11:23Z</time>
      </trkpt>
      <trkpt lat="47.64245" lon="-3.4484">
        <ele>17.92</ele>
        <time>2016-04-30T21:11:41Z</time>
      </trkpt>
      <trkpt lat="47.64244" lon="-3.44839">
        <ele>17.92</ele>
        <time>2016-04-30T21:12:02Z</time>
      </trkpt>
      <trkpt lat="47.64244" lon="-3.44839">
        <ele>17.92</ele>
        <time>2016-04-30T21:12:22Z</time>
      </trkpt>
      <trkpt lat="47.64245" lon="-3.4484">
        <ele>18.4</ele>
        <time>2016-04-30T21:12:40Z</time>
      </trkpt>
      <trkpt lat="47.64246" lon="-3.44839">
        <ele>18.4</ele>
        <time>2016-04-30T21:13:05Z</time>
      </trkpt>
      <trkpt lat="47.64245" lon="-3.44839">
        <ele>17.92</ele>
        <time>2016-04-30T21:13:29Z</time>
      </trkpt>
      <trkpt lat="47.64245" lon="-3.44839">
        <ele>17.92</ele>
        <time>2016-04-30T21:13:51Z</time>
      </trkpt>
      <trkpt lat="47.64245" lon="-3.44839">
        <ele>17.92</ele>
        <time>2016-04-30T21:14:12Z</time>
      </trkpt>
      <trkpt lat="47.64245" lon="-3.44838">
        <ele>18.88</ele>
        <time>2016-04-30T21:14:40Z</time>
      </trkpt>
      <trkpt lat="47.64245" lon="-3.44838">
        <ele>18.88</ele>
        <time>2016-04-30T21:15:01Z</time>
      </trkpt>
      <trkpt lat="47.64246" lon="-3.44838">
        <ele>18.88</ele>
        <time>2016-04-30T21:15:19Z</time>
      </trkpt>
      <trkpt lat="47.64246" lon="-3.44838">
        <ele>18.88</ele>
        <time>2016-04-30T21:15:36Z</time>
      </trkpt>
      <trkpt lat="47.64246" lon="-3.44839">
        <ele>19.36</ele>
        <time>2016-04-30T21:15:52Z</time>
      </trkpt>
      <trkpt lat="47.64246" lon="-3.44839">
        <ele>18.88</ele>
        <time>2016-04-30T21:16:17Z</time>
      </trkpt>
      <trkpt lat="47.64246" lon="-3.4484">
        <ele>18.88</ele>
        <time>2016-04-30T21:16:35Z</time>
      </trkpt>
      <trkpt lat="47.64246" lon="-3.4484">
        <ele>19.36</ele>
        <time>2016-04-30T21:17:04Z</time>
      </trkpt>
      <trkpt lat="47.64246" lon="-3.44839">
        <ele>18.88</ele>
        <time>2016-04-30T21:17:28Z</time>
      </trkpt>
      <trkpt lat="47.64247" lon="-3.44839">
        <ele>18.88</ele>
        <time>2016-04-30T21:17:55Z</time>
      </trkpt>
      <trkpt lat="47.64246" lon="-3.44839">
        <ele>18.4</ele>
        <time>2016-04-30T21:18:14Z</time>
      </trkpt>
      <trkpt lat="47.64246" lon="-3.44839">
        <ele>17.92</ele>
        <time>2016-04-30T21:18:42Z</time>
      </trkpt>
      <trkpt lat="47.64246" lon="-3.44839">
        <ele>17.44</ele>
        <time>2016-04-30T21:19:18Z</time>
      </trkpt>
      <trkpt lat="47.64246" lon="-3.44839">
        <ele>17.44</ele>
        <time>2016-04-30T21:19:44Z</time>
      </trkpt>
      <trkpt lat="47.64246" lon="-3.44838">
        <ele>17.44</ele>
        <time>2016-04-30T21:20:15Z</time>
      </trkpt>
      <trkpt lat="47.64246" lon="-3.44839">
        <ele>17.44</ele>
        <time>2016-04-30T21:20:40Z</time>
      </trkpt>
      <trkpt lat="47.64245" lon="-3.44839">
        <ele>17.44</ele>
        <time>2016-04-30T21:21:03Z</time>
      </trkpt>
      <trkpt lat="47.64246" lon="-3.44839">
        <ele>18.4</ele>
        <time>2016-04-30T21:21:36Z</time>
      </trkpt>
      <trkpt lat="47.64246" lon="-3.44838">
        <ele>17.44</ele>
        <time>2016-04-30T21:21:56Z</time>
      </trkpt>
      <trkpt lat="47.64249" lon="-3.44839">
        <ele>15.04</ele>
        <time>2016-04-30T21:22:10Z</time>
      </trkpt>
      <trkpt lat="47.64249" lon="-3.44838">
        <ele>14.08</ele>
        <time>2016-04-30T21:22:11Z</time>
      </trkpt>
      <trkpt lat="47.6425" lon="-3.44836">
        <ele>13.12</ele>
        <time>2016-04-30T21:22:13Z</time>
      </trkpt>
      <trkpt lat="47.64264" lon="-3.4482">
        <ele>9.27</ele>
        <time>2016-04-30T21:22:27Z</time>
      </trkpt>
      <trkpt lat="47.64281" lon="-3.44801">
        <ele>8.31</ele>
        <time>2016-04-30T21:22:44Z</time>
      </trkpt>
      <trkpt lat="47.64286" lon="-3.44787">
        <ele>8.31</ele>
        <time>2016-04-30T21:22:53Z</time>
      </trkpt>
      <trkpt lat="47.6429" lon="-3.4476">
        <ele>8.31</ele>
        <time>2016-04-30T21:23:08Z</time>
      </trkpt>
      <trkpt lat="47.64299" lon="-3.44733">
        <ele>10.23</ele>
        <time>2016-04-30T21:23:24Z</time>
      </trkpt>
      <trkpt lat="47.64307" lon="-3.44703">
        <ele>9.27</ele>
        <time>2016-04-30T21:23:40Z</time>
      </trkpt>
      <trkpt lat="47.64315" lon="-3.44676">
        <ele>8.31</ele>
        <time>2016-04-30T21:23:55Z</time>
      </trkpt>
      <trkpt lat="47.64319" lon="-3.44666">
        <ele>8.79</ele>
        <time>2016-04-30T21:24:01Z</time>
      </trkpt>
      <trkpt lat="47.64323" lon="-3.44657">
        <ele>7.83</ele>
        <time>2016-04-30T21:24:07Z</time>
      </trkpt>
      <trkpt lat="47.6433" lon="-3.44634">
        <ele>7.35</ele>
        <time>2016-04-30T21:24:23Z</time>
      </trkpt>
      <trkpt lat="47.64331" lon="-3.44634">
        <ele>8.31</ele>
        <time>2016-04-30T21:24:28Z</time>
      </trkpt>
      <trkpt lat="47.64344" lon="-3.44634">
        <ele>7.83</ele>
        <time>2016-04-30T21:24:42Z</time>
      </trkpt>
      <trkpt lat="47.64345" lon="-3.44633">
        <ele>7.83</ele>
        <time>2016-04-30T21:24:43Z</time>
      </trkpt>
      <trkpt lat="47.64355" lon="-3.4462">
        <ele>6.39</ele>
        <time>2016-04-30T21:24:55Z</time>
      </trkpt>
      <trkpt lat="47.64364" lon="-3.44607">
        <ele>4.46</ele>
        <time>2016-04-30T21:25:11Z</time>
      </trkpt>
      <trkpt lat="47.64374" lon="-3.44592">
        <ele>3.5</ele>
        <time>2016-04-30T21:25:27Z</time>
      </trkpt>
      <trkpt lat="47.64382" lon="-3.4458">
        <ele>2.54</ele>
        <time>2016-04-30T21:25:40Z</time>
      </trkpt>
      <trkpt lat="47.64384" lon="-3.44576">
        <ele>1.58</ele>
        <time>2016-04-30T21:25:51Z</time>
      </trkpt>
      <trkpt lat="47.6438" lon="-3.44571">
        <ele>2.06</ele>
        <time>2016-04-30T21:26:04Z</time>
      </trkpt>
      <trkpt lat="47.64381" lon="-3.44571">
        <ele>2.06</ele>
        <time>2016-04-30T21:26:20Z</time>
      </trkpt>
      <trkpt lat="47.64381" lon="-3.44571">
        <ele>2.06</ele>
        <time>2016-04-30T21:26:38Z</time>
      </trkpt>
      <trkpt lat="47.6438" lon="-3.44571">
        <ele>2.06</ele>
        <time>2016-04-30T21:26:53Z</time>
      </trkpt>
      <trkpt lat="47.64381" lon="-3.44571">
        <ele>2.06</ele>
        <time>2016-04-30T21:27:15Z</time>
      </trkpt>
      <trkpt lat="47.64381" lon="-3.4457">
        <ele>1.1</ele>
        <time>2016-04-30T21:27:33Z</time>
      </trkpt>
      <trkpt lat="47.64381" lon="-3.44569">
        <ele>1.1</ele>
        <time>2016-04-30T21:27:51Z</time>
      </trkpt>
      <trkpt lat="47.64381" lon="-3.44568">
        <ele>1.1</ele>
        <time>2016-04-30T21:28:08Z</time>
      </trkpt>
      <trkpt lat="47.64381" lon="-3.44568">
        <ele>1.58</ele>
        <time>2016-04-30T21:28:32Z</time>
      </trkpt>
      <trkpt lat="47.64381" lon="-3.44568">
        <ele>1.58</ele>
        <time>2016-04-30T21:28:49Z</time>
      </trkpt>
      <trkpt lat="47.64381" lon="-3.44569">
        <ele>1.58</ele>
        <time>2016-04-30T21:29:06Z</time>
      </trkpt>
      <trkpt lat="47.64381" lon="-3.4457">
        <ele>2.54</ele>
        <time>2016-04-30T21:29:39Z</time>
      </trkpt>
      <trkpt lat="47.6438" lon="-3.44571">
        <ele>3.02</ele>
        <time>2016-04-30T21:30:08Z</time>
      </trkpt>
      <trkpt lat="47.6438" lon="-3.44571">
        <ele>3.5</ele>
        <time>2016-04-30T21:30:32Z</time>
      </trkpt>
      <trkpt lat="47.64379" lon="-3.44571">
        <ele>3.98</ele>
        <time>2016-04-30T21:30:59Z</time>
      </trkpt>
      <trkpt lat="47.64379" lon="-3.44571">
        <ele>4.46</ele>
        <time>2016-04-30T21:31:38Z</time>
      </trkpt>
      <trkpt lat="47.64379" lon="-3.44572">
        <ele>4.46</ele>
        <time>2016-04-30T21:32:12Z</time>
      </trkpt>
      <trkpt lat="47.64379" lon="-3.44572">
        <ele>4.46</ele>
        <time>2016-04-30T21:32:43Z</time>
      </trkpt>
      <trkpt lat="47.6438" lon="-3.44572">
        <ele>4.94</ele>
        <time>2016-04-30T21:33:02Z</time>
      </trkpt>
      <trkpt lat="47.6438" lon="-3.4457">
        <ele>4.94</ele>
        <time>2016-04-30T21:33:18Z</time>
      </trkpt>
      <trkpt lat="47.64381" lon="-3.44568">
        <ele>4.94</ele>
        <time>2016-04-30T21:33:39Z</time>
      </trkpt>
      <trkpt lat="47.64381" lon="-3.44566">
        <ele>3.5</ele>
        <time>2016-04-30T21:33:58Z</time>
      </trkpt>
      <trkpt lat="47.64381" lon="-3.44566">
        <ele>3.5</ele>
        <time>2016-04-30T21:34:13Z</time>
      </trkpt>
      <trkpt lat="47.64382" lon="-3.44565">
        <ele>3.98</ele>
        <time>2016-04-30T21:34:35Z</time>
      </trkpt>
      <trkpt lat="47.64382" lon="-3.44564">
        <ele>4.46</ele>
        <time>2016-04-30T21:34:56Z</time>
      </trkpt>
      <trkpt lat="47.64382" lon="-3.44565">
        <ele>5.42</ele>
        <time>2016-04-30T21:35:15Z</time>
      </trkpt>
      <trkpt lat="47.64383" lon="-3.44565">
        <ele>5.42</ele>
        <time>2016-04-30T21:35:35Z</time>
      </trkpt>
      <trkpt lat="47.64384" lon="-3.44566">
        <ele>5.42</ele>
        <time>2016-04-30T21:35:56Z</time>
      </trkpt>
      <trkpt lat="47.64385" lon="-3.44566">
        <ele>6.39</ele>
        <time>2016-04-30T21:36:13Z</time>
      </trkpt>
      <trkpt lat="47.64384" lon="-3.44566">
        <ele>7.35</ele>
        <time>2016-04-30T21:36:35Z</time>
      </trkpt>
      <trkpt lat="47.64385" lon="-3.44565">
        <ele>8.31</ele>
        <time>2016-04-30T21:37:01Z</time>
      </trkpt>
      <trkpt lat="47.64385" lon="-3.44565">
        <ele>9.75</ele>
        <time>2016-04-30T21:37:21Z</time>
      </trkpt>
      <trkpt lat="47.64385" lon="-3.44565">
        <ele>9.75</ele>
        <time>2016-04-30T21:37:44Z</time>
      </trkpt>
      <trkpt lat="47.64385" lon="-3.44564">
        <ele>9.75</ele>
        <time>2016-04-30T21:38:06Z</time>
      </trkpt>
      <trkpt lat="47.64384" lon="-3.44564">
        <ele>9.27</ele>
        <time>2016-04-30T21:38:29Z</time>
      </trkpt>
      <trkpt lat="47.64383" lon="-3.44564">
        <ele>9.75</ele>
        <time>2016-04-30T21:38:49Z</time>
      </trkpt>
      <trkpt lat="47.64383" lon="-3.44562">
        <ele>10.23</ele>
        <time>2016-04-30T21:39:09Z</time>
      </trkpt>
      <trkpt lat="47.64383" lon="-3.44561">
        <ele>11.19</ele>
        <time>2016-04-30T21:39:31Z</time>
      </trkpt>
      <trkpt lat="47.64383" lon="-3.44561">
        <ele>10.71</ele>
        <time>2016-04-30T21:39:55Z</time>
      </trkpt>
      <trkpt lat="47.64383" lon="-3.44561">
        <ele>10.71</ele>
        <time>2016-04-30T21:40:10Z</time>
      </trkpt>
      <trkpt lat="47.64382" lon="-3.44561">
        <ele>10.71</ele>
        <time>2016-04-30T21:40:27Z</time>
      </trkpt>
      <trkpt lat="47.64383" lon="-3.44561">
        <ele>10.23</ele>
        <time>2016-04-30T21:40:57Z</time>
      </trkpt>
      <trkpt lat="47.64383" lon="-3.44563">
        <ele>9.27</ele>
        <time>2016-04-30T21:41:19Z</time>
      </trkpt>
      <trkpt lat="47.64384" lon="-3.44564">
        <ele>8.31</ele>
        <time>2016-04-30T21:41:43Z</time>
      </trkpt>
      <trkpt lat="47.64384" lon="-3.44564">
        <ele>7.83</ele>
        <time>2016-04-30T21:42:06Z</time>
      </trkpt>
      <trkpt lat="47.64384" lon="-3.44565">
        <ele>7.83</ele>
        <time>2016-04-30T21:42:21Z</time>
      </trkpt>
      <trkpt lat="47.64384" lon="-3.44565">
        <ele>8.31</ele>
        <time>2016-04-30T21:42:39Z</time>
      </trkpt>
      <trkpt lat="47.64384" lon="-3.44564">
        <ele>8.79</ele>
        <time>2016-04-30T21:43:01Z</time>
      </trkpt>
      <trkpt lat="47.64384" lon="-3.44563">
        <ele>8.31</ele>
        <time>2016-04-30T21:43:25Z</time>
      </trkpt>
      <trkpt lat="47.64384" lon="-3.44563">
        <ele>7.83</ele>
        <time>2016-04-30T21:43:51Z</time>
      </trkpt>
      <trkpt lat="47.64384" lon="-3.44564">
        <ele>8.31</ele>
        <time>2016-04-30T21:44:17Z</time>
      </trkpt>
      <trkpt lat="47.64385" lon="-3.44564">
        <ele>8.79</ele>
        <time>2016-04-30T21:44:46Z</time>
      </trkpt>
      <trkpt lat="47.64385" lon="-3.44565">
        <ele>8.79</ele>
        <time>2016-04-30T21:45:14Z</time>
      </trkpt>
      <trkpt lat="47.64385" lon="-3.44566">
        <ele>9.27</ele>
        <time>2016-04-30T21:45:38Z</time>
      </trkpt>
      <trkpt lat="47.64385" lon="-3.44567">
        <ele>8.31</ele>
        <time>2016-04-30T21:45:54Z</time>
      </trkpt>
      <trkpt lat="47.64385" lon="-3.44567">
        <ele>8.31</ele>
        <time>2016-04-30T21:46:17Z</time>
      </trkpt>
      <trkpt lat="47.64385" lon="-3.44566">
        <ele>8.79</ele>
        <time>2016-04-30T21:46:52Z</time>
      </trkpt>
      <trkpt lat="47.64385" lon="-3.44566">
        <ele>8.79</ele>
        <time>2016-04-30T21:47:21Z</time>
      </trkpt>
      <trkpt lat="47.64385" lon="-3.44566">
        <ele>8.31</ele>
        <time>2016-04-30T21:47:42Z</time>
      </trkpt>
      <trkpt lat="47.64385" lon="-3.44566">
        <ele>7.83</ele>
        <time>2016-04-30T21:48:09Z</time>
      </trkpt>
      <trkpt lat="47.64385" lon="-3.44566">
        <ele>7.83</ele>
        <time>2016-04-30T21:48:36Z</time>
      </trkpt>
      <trkpt lat="47.64384" lon="-3.44568">
        <ele>6.39</ele>
        <time>2016-04-30T21:49:03Z</time>
      </trkpt>
      <trkpt lat="47.64383" lon="-3.44568">
        <ele>5.42</ele>
        <time>2016-04-30T21:49:39Z</time>
      </trkpt>
      <trkpt lat="47.64383" lon="-3.44568">
        <ele>4.94</ele>
        <time>2016-04-30T21:49:52Z</time>
      </trkpt>
      <trkpt lat="47.64383" lon="-3.44569">
        <ele>4.94</ele>
        <time>2016-04-30T21:50:21Z</time>
      </trkpt>
      <trkpt lat="47.64384" lon="-3.4457">
        <ele>4.94</ele>
        <time>2016-04-30T21:50:48Z</time>
      </trkpt>
      <trkpt lat="47.64383" lon="-3.4457">
        <ele>4.46</ele>
        <time>2016-04-30T21:51:18Z</time>
      </trkpt>
      <trkpt lat="47.64383" lon="-3.4457">
        <ele>4.46</ele>
        <time>2016-04-30T21:51:48Z</time>
      </trkpt>
      <trkpt lat="47.64383" lon="-3.44571">
        <ele>4.46</ele>
        <time>2016-04-30T21:52:19Z</time>
      </trkpt>
      <trkpt lat="47.64383" lon="-3.44571">
        <ele>4.46</ele>
        <time>2016-04-30T21:52:53Z</time>
      </trkpt>
      <trkpt lat="47.64383" lon="-3.44571">
        <ele>4.46</ele>
        <time>2016-04-30T21:53:27Z</time>
      </trkpt>
      <trkpt lat="47.64383" lon="-3.44571">
        <ele>3.98</ele>
        <time>2016-04-30T21:54:02Z</time>
      </trkpt>
      <trkpt lat="47.64383" lon="-3.4457">
        <ele>3.98</ele>
        <time>2016-04-30T21:54:41Z</time>
      </trkpt>
      <trkpt lat="47.64383" lon="-3.4457">
        <ele>4.46</ele>
        <time>2016-04-30T21:55:17Z</time>
      </trkpt>
      <trkpt lat="47.64383" lon="-3.4457">
        <ele>4.46</ele>
        <time>2016-04-30T21:55:47Z</time>
      </trkpt>
      <trkpt lat="47.64383" lon="-3.4457">
        <ele>3.98</ele>
        <time>2016-04-30T21:56:15Z</time>
      </trkpt>
      <trkpt lat="47.64383" lon="-3.4457">
        <ele>4.46</ele>
        <time>2016-04-30T21:56:49Z</time>
      </trkpt>
      <trkpt lat="47.64383" lon="-3.4457">
        <ele>4.46</ele>
        <time>2016-04-30T21:57:28Z</time>
      </trkpt>
      <trkpt lat="47.64383" lon="-3.44571">
        <ele>4.94</ele>
        <time>2016-04-30T21:58:07Z</time>
      </trkpt>
      <trkpt lat="47.64383" lon="-3.4457">
        <ele>3.5</ele>
        <time>2016-04-30T21:58:44Z</time>
      </trkpt>
      <trkpt lat="47.64383" lon="-3.44571">
        <ele>3.02</ele>
        <time>2016-04-30T21:59:18Z</time>
      </trkpt>
      <trkpt lat="47.64383" lon="-3.4457">
        <ele>3.5</ele>
        <time>2016-04-30T21:59:47Z</time>
      </trkpt>
      <trkpt lat="47.64383" lon="-3.44569">
        <ele>3.5</ele>
        <time>2016-04-30T22:00:24Z</time>
      </trkpt>
      <trkpt lat="47.64383" lon="-3.44569">
        <ele>3.5</ele>
        <time>2016-04-30T22:00:55Z</time>
      </trkpt>
      <trkpt lat="47.64384" lon="-3.44569">
        <ele>3.5</ele>
        <time>2016-04-30T22:01:28Z</time>
      </trkpt>
      <trkpt lat="47.64384" lon="-3.44569">
        <ele>3.98</ele>
        <time>2016-04-30T22:02:08Z</time>
      </trkpt>
      <trkpt lat="47.64384" lon="-3.4457">
        <ele>4.46</ele>
        <time>2016-04-30T22:02:42Z</time>
      </trkpt>
      <trkpt lat="47.64383" lon="-3.4457">
        <ele>3.5</ele>
        <time>2016-04-30T22:03:16Z</time>
      </trkpt>
      <trkpt lat="47.64384" lon="-3.4457">
        <ele>3.02</ele>
        <time>2016-04-30T22:03:55Z</time>
      </trkpt>
      <trkpt lat="47.64384" lon="-3.4457">
        <ele>3.5</ele>
        <time>2016-04-30T22:04:24Z</time>
      </trkpt>
      <trkpt lat="47.64384" lon="-3.44569">
        <ele>3.98</ele>
        <time>2016-04-30T22:04:58Z</time>
      </trkpt>
      <trkpt lat="47.64383" lon="-3.4457">
        <ele>3.98</ele>
        <time>2016-04-30T22:05:37Z</time>
      </trkpt>
      <trkpt lat="47.64384" lon="-3.44569">
        <ele>3.98</ele>
        <time>2016-04-30T22:06:15Z</time>
      </trkpt>
      <trkpt lat="47.64384" lon="-3.44569">
        <ele>3.98</ele>
        <time>2016-04-30T22:06:46Z</time>
      </trkpt>
      <trkpt lat="47.64384" lon="-3.44569">
        <ele>4.46</ele>
        <time>2016-04-30T22:07:22Z</time>
      </trkpt>
      <trkpt lat="47.64384" lon="-3.44569">
        <ele>3.5</ele>
        <time>2016-04-30T22:08:03Z</time>
      </trkpt>
      <trkpt lat="47.64384" lon="-3.44569">
        <ele>3.02</ele>
        <time>2016-04-30T22:08:49Z</time>
      </trkpt>
      <trkpt lat="47.64384" lon="-3.44569">
        <ele>3.02</ele>
        <time>2016-04-30T22:09:38Z</time>
      </trkpt>
      <trkpt lat="47.64385" lon="-3.44569">
        <ele>2.54</ele>
        <time>2016-04-30T22:10:25Z</time>
      </trkpt>
      <trkpt lat="47.64384" lon="-3.44568">
        <ele>2.54</ele>
        <time>2016-04-30T22:11:13Z</time>
      </trkpt>
      <trkpt lat="47.64384" lon="-3.44569">
        <ele>2.06</ele>
        <time>2016-04-30T22:11:53Z</time>
      </trkpt>
      <trkpt lat="47.64383" lon="-3.4457">
        <ele>1.58</ele>
        <time>2016-04-30T22:12:25Z</time>
      </trkpt>
      <trkpt lat="47.64384" lon="-3.4457">
        <ele>1.1</ele>
        <time>2016-04-30T22:13:09Z</time>
      </trkpt>
      <trkpt lat="47.64384" lon="-3.4457">
        <ele>1.58</ele>
        <time>2016-04-30T22:13:52Z</time>
      </trkpt>
      <trkpt lat="47.64384" lon="-3.4457">
        <ele>1.1</ele>
        <time>2016-04-30T22:14:38Z</time>
      </trkpt>
      <trkpt lat="47.64385" lon="-3.4457">
        <ele>1.1</ele>
        <time>2016-04-30T22:15:22Z</time>
      </trkpt>
      <trkpt lat="47.64385" lon="-3.44569">
        <ele>1.58</ele>
        <time>2016-04-30T22:16:06Z</time>
      </trkpt>
      <trkpt lat="47.64385" lon="-3.44569">
        <ele>1.58</ele>
        <time>2016-04-30T22:16:53Z</time>
      </trkpt>
      <trkpt lat="47.64385" lon="-3.44569">
        <ele>1.58</ele>
        <time>2016-04-30T22:17:41Z</time>
      </trkpt>
      <trkpt lat="47.64385" lon="-3.44569">
        <ele>1.58</ele>
        <time>2016-04-30T22:18:33Z</time>
      </trkpt>
      <trkpt lat="47.64385" lon="-3.4457">
        <ele>0.62</ele>
        <time>2016-04-30T22:19:11Z</time>
      </trkpt>
      <trkpt lat="47.64384" lon="-3.44569">
        <ele>1.1</ele>
        <time>2016-04-30T22:19:52Z</time>
      </trkpt>
      <trkpt lat="47.64384" lon="-3.44569">
        <ele>2.54</ele>
        <time>2016-04-30T22:20:41Z</time>
      </trkpt>
      <trkpt lat="47.64384" lon="-3.44569">
        <ele>1.58</ele>
        <time>2016-04-30T22:21:28Z</time>
      </trkpt>
      <trkpt lat="47.64384" lon="-3.44569">
        <ele>1.1</ele>
        <time>2016-04-30T22:22:20Z</time>
      </trkpt>
      <trkpt lat="47.64384" lon="-3.4457">
        <ele>1.1</ele>
        <time>2016-04-30T22:23:16Z</time>
      </trkpt>
      <trkpt lat="47.64384" lon="-3.4457">
        <ele>1.1</ele>
        <time>2016-04-30T22:24:00Z</time>
      </trkpt>
      <trkpt lat="47.64385" lon="-3.4457">
        <ele>1.58</ele>
        <time>2016-04-30T22:24:45Z</time>
      </trkpt>
      <trkpt lat="47.64384" lon="-3.44571">
        <ele>1.1</ele>
        <time>2016-04-30T22:25:31Z</time>
      </trkpt>
      <trkpt lat="47.64383" lon="-3.44572">
        <ele>1.58</ele>
        <time>2016-04-30T22:26:10Z</time>
      </trkpt>
      <trkpt lat="47.64382" lon="-3.44571">
        <ele>2.06</ele>
        <time>2016-04-30T22:26:45Z</time>
      </trkpt>
      <trkpt lat="47.64383" lon="-3.44571">
        <ele>2.54</ele>
        <time>2016-04-30T22:27:28Z</time>
      </trkpt>
      <trkpt lat="47.64384" lon="-3.4457">
        <ele>3.02</ele>
        <time>2016-04-30T22:28:17Z</time>
      </trkpt>
      <trkpt lat="47.64384" lon="-3.4457">
        <ele>3.5</ele>
        <time>2016-04-30T22:28:59Z</time>
      </trkpt>
      <trkpt lat="47.64384" lon="-3.4457">
        <ele>2.54</ele>
        <time>2016-04-30T22:29:44Z</time>
      </trkpt>
      <trkpt lat="47.64384" lon="-3.44569">
        <ele>3.5</ele>
        <time>2016-04-30T22:30:30Z</time>
      </trkpt>
      <trkpt lat="47.64383" lon="-3.4457">
        <ele>3.5</ele>
        <time>2016-04-30T22:31:04Z</time>
      </trkpt>
      <trkpt lat="47.64384" lon="-3.44571">
        <ele>3.02</ele>
        <time>2016-04-30T22:31:40Z</time>
      </trkpt>
      <trkpt lat="47.64384" lon="-3.4457">
        <ele>3.98</ele>
        <time>2016-04-30T22:32:21Z</time>
      </trkpt>
      <trkpt lat="47.64383" lon="-3.4457">
        <ele>3.98</ele>
        <time>2016-04-30T22:32:59Z</time>
      </trkpt>
      <trkpt lat="47.64384" lon="-3.4457">
        <ele>4.46</ele>
        <time>2016-04-30T22:33:48Z</time>
      </trkpt>
      <trkpt lat="47.64384" lon="-3.44571">
        <ele>4.46</ele>
        <time>2016-04-30T22:34:30Z</time>
      </trkpt>
      <trkpt lat="47.64384" lon="-3.4457">
        <ele>4.46</ele>
        <time>2016-04-30T22:35:08Z</time>
      </trkpt>
      <trkpt lat="47.64384" lon="-3.4457">
        <ele>4.46</ele>
        <time>2016-04-30T22:35:43Z</time>
      </trkpt>
      <trkpt lat="47.64383" lon="-3.44571">
        <ele>3.98</ele>
        <time>2016-04-30T22:36:30Z</time>
      </trkpt>
      <trkpt lat="47.64383" lon="-3.44571">
        <ele>3.98</ele>
        <time>2016-04-30T22:37:08Z</time>
      </trkpt>
      <trkpt lat="47.64383" lon="-3.4457">
        <ele>4.46</ele>
        <time>2016-04-30T22:37:41Z</time>
      </trkpt>
      <trkpt lat="47.64384" lon="-3.4457">
        <ele>3.98</ele>
        <time>2016-04-30T22:38:18Z</time>
      </trkpt>
      <trkpt lat="47.64384" lon="-3.4457">
        <ele>4.46</ele>
        <time>2016-04-30T22:39:05Z</time>
      </trkpt>
      <trkpt lat="47.64384" lon="-3.44571">
        <ele>4.46</ele>
        <time>2016-04-30T22:39:41Z</time>
      </trkpt>
      <trkpt lat="47.64383" lon="-3.44571">
        <ele>3.5</ele>
        <time>2016-04-30T22:40:12Z</time>
      </trkpt>
      <trkpt lat="47.64384" lon="-3.44571">
        <ele>3.5</ele>
        <time>2016-04-30T22:40:48Z</time>
      </trkpt>
      <trkpt lat="47.64384" lon="-3.44569">
        <ele>3.98</ele>
        <time>2016-04-30T22:41:24Z</time>
      </trkpt>
      <trkpt lat="47.64384" lon="-3.44569">
        <ele>4.46</ele>
        <time>2016-04-30T22:41:54Z</time>
      </trkpt>
      <trkpt lat="47.64384" lon="-3.44569">
        <ele>4.46</ele>
        <time>2016-04-30T22:42:27Z</time>
      </trkpt>
      <trkpt lat="47.64384" lon="-3.44569">
        <ele>5.42</ele>
        <time>2016-04-30T22:43:04Z</time>
      </trkpt>
      <trkpt lat="47.64384" lon="-3.4457">
        <ele>5.42</ele>
        <time>2016-04-30T22:43:44Z</time>
      </trkpt>
      <trkpt lat="47.64384" lon="-3.44571">
        <ele>5.42</ele>
        <time>2016-04-30T22:44:23Z</time>
      </trkpt>
      <trkpt lat="47.64383" lon="-3.44572">
        <ele>5.42</ele>
        <time>2016-04-30T22:45:05Z</time>
      </trkpt>
      <trkpt lat="47.64383" lon="-3.44572">
        <ele>5.42</ele>
        <time>2016-04-30T22:45:43Z</time>
      </trkpt>
      <trkpt lat="47.64384" lon="-3.44571">
        <ele>5.42</ele>
        <time>2016-04-30T22:46:08Z</time>
      </trkpt>
      <trkpt lat="47.64384" lon="-3.44571">
        <ele>6.39</ele>
        <time>2016-04-30T22:46:46Z</time>
      </trkpt>
      <trkpt lat="47.64384" lon="-3.44572">
        <ele>5.91</ele>
        <time>2016-04-30T22:47:28Z</time>
      </trkpt>
      <trkpt lat="47.64383" lon="-3.44572">
        <ele>6.39</ele>
        <time>2016-04-30T22:48:02Z</time>
      </trkpt>
      <trkpt lat="47.64384" lon="-3.44571">
        <ele>5.91</ele>
        <time>2016-04-30T22:48:33Z</time>
      </trkpt>
      <trkpt lat="47.64383" lon="-3.44572">
        <ele>5.91</ele>
        <time>2016-04-30T22:49:05Z</time>
      </trkpt>
      <trkpt lat="47.64383" lon="-3.44572">
        <ele>5.91</ele>
        <time>2016-04-30T22:49:42Z</time>
      </trkpt>
      <trkpt lat="47.64383" lon="-3.44572">
        <ele>5.91</ele>
        <time>2016-04-30T22:50:12Z</time>
      </trkpt>
      <trkpt lat="47.64384" lon="-3.44571">
        <ele>5.91</ele>
        <time>2016-04-30T22:50:43Z</time>
      </trkpt>
      <trkpt lat="47.64384" lon="-3.44572">
        <ele>5.91</ele>
        <time>2016-04-30T22:51:18Z</time>
      </trkpt>
      <trkpt lat="47.64383" lon="-3.44571">
        <ele>5.91</ele>
        <time>2016-04-30T22:51:48Z</time>
      </trkpt>
      <trkpt lat="47.64383" lon="-3.44571">
        <ele>4.94</ele>
        <time>2016-04-30T22:52:23Z</time>
      </trkpt>
      <trkpt lat="47.64383" lon="-3.44572">
        <ele>4.94</ele>
        <time>2016-04-30T22:53:11Z</time>
      </trkpt>
      <trkpt lat="47.64383" lon="-3.44571">
        <ele>4.94</ele>
        <time>2016-04-30T22:53:47Z</time>
      </trkpt>
      <trkpt lat="47.64382" lon="-3.44571">
        <ele>4.46</ele>
        <time>2016-04-30T22:54:18Z</time>
      </trkpt>
      <trkpt lat="47.64383" lon="-3.4457">
        <ele>4.46</ele>
        <time>2016-04-30T22:54:59Z</time>
      </trkpt>
      <trkpt lat="47.64383" lon="-3.44569">
        <ele>4.46</ele>
        <time>2016-04-30T22:55:35Z</time>
      </trkpt>
      <trkpt lat="47.64383" lon="-3.4457">
        <ele>3.98</ele>
        <time>2016-04-30T22:56:12Z</time>
      </trkpt>
      <trkpt lat="47.64384" lon="-3.44571">
        <ele>4.46</ele>
        <time>2016-04-30T22:56:53Z</time>
      </trkpt>
      <trkpt lat="47.64383" lon="-3.4457">
        <ele>4.94</ele>
        <time>2016-04-30T22:57:32Z</time>
      </trkpt>
      <trkpt lat="47.64383" lon="-3.44571">
        <ele>3.98</ele>
        <time>2016-04-30T22:58:15Z</time>
      </trkpt>
      <trkpt lat="47.64383" lon="-3.4457">
        <ele>3.98</ele>
        <time>2016-04-30T22:58:48Z</time>
      </trkpt>
      <trkpt lat="47.64383" lon="-3.4457">
        <ele>4.46</ele>
        <time>2016-04-30T22:59:27Z</time>
      </trkpt>
      <trkpt lat="47.64382" lon="-3.44571">
        <ele>3.02</ele>
        <time>2016-04-30T22:59:58Z</time>
      </trkpt>
      <trkpt lat="47.64382" lon="-3.4457">
        <ele>3.02</ele>
        <time>2016-04-30T23:00:33Z</time>
      </trkpt>
      <trkpt lat="47.64382" lon="-3.44571">
        <ele>3.5</ele>
        <time>2016-04-30T23:01:08Z</time>
      </trkpt>
      <trkpt lat="47.64383" lon="-3.44571">
        <ele>2.06</ele>
        <time>2016-04-30T23:01:51Z</time>
      </trkpt>
      <trkpt lat="47.64383" lon="-3.44571">
        <ele>2.54</ele>
        <time>2016-04-30T23:02:38Z</time>
      </trkpt>
      <trkpt lat="47.64383" lon="-3.44571">
        <ele>2.54</ele>
        <time>2016-04-30T23:03:12Z</time>
      </trkpt>
      <trkpt lat="47.64382" lon="-3.44571">
        <ele>3.98</ele>
        <time>2016-04-30T23:03:43Z</time>
      </trkpt>
      <trkpt lat="47.64383" lon="-3.4457">
        <ele>4.46</ele>
        <time>2016-04-30T23:04:22Z</time>
      </trkpt>
      <trkpt lat="47.64383" lon="-3.4457">
        <ele>4.94</ele>
        <time>2016-04-30T23:05:05Z</time>
      </trkpt>
      <trkpt lat="47.64383" lon="-3.44571">
        <ele>4.94</ele>
        <time>2016-04-30T23:05:50Z</time>
      </trkpt>
      <trkpt lat="47.64383" lon="-3.4457">
        <ele>3.5</ele>
        <time>2016-04-30T23:06:26Z</time>
      </trkpt>
      <trkpt lat="47.64383" lon="-3.4457">
        <ele>3.5</ele>
        <time>2016-04-30T23:07:05Z</time>
      </trkpt>
      <trkpt lat="47.64383" lon="-3.44569">
        <ele>3.02</ele>
        <time>2016-04-30T23:07:48Z</time>
      </trkpt>
      <trkpt lat="47.64383" lon="-3.44569">
        <ele>3.5</ele>
        <time>2016-04-30T23:08:26Z</time>
      </trkpt>
      <trkpt lat="47.64383" lon="-3.4457">
        <ele>3.5</ele>
        <time>2016-04-30T23:09:12Z</time>
      </trkpt>
      <trkpt lat="47.64382" lon="-3.44571">
        <ele>3.98</ele>
        <time>2016-04-30T23:09:53Z</time>
      </trkpt>
      <trkpt lat="47.64382" lon="-3.4457">
        <ele>3.5</ele>
        <time>2016-04-30T23:10:31Z</time>
      </trkpt>
      <trkpt lat="47.64383" lon="-3.4457">
        <ele>3.02</ele>
        <time>2016-04-30T23:11:09Z</time>
      </trkpt>
      <trkpt lat="47.64383" lon="-3.44571">
        <ele>3.5</ele>
        <time>2016-04-30T23:11:53Z</time>
      </trkpt>
      <trkpt lat="47.64383" lon="-3.4457">
        <ele>3.02</ele>
        <time>2016-04-30T23:12:38Z</time>
      </trkpt>
      <trkpt lat="47.64384" lon="-3.44571">
        <ele>2.54</ele>
        <time>2016-04-30T23:13:15Z</time>
      </trkpt>
      <trkpt lat="47.64384" lon="-3.44571">
        <ele>2.54</ele>
        <time>2016-04-30T23:13:58Z</time>
      </trkpt>
      <trkpt lat="47.64384" lon="-3.44571">
        <ele>2.54</ele>
        <time>2016-04-30T23:14:33Z</time>
      </trkpt>
      <trkpt lat="47.64385" lon="-3.44572">
        <ele>2.06</ele>
        <time>2016-04-30T23:15:22Z</time>
      </trkpt>
      <trkpt lat="47.64384" lon="-3.44572">
        <ele>2.54</ele>
        <time>2016-04-30T23:15:55Z</time>
      </trkpt>
      <trkpt lat="47.64384" lon="-3.44571">
        <ele>0.62</ele>
        <time>2016-04-30T23:16:39Z</time>
      </trkpt>
      <trkpt lat="47.64384" lon="-3.44571">
        <ele>1.1</ele>
        <time>2016-04-30T23:17:20Z</time>
      </trkpt>
      <trkpt lat="47.64384" lon="-3.44571">
        <ele>0.62</ele>
        <time>2016-04-30T23:17:53Z</time>
      </trkpt>
      <trkpt lat="47.64384" lon="-3.44571">
        <ele>1.1</ele>
        <time>2016-04-30T23:18:28Z</time>
      </trkpt>
      <trkpt lat="47.64384" lon="-3.44571">
        <ele>2.54</ele>
        <time>2016-04-30T23:19:01Z</time>
      </trkpt>
      <trkpt lat="47.64384" lon="-3.4457">
        <ele>1.58</ele>
        <time>2016-04-30T23:19:44Z</time>
      </trkpt>
      <trkpt lat="47.64384" lon="-3.4457">
        <ele>2.06</ele>
        <time>2016-04-30T23:20:24Z</time>
      </trkpt>
      <trkpt lat="47.64384" lon="-3.4457">
        <ele>2.54</ele>
        <time>2016-04-30T23:21:05Z</time>
      </trkpt>
      <trkpt lat="47.64385" lon="-3.44571">
        <ele>3.02</ele>
        <time>2016-04-30T23:21:35Z</time>
      </trkpt>
      <trkpt lat="47.64384" lon="-3.4457">
        <ele>3.02</ele>
        <time>2016-04-30T23:22:17Z</time>
      </trkpt>
      <trkpt lat="47.64384" lon="-3.44569">
        <ele>3.02</ele>
        <time>2016-04-30T23:22:59Z</time>
      </trkpt>
      <trkpt lat="47.64384" lon="-3.44569">
        <ele>4.46</ele>
        <time>2016-04-30T23:23:41Z</time>
      </trkpt>
      <trkpt lat="47.64384" lon="-3.44569">
        <ele>4.46</ele>
        <time>2016-04-30T23:24:09Z</time>
      </trkpt>
      <trkpt lat="47.64384" lon="-3.44569">
        <ele>4.46</ele>
        <time>2016-04-30T23:24:44Z</time>
      </trkpt>
      <trkpt lat="47.64384" lon="-3.44569">
        <ele>3.98</ele>
        <time>2016-04-30T23:25:24Z</time>
      </trkpt>
      <trkpt lat="47.64384" lon="-3.44569">
        <ele>3.5</ele>
        <time>2016-04-30T23:25:53Z</time>
      </trkpt>
      <trkpt lat="47.64384" lon="-3.44569">
        <ele>3.5</ele>
        <time>2016-04-30T23:26:25Z</time>
      </trkpt>
      <trkpt lat="47.64384" lon="-3.44569">
        <ele>3.98</ele>
        <time>2016-04-30T23:26:57Z</time>
      </trkpt>
      <trkpt lat="47.64384" lon="-3.44569">
        <ele>3.02</ele>
        <time>2016-04-30T23:27:25Z</time>
      </trkpt>
      <trkpt lat="47.64383" lon="-3.44569">
        <ele>3.5</ele>
        <time>2016-04-30T23:27:51Z</time>
      </trkpt>
      <trkpt lat="47.64384" lon="-3.44569">
        <ele>2.54</ele>
        <time>2016-04-30T23:28:19Z</time>
      </trkpt>
      <trkpt lat="47.64385" lon="-3.44569">
        <ele>3.5</ele>
        <time>2016-04-30T23:28:56Z</time>
      </trkpt>
      <trkpt lat="47.64384" lon="-3.44569">
        <ele>3.02</ele>
        <time>2016-04-30T23:29:31Z</time>
      </trkpt>
      <trkpt lat="47.64384" lon="-3.44569">
        <ele>2.54</ele>
        <time>2016-04-30T23:30:10Z</time>
      </trkpt>
      <trkpt lat="47.64384" lon="-3.44569">
        <ele>2.06</ele>
        <time>2016-04-30T23:30:43Z</time>
      </trkpt>
      <trkpt lat="47.64384" lon="-3.4457">
        <ele>2.06</ele>
        <time>2016-04-30T23:31:18Z</time>
      </trkpt>
      <trkpt lat="47.64384" lon="-3.4457">
        <ele>2.06</ele>
        <time>2016-04-30T23:31:54Z</time>
      </trkpt>
      <trkpt lat="47.64384" lon="-3.44569">
        <ele>2.54</ele>
        <time>2016-04-30T23:32:30Z</time>
      </trkpt>
      <trkpt lat="47.64384" lon="-3.4457">
        <ele>2.06</ele>
        <time>2016-04-30T23:32:58Z</time>
      </trkpt>
      <trkpt lat="47.64384" lon="-3.4457">
        <ele>1.58</ele>
        <time>2016-04-30T23:33:33Z</time>
      </trkpt>
      <trkpt lat="47.64384" lon="-3.44569">
        <ele>1.1</ele>
        <time>2016-04-30T23:34:01Z</time>
      </trkpt>
      <trkpt lat="47.64384" lon="-3.4457">
        <ele>0.62</ele>
        <time>2016-04-30T23:34:36Z</time>
      </trkpt>
      <trkpt lat="47.64384" lon="-3.44569">
        <ele>1.58</ele>
        <time>2016-04-30T23:35:11Z</time>
      </trkpt>
      <trkpt lat="47.64384" lon="-3.4457">
        <ele>1.58</ele>
        <time>2016-04-30T23:35:43Z</time>
      </trkpt>
      <trkpt lat="47.64384" lon="-3.4457">
        <ele>1.1</ele>
        <time>2016-04-30T23:36:24Z</time>
      </trkpt>
      <trkpt lat="47.64384" lon="-3.44569">
        <ele>0.62</ele>
        <time>2016-04-30T23:36:52Z</time>
      </trkpt>
      <trkpt lat="47.64383" lon="-3.44571">
        <ele>-0.34</ele>
        <time>2016-04-30T23:37:34Z</time>
      </trkpt>
      <trkpt lat="47.64383" lon="-3.44571">
        <ele>-0.82</ele>
        <time>2016-04-30T23:38:12Z</time>
      </trkpt>
      <trkpt lat="47.64383" lon="-3.4457">
        <ele>-0.34</ele>
        <time>2016-04-30T23:38:58Z</time>
      </trkpt>
      <trkpt lat="47.64384" lon="-3.44571">
        <ele>-0.82</ele>
        <time>2016-04-30T23:39:44Z</time>
      </trkpt>
      <trkpt lat="47.64383" lon="-3.44571">
        <ele>-1.3</ele>
        <time>2016-04-30T23:40:17Z</time>
      </trkpt>
      <trkpt lat="47.64383" lon="-3.44571">
        <ele>-1.3</ele>
        <time>2016-04-30T23:40:53Z</time>
      </trkpt>
      <trkpt lat="47.64382" lon="-3.44571">
        <ele>-0.82</ele>
        <time>2016-04-30T23:41:20Z</time>
      </trkpt>
      <trkpt lat="47.64383" lon="-3.44572">
        <ele>-1.79</ele>
        <time>2016-04-30T23:42:05Z</time>
      </trkpt>
      <trkpt lat="47.64382" lon="-3.44572">
        <ele>-1.3</ele>
        <time>2016-04-30T23:42:46Z</time>
      </trkpt>
      <trkpt lat="47.64382" lon="-3.44571">
        <ele>-0.82</ele>
        <time>2016-04-30T23:43:33Z</time>
      </trkpt>
      <trkpt lat="47.64382" lon="-3.44571">
        <ele>-1.3</ele>
        <time>2016-04-30T23:44:10Z</time>
      </trkpt>
      <trkpt lat="47.64382" lon="-3.44571">
        <ele>-1.3</ele>
        <time>2016-04-30T23:44:51Z</time>
      </trkpt>
      <trkpt lat="47.64382" lon="-3.4457">
        <ele>-0.82</ele>
        <time>2016-04-30T23:45:43Z</time>
      </trkpt>
      <trkpt lat="47.64382" lon="-3.44571">
        <ele>-0.34</ele>
        <time>2016-04-30T23:46:20Z</time>
      </trkpt>
      <trkpt lat="47.64382" lon="-3.44571">
        <ele>-0.82</ele>
        <time>2016-04-30T23:47:03Z</time>
      </trkpt>
      <trkpt lat="47.64381" lon="-3.44571">
        <ele>-0.82</ele>
        <time>2016-04-30T23:47:38Z</time>
      </trkpt>
      <trkpt lat="47.64382" lon="-3.44571">
        <ele>-0.82</ele>
        <time>2016-04-30T23:48:11Z</time>
      </trkpt>
      <trkpt lat="47.64382" lon="-3.44572">
        <ele>-1.3</ele>
        <time>2016-04-30T23:48:44Z</time>
      </trkpt>
      <trkpt lat="47.64382" lon="-3.44572">
        <ele>-1.3</ele>
        <time>2016-04-30T23:49:12Z</time>
      </trkpt>
      <trkpt lat="47.64382" lon="-3.44571">
        <ele>-1.3</ele>
        <time>2016-04-30T23:49:51Z</time>
      </trkpt>
      <trkpt lat="47.64382" lon="-3.44572">
        <ele>-0.82</ele>
        <time>2016-04-30T23:50:23Z</time>
      </trkpt>
      <trkpt lat="47.64381" lon="-3.44572">
        <ele>-0.82</ele>
        <time>2016-04-30T23:50:53Z</time>
      </trkpt>
      <trkpt lat="47.64381" lon="-3.44573">
        <ele>-1.3</ele>
        <time>2016-04-30T23:51:27Z</time>
      </trkpt>
      <trkpt lat="47.64381" lon="-3.44572">
        <ele>-1.3</ele>
        <time>2016-04-30T23:52:03Z</time>
      </trkpt>
      <trkpt lat="47.6438" lon="-3.44572">
        <ele>-0.82</ele>
        <time>2016-04-30T23:52:46Z</time>
      </trkpt>
      <trkpt lat="47.6438" lon="-3.44573">
        <ele>-0.34</ele>
        <time>2016-04-30T23:53:22Z</time>
      </trkpt>
      <trkpt lat="47.6438" lon="-3.44573">
        <ele>-0.34</ele>
        <time>2016-04-30T23:53:58Z</time>
      </trkpt>
      <trkpt lat="47.6438" lon="-3.44572">
        <ele>-0.82</ele>
        <time>2016-04-30T23:54:36Z</time>
      </trkpt>
      <trkpt lat="47.6438" lon="-3.44572">
        <ele>-0.34</ele>
        <time>2016-04-30T23:54:58Z</time>
      </trkpt>
      <trkpt lat="47.6438" lon="-3.44573">
        <ele>-0.34</ele>
        <time>2016-04-30T23:55:38Z</time>
      </trkpt>
      <trkpt lat="47.64381" lon="-3.44573">
        <ele>-0.34</ele>
        <time>2016-04-30T23:56:15Z</time>
      </trkpt>
      <trkpt lat="47.64381" lon="-3.44571">
        <ele>0.62</ele>
        <time>2016-04-30T23:56:43Z</time>
      </trkpt>
      <trkpt lat="47.6438" lon="-3.44571">
        <ele>0.14</ele>
        <time>2016-04-30T23:57:13Z</time>
      </trkpt>
      <trkpt lat="47.6438" lon="-3.44572">
        <ele>0.14</ele>
        <time>2016-04-30T23:57:47Z</time>
      </trkpt>
      <trkpt lat="47.6438" lon="-3.44572">
        <ele>-0.34</ele>
        <time>2016-04-30T23:58:26Z</time>
      </trkpt>
      <trkpt lat="47.6438" lon="-3.44573">
        <ele>-0.82</ele>
        <time>2016-04-30T23:58:55Z</time>
      </trkpt>
      <trkpt lat="47.6438" lon="-3.44573">
        <ele>0.14</ele>
        <time>2016-04-30T23:59:30Z</time>
      </trkpt>
      <trkpt lat="47.6438" lon="-3.44573">
        <ele>1.1</ele>
        <time>2016-05-01T00:00:11Z</time>
      </trkpt>
      <trkpt lat="47.6438" lon="-3.44574">
        <ele>0.62</ele>
        <time>2016-05-01T00:00:44Z</time>
      </trkpt>
      <trkpt lat="47.64381" lon="-3.44574">
        <ele>0.62</ele>
        <time>2016-05-01T00:01:21Z</time>
      </trkpt>
      <trkpt lat="47.64381" lon="-3.44574">
        <ele>0.62</ele>
        <time>2016-05-01T00:01:54Z</time>
      </trkpt>
      <trkpt lat="47.64382" lon="-3.44573">
        <ele>0.62</ele>
        <time>2016-05-01T00:02:25Z</time>
      </trkpt>
      <trkpt lat="47.64381" lon="-3.44574">
        <ele>0.14</ele>
        <time>2016-05-01T00:03:01Z</time>
      </trkpt>
      <trkpt lat="47.64382" lon="-3.44575">
        <ele>0.14</ele>
        <time>2016-05-01T00:03:44Z</time>
      </trkpt>
      <trkpt lat="47.64382" lon="-3.44575">
        <ele>0.14</ele>
        <time>2016-05-01T00:04:21Z</time>
      </trkpt>
      <trkpt lat="47.64382" lon="-3.44574">
        <ele>1.58</ele>
        <time>2016-05-01T00:04:51Z</time>
      </trkpt>
      <trkpt lat="47.64383" lon="-3.44575">
        <ele>0.62</ele>
        <time>2016-05-01T00:05:38Z</time>
      </trkpt>
      <trkpt lat="47.64382" lon="-3.44576">
        <ele>0.14</ele>
        <time>2016-05-01T00:06:20Z</time>
      </trkpt>
      <trkpt lat="47.64382" lon="-3.44575">
        <ele>0.62</ele>
        <time>2016-05-01T00:07:00Z</time>
      </trkpt>
      <trkpt lat="47.64382" lon="-3.44575">
        <ele>1.1</ele>
        <time>2016-05-01T00:07:33Z</time>
      </trkpt>
      <trkpt lat="47.64382" lon="-3.44575">
        <ele>2.06</ele>
        <time>2016-05-01T00:08:14Z</time>
      </trkpt>
      <trkpt lat="47.64382" lon="-3.44574">
        <ele>2.54</ele>
        <time>2016-05-01T00:08:54Z</time>
      </trkpt>
      <trkpt lat="47.64381" lon="-3.44574">
        <ele>1.1</ele>
        <time>2016-05-01T00:09:34Z</time>
      </trkpt>
      <trkpt lat="47.64382" lon="-3.44574">
        <ele>1.58</ele>
        <time>2016-05-01T00:10:12Z</time>
      </trkpt>
      <trkpt lat="47.64382" lon="-3.44574">
        <ele>2.54</ele>
        <time>2016-05-01T00:10:57Z</time>
      </trkpt>
      <trkpt lat="47.64382" lon="-3.44573">
        <ele>1.58</ele>
        <time>2016-05-01T00:11:42Z</time>
      </trkpt>
      <trkpt lat="47.64382" lon="-3.44572">
        <ele>2.06</ele>
        <time>2016-05-01T00:12:22Z</time>
      </trkpt>
      <trkpt lat="47.64382" lon="-3.44574">
        <ele>2.06</ele>
        <time>2016-05-01T00:13:01Z</time>
      </trkpt>
      <trkpt lat="47.64382" lon="-3.44574">
        <ele>2.54</ele>
        <time>2016-05-01T00:13:38Z</time>
      </trkpt>
      <trkpt lat="47.64382" lon="-3.44574">
        <ele>2.06</ele>
        <time>2016-05-01T00:14:21Z</time>
      </trkpt>
      <trkpt lat="47.64382" lon="-3.44574">
        <ele>1.58</ele>
        <time>2016-05-01T00:15:05Z</time>
      </trkpt>
      <trkpt lat="47.64382" lon="-3.44574">
        <ele>1.58</ele>
        <time>2016-05-01T00:15:41Z</time>
      </trkpt>
      <trkpt lat="47.64383" lon="-3.44574">
        <ele>2.54</ele>
        <time>2016-05-01T00:16:25Z</time>
      </trkpt>
      <trkpt lat="47.64382" lon="-3.44573">
        <ele>3.02</ele>
        <time>2016-05-01T00:17:12Z</time>
      </trkpt>
      <trkpt lat="47.64382" lon="-3.44573">
        <ele>2.54</ele>
        <time>2016-05-01T00:17:52Z</time>
      </trkpt>
      <trkpt lat="47.64382" lon="-3.44573">
        <ele>2.54</ele>
        <time>2016-05-01T00:18:32Z</time>
      </trkpt>
      <trkpt lat="47.64382" lon="-3.44573">
        <ele>2.06</ele>
        <time>2016-05-01T00:19:18Z</time>
      </trkpt>
      <trkpt lat="47.64382" lon="-3.44573">
        <ele>2.06</ele>
        <time>2016-05-01T00:20:05Z</time>
      </trkpt>
      <trkpt lat="47.64382" lon="-3.44573">
        <ele>1.58</ele>
        <time>2016-05-01T00:20:46Z</time>
      </trkpt>
      <trkpt lat="47.64382" lon="-3.44572">
        <ele>0.14</ele>
        <time>2016-05-01T00:21:26Z</time>
      </trkpt>
      <trkpt lat="47.64382" lon="-3.44572">
        <ele>1.1</ele>
        <time>2016-05-01T00:22:04Z</time>
      </trkpt>
      <trkpt lat="47.64382" lon="-3.44572">
        <ele>0.62</ele>
        <time>2016-05-01T00:22:47Z</time>
      </trkpt>
      <trkpt lat="47.64383" lon="-3.44572">
        <ele>0.14</ele>
        <time>2016-05-01T00:23:20Z</time>
      </trkpt>
      <trkpt lat="47.64382" lon="-3.44571">
        <ele>1.1</ele>
        <time>2016-05-01T00:23:52Z</time>
      </trkpt>
      <trkpt lat="47.64382" lon="-3.44572">
        <ele>0.62</ele>
        <time>2016-05-01T00:24:37Z</time>
      </trkpt>
      <trkpt lat="47.64381" lon="-3.44573">
        <ele>0.14</ele>
        <time>2016-05-01T00:25:08Z</time>
      </trkpt>
      <trkpt lat="47.64382" lon="-3.44572">
        <ele>-0.34</ele>
        <time>2016-05-01T00:25:39Z</time>
      </trkpt>
      <trkpt lat="47.64382" lon="-3.44571">
        <ele>-0.82</ele>
        <time>2016-05-01T00:26:28Z</time>
      </trkpt>
      <trkpt lat="47.64381" lon="-3.44571">
        <ele>-0.34</ele>
        <time>2016-05-01T00:27:13Z</time>
      </trkpt>
      <trkpt lat="47.64381" lon="-3.44571">
        <ele>0.14</ele>
        <time>2016-05-01T00:27:43Z</time>
      </trkpt>
      <trkpt lat="47.64382" lon="-3.44571">
        <ele>0.62</ele>
        <time>2016-05-01T00:28:22Z</time>
      </trkpt>
      <trkpt lat="47.64381" lon="-3.44571">
        <ele>1.58</ele>
        <time>2016-05-01T00:28:56Z</time>
      </trkpt>
      <trkpt lat="47.64383" lon="-3.44572">
        <ele>0.62</ele>
        <time>2016-05-01T00:29:38Z</time>
      </trkpt>
      <trkpt lat="47.64383" lon="-3.44573">
        <ele>1.1</ele>
        <time>2016-05-01T00:30:13Z</time>
      </trkpt>
      <trkpt lat="47.64382" lon="-3.44572">
        <ele>1.1</ele>
        <time>2016-05-01T00:31:01Z</time>
      </trkpt>
      <trkpt lat="47.64383" lon="-3.44573">
        <ele>1.1</ele>
        <time>2016-05-01T00:31:39Z</time>
      </trkpt>
      <trkpt lat="47.64382" lon="-3.44573">
        <ele>1.1</ele>
        <time>2016-05-01T00:32:17Z</time>
      </trkpt>
      <trkpt lat="47.64382" lon="-3.44572">
        <ele>1.1</ele>
        <time>2016-05-01T00:32:48Z</time>
      </trkpt>
      <trkpt lat="47.64382" lon="-3.44572">
        <ele>0.14</ele>
        <time>2016-05-01T00:33:26Z</time>
      </trkpt>
      <trkpt lat="47.64382" lon="-3.44571">
        <ele>0.62</ele>
        <time>2016-05-01T00:33:58Z</time>
      </trkpt>
      <trkpt lat="47.64382" lon="-3.44571">
        <ele>2.54</ele>
        <time>2016-05-01T00:34:36Z</time>
      </trkpt>
      <trkpt lat="47.64382" lon="-3.44571">
        <ele>2.54</ele>
        <time>2016-05-01T00:35:02Z</time>
      </trkpt>
      <trkpt lat="47.64382" lon="-3.44571">
        <ele>2.54</ele>
        <time>2016-05-01T00:35:45Z</time>
      </trkpt>
      <trkpt lat="47.64382" lon="-3.44571">
        <ele>2.54</ele>
        <time>2016-05-01T00:36:24Z</time>
      </trkpt>
      <trkpt lat="47.64383" lon="-3.44571">
        <ele>3.5</ele>
        <time>2016-05-01T00:37:10Z</time>
      </trkpt>
      <trkpt lat="47.64383" lon="-3.44571">
        <ele>3.02</ele>
        <time>2016-05-01T00:37:42Z</time>
      </trkpt>
      <trkpt lat="47.64383" lon="-3.44571">
        <ele>3.5</ele>
        <time>2016-05-01T00:38:16Z</time>
      </trkpt>
      <trkpt lat="47.64382" lon="-3.44571">
        <ele>3.5</ele>
        <time>2016-05-01T00:39:04Z</time>
      </trkpt>
      <trkpt lat="47.64381" lon="-3.44572">
        <ele>2.06</ele>
        <time>2016-05-01T00:39:47Z</time>
      </trkpt>
      <trkpt lat="47.64381" lon="-3.44571">
        <ele>0.62</ele>
        <time>2016-05-01T00:40:28Z</time>
      </trkpt>
      <trkpt lat="47.64383" lon="-3.44571">
        <ele>1.1</ele>
        <time>2016-05-01T00:41:02Z</time>
      </trkpt>
      <trkpt lat="47.64383" lon="-3.44572">
        <ele>1.58</ele>
        <time>2016-05-01T00:41:38Z</time>
      </trkpt>
      <trkpt lat="47.64383" lon="-3.44572">
        <ele>1.58</ele>
        <time>2016-05-01T00:42:11Z</time>
      </trkpt>
      <trkpt lat="47.64384" lon="-3.44572">
        <ele>2.06</ele>
        <time>2016-05-01T00:42:56Z</time>
      </trkpt>
      <trkpt lat="47.64384" lon="-3.44571">
        <ele>2.06</ele>
        <time>2016-05-01T00:43:36Z</time>
      </trkpt>
      <trkpt lat="47.64384" lon="-3.4457">
        <ele>2.54</ele>
        <time>2016-05-01T00:44:13Z</time>
      </trkpt>
      <trkpt lat="47.64384" lon="-3.4457">
        <ele>2.06</ele>
        <time>2016-05-01T00:44:45Z</time>
      </trkpt>
      <trkpt lat="47.64383" lon="-3.4457">
        <ele>2.06</ele>
        <time>2016-05-01T00:45:23Z</time>
      </trkpt>
      <trkpt lat="47.64382" lon="-3.4457">
        <ele>2.54</ele>
        <time>2016-05-01T00:46:00Z</time>
      </trkpt>
      <trkpt lat="47.64382" lon="-3.4457">
        <ele>2.06</ele>
        <time>2016-05-01T00:46:42Z</time>
      </trkpt>
      <trkpt lat="47.64382" lon="-3.44569">
        <ele>1.58</ele>
        <time>2016-05-01T00:47:14Z</time>
      </trkpt>
      <trkpt lat="47.64383" lon="-3.44569">
        <ele>1.1</ele>
        <time>2016-05-01T00:47:48Z</time>
      </trkpt>
      <trkpt lat="47.64382" lon="-3.4457">
        <ele>1.1</ele>
        <time>2016-05-01T00:48:21Z</time>
      </trkpt>
      <trkpt lat="47.64383" lon="-3.44571">
        <ele>0.14</ele>
        <time>2016-05-01T00:48:56Z</time>
      </trkpt>
      <trkpt lat="47.64383" lon="-3.4457">
        <ele>-0.82</ele>
        <time>2016-05-01T00:49:32Z</time>
      </trkpt>
      <trkpt lat="47.64383" lon="-3.4457">
        <ele>-0.82</ele>
        <time>2016-05-01T00:50:14Z</time>
      </trkpt>
      <trkpt lat="47.64383" lon="-3.44569">
        <ele>-0.82</ele>
        <time>2016-05-01T00:50:55Z</time>
      </trkpt>
      <trkpt lat="47.64382" lon="-3.4457">
        <ele>-1.3</ele>
        <time>2016-05-01T00:51:28Z</time>
      </trkpt>
      <trkpt lat="47.64383" lon="-3.44571">
        <ele>-0.82</ele>
        <time>2016-05-01T00:52:02Z</time>
      </trkpt>
      <trkpt lat="47.64384" lon="-3.44571">
        <ele>1.1</ele>
        <time>2016-05-01T00:52:35Z</time>
      </trkpt>
      <trkpt lat="47.64383" lon="-3.44571">
        <ele>1.58</ele>
        <time>2016-05-01T00:53:16Z</time>
      </trkpt>
      <trkpt lat="47.64382" lon="-3.4457">
        <ele>2.06</ele>
        <time>2016-05-01T00:53:44Z</time>
      </trkpt>
      <trkpt lat="47.64383" lon="-3.44569">
        <ele>1.1</ele>
        <time>2016-05-01T00:54:18Z</time>
      </trkpt>
      <trkpt lat="47.64383" lon="-3.4457">
        <ele>1.1</ele>
        <time>2016-05-01T00:54:57Z</time>
      </trkpt>
      <trkpt lat="47.64382" lon="-3.44571">
        <ele>0.62</ele>
        <time>2016-05-01T00:55:23Z</time>
      </trkpt>
      <trkpt lat="47.64382" lon="-3.44571">
        <ele>1.1</ele>
        <time>2016-05-01T00:56:06Z</time>
      </trkpt>
      <trkpt lat="47.64384" lon="-3.44571">
        <ele>1.58</ele>
        <time>2016-05-01T00:56:58Z</time>
      </trkpt>
      <trkpt lat="47.64384" lon="-3.44571">
        <ele>1.1</ele>
        <time>2016-05-01T00:57:24Z</time>
      </trkpt>
      <trkpt lat="47.64383" lon="-3.4457">
        <ele>0.62</ele>
        <time>2016-05-01T00:58:00Z</time>
      </trkpt>
      <trkpt lat="47.64383" lon="-3.4457">
        <ele>0.14</ele>
        <time>2016-05-01T00:58:44Z</time>
      </trkpt>
      <trkpt lat="47.64383" lon="-3.4457">
        <ele>0.62</ele>
        <time>2016-05-01T00:59:20Z</time>
      </trkpt>
      <trkpt lat="47.64382" lon="-3.44569">
        <ele>-0.34</ele>
        <time>2016-05-01T00:59:54Z</time>
      </trkpt>
      <trkpt lat="47.64383" lon="-3.4457">
        <ele>1.1</ele>
        <time>2016-05-01T01:00:44Z</time>
      </trkpt>
      <trkpt lat="47.64383" lon="-3.44571">
        <ele>0.14</ele>
        <time>2016-05-01T01:01:24Z</time>
      </trkpt>
      <trkpt lat="47.64384" lon="-3.4457">
        <ele>0.62</ele>
        <time>2016-05-01T01:02:11Z</time>
      </trkpt>
      <trkpt lat="47.64384" lon="-3.4457">
        <ele>0.14</ele>
        <time>2016-05-01T01:02:56Z</time>
      </trkpt>
      <trkpt lat="47.64384" lon="-3.44571">
        <ele>-0.82</ele>
        <time>2016-05-01T01:03:40Z</time>
      </trkpt>
      <trkpt lat="47.64385" lon="-3.44571">
        <ele>-0.34</ele>
        <time>2016-05-01T01:04:21Z</time>
      </trkpt>
      <trkpt lat="47.64384" lon="-3.44571">
        <ele>-0.34</ele>
        <time>2016-05-01T01:05:07Z</time>
      </trkpt>
      <trkpt lat="47.64384" lon="-3.4457">
        <ele>-0.34</ele>
        <time>2016-05-01T01:05:56Z</time>
      </trkpt>
      <trkpt lat="47.64383" lon="-3.4457">
        <ele>0.14</ele>
        <time>2016-05-01T01:06:49Z</time>
      </trkpt>
      <trkpt lat="47.64383" lon="-3.44569">
        <ele>0.62</ele>
        <time>2016-05-01T01:07:34Z</time>
      </trkpt>
      <trkpt lat="47.64384" lon="-3.44569">
        <ele>1.58</ele>
        <time>2016-05-01T01:08:22Z</time>
      </trkpt>
      <trkpt lat="47.64384" lon="-3.44568">
        <ele>0.62</ele>
        <time>2016-05-01T01:09:09Z</time>
      </trkpt>
      <trkpt lat="47.64384" lon="-3.4457">
        <ele>0.62</ele>
        <time>2016-05-01T01:10:10Z</time>
      </trkpt>
      <trkpt lat="47.64382" lon="-3.4457">
        <ele>0.14</ele>
        <time>2016-05-01T01:10:50Z</time>
      </trkpt>
      <trkpt lat="47.64383" lon="-3.4457">
        <ele>0.14</ele>
        <time>2016-05-01T01:11:42Z</time>
      </trkpt>
      <trkpt lat="47.64383" lon="-3.4457">
        <ele>-0.34</ele>
        <time>2016-05-01T01:12:25Z</time>
      </trkpt>
      <trkpt lat="47.64385" lon="-3.44569">
        <ele>0.14</ele>
        <time>2016-05-01T01:13:21Z</time>
      </trkpt>
      <trkpt lat="47.64385" lon="-3.44569">
        <ele>0.62</ele>
        <time>2016-05-01T01:14:07Z</time>
      </trkpt>
      <trkpt lat="47.64385" lon="-3.44567">
        <ele>1.1</ele>
        <time>2016-05-01T01:15:01Z</time>
      </trkpt>
      <trkpt lat="47.64386" lon="-3.44567">
        <ele>0.62</ele>
        <time>2016-05-01T01:15:54Z</time>
      </trkpt>
      <trkpt lat="47.64384" lon="-3.44568">
        <ele>0.14</ele>
        <time>2016-05-01T01:16:41Z</time>
      </trkpt>
      <trkpt lat="47.64383" lon="-3.44569">
        <ele>1.1</ele>
        <time>2016-05-01T01:17:26Z</time>
      </trkpt>
      <trkpt lat="47.64382" lon="-3.4457">
        <ele>0.62</ele>
        <time>2016-05-01T01:18:13Z</time>
      </trkpt>
      <trkpt lat="47.64382" lon="-3.4457">
        <ele>0.14</ele>
        <time>2016-05-01T01:18:55Z</time>
      </trkpt>
      <trkpt lat="47.64382" lon="-3.44569">
        <ele>0.62</ele>
        <time>2016-05-01T01:19:42Z</time>
      </trkpt>
      <trkpt lat="47.64382" lon="-3.4457">
        <ele>-0.34</ele>
        <time>2016-05-01T01:20:27Z</time>
      </trkpt>
      <trkpt lat="47.64384" lon="-3.4457">
        <ele>-0.34</ele>
        <time>2016-05-01T01:21:12Z</time>
      </trkpt>
      <trkpt lat="47.64384" lon="-3.4457">
        <ele>-0.82</ele>
        <time>2016-05-01T01:22:01Z</time>
      </trkpt>
      <trkpt lat="47.64383" lon="-3.4457">
        <ele>-0.34</ele>
        <time>2016-05-01T01:22:45Z</time>
      </trkpt>
      <trkpt lat="47.64384" lon="-3.4457">
        <ele>-0.82</ele>
        <time>2016-05-01T01:23:22Z</time>
      </trkpt>
      <trkpt lat="47.64384" lon="-3.4457">
        <ele>-1.3</ele>
        <time>2016-05-01T01:24:07Z</time>
      </trkpt>
      <trkpt lat="47.64383" lon="-3.4457">
        <ele>-0.34</ele>
        <time>2016-05-01T01:24:49Z</time>
      </trkpt>
      <trkpt lat="47.64383" lon="-3.44568">
        <ele>0.62</ele>
        <time>2016-05-01T01:25:33Z</time>
      </trkpt>
      <trkpt lat="47.64383" lon="-3.44568">
        <ele>1.58</ele>
        <time>2016-05-01T01:26:25Z</time>
      </trkpt>
      <trkpt lat="47.64383" lon="-3.44569">
        <ele>1.1</ele>
        <time>2016-05-01T01:27:05Z</time>
      </trkpt>
      <trkpt lat="47.64383" lon="-3.44569">
        <ele>0.14</ele>
        <time>2016-05-01T01:27:49Z</time>
      </trkpt>
      <trkpt lat="47.64383" lon="-3.44569">
        <ele>-0.82</ele>
        <time>2016-05-01T01:28:29Z</time>
      </trkpt>
      <trkpt lat="47.64383" lon="-3.44568">
        <ele>-1.79</ele>
        <time>2016-05-01T01:29:15Z</time>
      </trkpt>
      <trkpt lat="47.64383" lon="-3.44569">
        <ele>-2.27</ele>
        <time>2016-05-01T01:29:48Z</time>
      </trkpt>
      <trkpt lat="47.64383" lon="-3.44568">
        <ele>-1.79</ele>
        <time>2016-05-01T01:30:32Z</time>
      </trkpt>
      <trkpt lat="47.64382" lon="-3.44568">
        <ele>-2.27</ele>
        <time>2016-05-01T01:31:10Z</time>
      </trkpt>
      <trkpt lat="47.64382" lon="-3.44569">
        <ele>-2.27</ele>
        <time>2016-05-01T01:31:57Z</time>
      </trkpt>
      <trkpt lat="47.64383" lon="-3.4457">
        <ele>-2.27</ele>
        <time>2016-05-01T01:32:28Z</time>
      </trkpt>
      <trkpt lat="47.64383" lon="-3.44571">
        <ele>-2.75</ele>
        <time>2016-05-01T01:33:07Z</time>
      </trkpt>
      <trkpt lat="47.64383" lon="-3.44569">
        <ele>-2.27</ele>
        <time>2016-05-01T01:33:52Z</time>
      </trkpt>
      <trkpt lat="47.64383" lon="-3.4457">
        <ele>-1.3</ele>
        <time>2016-05-01T01:34:33Z</time>
      </trkpt>
      <trkpt lat="47.64382" lon="-3.4457">
        <ele>-1.79</ele>
        <time>2016-05-01T01:35:14Z</time>
      </trkpt>
      <trkpt lat="47.64383" lon="-3.44569">
        <ele>-1.79</ele>
        <time>2016-05-01T01:35:58Z</time>
      </trkpt>
      <trkpt lat="47.64384" lon="-3.44568">
        <ele>-1.3</ele>
        <time>2016-05-01T01:36:41Z</time>
      </trkpt>
      <trkpt lat="47.64384" lon="-3.44569">
        <ele>-1.79</ele>
        <time>2016-05-01T01:37:22Z</time>
      </trkpt>
      <trkpt lat="47.64383" lon="-3.4457">
        <ele>-1.3</ele>
        <time>2016-05-01T01:38:03Z</time>
      </trkpt>
      <trkpt lat="47.64382" lon="-3.4457">
        <ele>-1.3</ele>
        <time>2016-05-01T01:38:43Z</time>
      </trkpt>
      <trkpt lat="47.64382" lon="-3.4457">
        <ele>-1.3</ele>
        <time>2016-05-01T01:39:19Z</time>
      </trkpt>
      <trkpt lat="47.64382" lon="-3.4457">
        <ele>-1.79</ele>
        <time>2016-05-01T01:40:06Z</time>
      </trkpt>
      <trkpt lat="47.64382" lon="-3.44569">
        <ele>-2.75</ele>
        <time>2016-05-01T01:40:44Z</time>
      </trkpt>
      <trkpt lat="47.64382" lon="-3.44569">
        <ele>-3.23</ele>
        <time>2016-05-01T01:41:21Z</time>
      </trkpt>
      <trkpt lat="47.64382" lon="-3.4457">
        <ele>-3.23</ele>
        <time>2016-05-01T01:41:51Z</time>
      </trkpt>
      <trkpt lat="47.64382" lon="-3.4457">
        <ele>-2.75</ele>
        <time>2016-05-01T01:42:34Z</time>
      </trkpt>
      <trkpt lat="47.64383" lon="-3.4457">
        <ele>-2.75</ele>
        <time>2016-05-01T01:43:17Z</time>
      </trkpt>
      <trkpt lat="47.64382" lon="-3.44569">
        <ele>-3.23</ele>
        <time>2016-05-01T01:43:49Z</time>
      </trkpt>
      <trkpt lat="47.64383" lon="-3.4457">
        <ele>-3.23</ele>
        <time>2016-05-01T01:44:29Z</time>
      </trkpt>
      <trkpt lat="47.64382" lon="-3.4457">
        <ele>-3.23</ele>
        <time>2016-05-01T01:45:01Z</time>
      </trkpt>
      <trkpt lat="47.64382" lon="-3.44571">
        <ele>-2.75</ele>
        <time>2016-05-01T01:45:45Z</time>
      </trkpt>
      <trkpt lat="47.64382" lon="-3.44571">
        <ele>-2.75</ele>
        <time>2016-05-01T01:46:18Z</time>
      </trkpt>
      <trkpt lat="47.64382" lon="-3.4457">
        <ele>-2.27</ele>
        <time>2016-05-01T01:46:57Z</time>
      </trkpt>
      <trkpt lat="47.64382" lon="-3.4457">
        <ele>-3.23</ele>
        <time>2016-05-01T01:47:29Z</time>
      </trkpt>
      <trkpt lat="47.64383" lon="-3.44569">
        <ele>-1.79</ele>
        <time>2016-05-01T01:48:11Z</time>
      </trkpt>
      <trkpt lat="47.64382" lon="-3.44569">
        <ele>0.14</ele>
        <time>2016-05-01T01:48:49Z</time>
      </trkpt>
      <trkpt lat="47.64383" lon="-3.44569">
        <ele>-0.82</ele>
        <time>2016-05-01T01:49:25Z</time>
      </trkpt>
      <trkpt lat="47.64383" lon="-3.44568">
        <ele>-1.3</ele>
        <time>2016-05-01T01:50:08Z</time>
      </trkpt>
      <trkpt lat="47.64383" lon="-3.44566">
        <ele>-1.3</ele>
        <time>2016-05-01T01:50:46Z</time>
      </trkpt>
      <trkpt lat="47.64382" lon="-3.44567">
        <ele>-2.27</ele>
        <time>2016-05-01T01:51:24Z</time>
      </trkpt>
      <trkpt lat="47.64382" lon="-3.44568">
        <ele>-1.79</ele>
        <time>2016-05-01T01:52:14Z</time>
      </trkpt>
      <trkpt lat="47.64383" lon="-3.4457">
        <ele>-1.79</ele>
        <time>2016-05-01T01:53:00Z</time>
      </trkpt>
      <trkpt lat="47.64383" lon="-3.44571">
        <ele>-0.82</ele>
        <time>2016-05-01T01:53:33Z</time>
      </trkpt>
      <trkpt lat="47.64383" lon="-3.4457">
        <ele>-0.82</ele>
        <time>2016-05-01T01:54:13Z</time>
      </trkpt>
      <trkpt lat="47.64382" lon="-3.44571">
        <ele>-1.79</ele>
        <time>2016-05-01T01:54:57Z</time>
      </trkpt>
      <trkpt lat="47.64383" lon="-3.44571">
        <ele>-1.79</ele>
        <time>2016-05-01T01:55:30Z</time>
      </trkpt>
      <trkpt lat="47.64382" lon="-3.4457">
        <ele>-1.79</ele>
        <time>2016-05-01T01:56:13Z</time>
      </trkpt>
      <trkpt lat="47.64383" lon="-3.4457">
        <ele>-2.75</ele>
        <time>2016-05-01T01:56:55Z</time>
      </trkpt>
      <trkpt lat="47.64383" lon="-3.44571">
        <ele>-2.27</ele>
        <time>2016-05-01T01:57:32Z</time>
      </trkpt>
      <trkpt lat="47.64382" lon="-3.4457">
        <ele>-2.27</ele>
        <time>2016-05-01T01:58:15Z</time>
      </trkpt>
      <trkpt lat="47.64381" lon="-3.4457">
        <ele>-1.79</ele>
        <time>2016-05-01T01:58:54Z</time>
      </trkpt>
      <trkpt lat="47.64382" lon="-3.4457">
        <ele>-2.75</ele>
        <time>2016-05-01T01:59:26Z</time>
      </trkpt>
      <trkpt lat="47.64381" lon="-3.4457">
        <ele>-1.79</ele>
        <time>2016-05-01T02:00:03Z</time>
      </trkpt>
      <trkpt lat="47.64382" lon="-3.4457">
        <ele>-2.75</ele>
        <time>2016-05-01T02:00:37Z</time>
      </trkpt>
      <trkpt lat="47.64383" lon="-3.4457">
        <ele>-3.23</ele>
        <time>2016-05-01T02:01:08Z</time>
      </trkpt>
      <trkpt lat="47.64382" lon="-3.4457">
        <ele>-3.23</ele>
        <time>2016-05-01T02:01:47Z</time>
      </trkpt>
      <trkpt lat="47.64383" lon="-3.4457">
        <ele>-2.75</ele>
        <time>2016-05-01T02:02:33Z</time>
      </trkpt>
      <trkpt lat="47.64383" lon="-3.44571">
        <ele>-2.27</ele>
        <time>2016-05-01T02:03:10Z</time>
      </trkpt>
      <trkpt lat="47.64384" lon="-3.44571">
        <ele>-2.75</ele>
        <time>2016-05-01T02:03:57Z</time>
      </trkpt>
      <trkpt lat="47.64384" lon="-3.44571">
        <ele>-2.27</ele>
        <time>2016-05-01T02:04:45Z</time>
      </trkpt>
      <trkpt lat="47.64383" lon="-3.4457">
        <ele>-1.3</ele>
        <time>2016-05-01T02:05:31Z</time>
      </trkpt>
      <trkpt lat="47.64384" lon="-3.44571">
        <ele>-2.75</ele>
        <time>2016-05-01T02:06:06Z</time>
      </trkpt>
      <trkpt lat="47.64384" lon="-3.4457">
        <ele>-3.23</ele>
        <time>2016-05-01T02:06:48Z</time>
      </trkpt>
      <trkpt lat="47.64383" lon="-3.4457">
        <ele>-3.71</ele>
        <time>2016-05-01T02:07:33Z</time>
      </trkpt>
      <trkpt lat="47.64384" lon="-3.44569">
        <ele>-3.23</ele>
        <time>2016-05-01T02:08:06Z</time>
      </trkpt>
      <trkpt lat="47.64383" lon="-3.4457">
        <ele>-2.27</ele>
        <time>2016-05-01T02:08:47Z</time>
      </trkpt>
      <trkpt lat="47.64383" lon="-3.4457">
        <ele>-2.75</ele>
        <time>2016-05-01T02:09:22Z</time>
      </trkpt>
      <trkpt lat="47.64383" lon="-3.44569">
        <ele>-2.75</ele>
        <time>2016-05-01T02:09:56Z</time>
      </trkpt>
      <trkpt lat="47.64382" lon="-3.44569">
        <ele>-4.19</ele>
        <time>2016-05-01T02:10:31Z</time>
      </trkpt>
      <trkpt lat="47.64382" lon="-3.44568">
        <ele>-4.67</ele>
        <time>2016-05-01T02:11:05Z</time>
      </trkpt>
      <trkpt lat="47.64382" lon="-3.44569">
        <ele>-6.11</ele>
        <time>2016-05-01T02:11:49Z</time>
      </trkpt>
      <trkpt lat="47.64382" lon="-3.44571">
        <ele>-5.63</ele>
        <time>2016-05-01T02:12:23Z</time>
      </trkpt>
      <trkpt lat="47.64382" lon="-3.4457">
        <ele>-5.15</ele>
        <time>2016-05-01T02:12:57Z</time>
      </trkpt>
      <trkpt lat="47.64382" lon="-3.4457">
        <ele>-5.15</ele>
        <time>2016-05-01T02:13:24Z</time>
      </trkpt>
      <trkpt lat="47.64382" lon="-3.4457">
        <ele>-5.15</ele>
        <time>2016-05-01T02:13:55Z</time>
      </trkpt>
      <trkpt lat="47.64382" lon="-3.4457">
        <ele>-5.63</ele>
        <time>2016-05-01T02:14:28Z</time>
      </trkpt>
      <trkpt lat="47.64382" lon="-3.44571">
        <ele>-6.11</ele>
        <time>2016-05-01T02:14:58Z</time>
      </trkpt>
      <trkpt lat="47.64383" lon="-3.44571">
        <ele>-5.63</ele>
        <time>2016-05-01T02:15:32Z</time>
      </trkpt>
      <trkpt lat="47.64383" lon="-3.44571">
        <ele>-5.15</ele>
        <time>2016-05-01T02:16:06Z</time>
      </trkpt>
      <trkpt lat="47.64383" lon="-3.4457">
        <ele>-3.71</ele>
        <time>2016-05-01T02:16:38Z</time>
      </trkpt>
      <trkpt lat="47.64383" lon="-3.4457">
        <ele>-2.75</ele>
        <time>2016-05-01T02:17:13Z</time>
      </trkpt>
      <trkpt lat="47.64384" lon="-3.4457">
        <ele>-2.27</ele>
        <time>2016-05-01T02:17:52Z</time>
      </trkpt>
      <trkpt lat="47.64385" lon="-3.44569">
        <ele>-1.3</ele>
        <time>2016-05-01T02:18:27Z</time>
      </trkpt>
      <trkpt lat="47.64384" lon="-3.4457">
        <ele>-2.27</ele>
        <time>2016-05-01T02:19:02Z</time>
      </trkpt>
      <trkpt lat="47.64384" lon="-3.4457">
        <ele>-1.3</ele>
        <time>2016-05-01T02:19:43Z</time>
      </trkpt>
      <trkpt lat="47.64385" lon="-3.44569">
        <ele>-1.79</ele>
        <time>2016-05-01T02:20:16Z</time>
      </trkpt>
      <trkpt lat="47.64385" lon="-3.44569">
        <ele>-1.79</ele>
        <time>2016-05-01T02:20:56Z</time>
      </trkpt>
      <trkpt lat="47.64385" lon="-3.44569">
        <ele>-1.3</ele>
        <time>2016-05-01T02:21:36Z</time>
      </trkpt>
      <trkpt lat="47.64385" lon="-3.44569">
        <ele>-1.79</ele>
        <time>2016-05-01T02:22:16Z</time>
      </trkpt>
      <trkpt lat="47.64384" lon="-3.4457">
        <ele>-1.79</ele>
        <time>2016-05-01T02:22:53Z</time>
      </trkpt>
      <trkpt lat="47.64384" lon="-3.4457">
        <ele>-1.3</ele>
        <time>2016-05-01T02:23:26Z</time>
      </trkpt>
      <trkpt lat="47.64385" lon="-3.4457">
        <ele>-2.75</ele>
        <time>2016-05-01T02:24:12Z</time>
      </trkpt>
      <trkpt lat="47.64385" lon="-3.4457">
        <ele>-1.3</ele>
        <time>2016-05-01T02:24:57Z</time>
      </trkpt>
      <trkpt lat="47.64385" lon="-3.4457">
        <ele>-1.3</ele>
        <time>2016-05-01T02:25:39Z</time>
      </trkpt>
      <trkpt lat="47.64385" lon="-3.4457">
        <ele>-1.3</ele>
        <time>2016-05-01T02:26:16Z</time>
      </trkpt>
      <trkpt lat="47.64385" lon="-3.44569">
        <ele>-0.82</ele>
        <time>2016-05-01T02:26:56Z</time>
      </trkpt>
      <trkpt lat="47.64385" lon="-3.44569">
        <ele>-1.3</ele>
        <time>2016-05-01T02:27:36Z</time>
      </trkpt>
      <trkpt lat="47.64384" lon="-3.44569">
        <ele>-0.34</ele>
        <time>2016-05-01T02:28:18Z</time>
      </trkpt>
      <trkpt lat="47.64385" lon="-3.4457">
        <ele>-0.82</ele>
        <time>2016-05-01T02:28:52Z</time>
      </trkpt>
      <trkpt lat="47.64384" lon="-3.4457">
        <ele>-1.3</ele>
        <time>2016-05-01T02:29:31Z</time>
      </trkpt>
      <trkpt lat="47.64384" lon="-3.4457">
        <ele>-0.82</ele>
        <time>2016-05-01T02:30:10Z</time>
      </trkpt>
      <trkpt lat="47.64384" lon="-3.4457">
        <ele>-0.82</ele>
        <time>2016-05-01T02:30:53Z</time>
      </trkpt>
      <trkpt lat="47.64385" lon="-3.4457">
        <ele>-0.82</ele>
        <time>2016-05-01T02:31:30Z</time>
      </trkpt>
      <trkpt lat="47.64384" lon="-3.44569">
        <ele>-0.34</ele>
        <time>2016-05-01T02:32:25Z</time>
      </trkpt>
      <trkpt lat="47.64384" lon="-3.44568">
        <ele>0.14</ele>
        <time>2016-05-01T02:33:04Z</time>
      </trkpt>
      <trkpt lat="47.64384" lon="-3.4457">
        <ele>1.1</ele>
        <time>2016-05-01T02:33:35Z</time>
      </trkpt>
      <trkpt lat="47.64384" lon="-3.4457">
        <ele>0.62</ele>
        <time>2016-05-01T02:34:11Z</time>
      </trkpt>
      <trkpt lat="47.64385" lon="-3.44569">
        <ele>0.62</ele>
        <time>2016-05-01T02:34:50Z</time>
      </trkpt>
      <trkpt lat="47.64384" lon="-3.44569">
        <ele>0.62</ele>
        <time>2016-05-01T02:35:28Z</time>
      </trkpt>
      <trkpt lat="47.64384" lon="-3.44569">
        <ele>0.14</ele>
        <time>2016-05-01T02:35:58Z</time>
      </trkpt>
      <trkpt lat="47.64384" lon="-3.4457">
        <ele>-0.34</ele>
        <time>2016-05-01T02:36:26Z</time>
      </trkpt>
      <trkpt lat="47.64384" lon="-3.4457">
        <ele>-0.82</ele>
        <time>2016-05-01T02:36:45Z</time>
      </trkpt>
      <trkpt lat="47.64383" lon="-3.4457">
        <ele>-0.34</ele>
        <time>2016-05-01T02:37:23Z</time>
      </trkpt>
      <trkpt lat="47.64383" lon="-3.44571">
        <ele>1.1</ele>
        <time>2016-05-01T02:38:00Z</time>
      </trkpt>
      <trkpt lat="47.64384" lon="-3.4457">
        <ele>1.58</ele>
        <time>2016-05-01T02:38:44Z</time>
      </trkpt>
      <trkpt lat="47.64384" lon="-3.44571">
        <ele>2.54</ele>
        <time>2016-05-01T02:39:26Z</time>
      </trkpt>
      <trkpt lat="47.64385" lon="-3.4457">
        <ele>2.06</ele>
        <time>2016-05-01T02:40:01Z</time>
      </trkpt>
      <trkpt lat="47.64385" lon="-3.4457">
        <ele>2.06</ele>
        <time>2016-05-01T02:40:36Z</time>
      </trkpt>
      <trkpt lat="47.64384" lon="-3.4457">
        <ele>1.58</ele>
        <time>2016-05-01T02:41:22Z</time>
      </trkpt>
      <trkpt lat="47.64385" lon="-3.44571">
        <ele>1.58</ele>
        <time>2016-05-01T02:42:03Z</time>
      </trkpt>
      <trkpt lat="47.64385" lon="-3.4457">
        <ele>1.58</ele>
        <time>2016-05-01T02:42:43Z</time>
      </trkpt>
      <trkpt lat="47.64386" lon="-3.44571">
        <ele>2.06</ele>
        <time>2016-05-01T02:43:19Z</time>
      </trkpt>
      <trkpt lat="47.64386" lon="-3.4457">
        <ele>2.54</ele>
        <time>2016-05-01T02:44:00Z</time>
      </trkpt>
      <trkpt lat="47.64386" lon="-3.44569">
        <ele>1.58</ele>
        <time>2016-05-01T02:44:34Z</time>
      </trkpt>
      <trkpt lat="47.64387" lon="-3.4457">
        <ele>3.02</ele>
        <time>2016-05-01T02:45:06Z</time>
      </trkpt>
      <trkpt lat="47.64387" lon="-3.4457">
        <ele>3.98</ele>
        <time>2016-05-01T02:45:49Z</time>
      </trkpt>
      <trkpt lat="47.64386" lon="-3.44569">
        <ele>3.98</ele>
        <time>2016-05-01T02:46:38Z</time>
      </trkpt>
      <trkpt lat="47.64388" lon="-3.4457">
        <ele>5.91</ele>
        <time>2016-05-01T02:47:21Z</time>
      </trkpt>
      <trkpt lat="47.64387" lon="-3.44569">
        <ele>5.42</ele>
        <time>2016-05-01T02:47:51Z</time>
      </trkpt>
      <trkpt lat="47.64386" lon="-3.4457">
        <ele>3.98</ele>
        <time>2016-05-01T02:48:32Z</time>
      </trkpt>
      <trkpt lat="47.64385" lon="-3.44569">
        <ele>3.02</ele>
        <time>2016-05-01T02:49:11Z</time>
      </trkpt>
      <trkpt lat="47.64385" lon="-3.44569">
        <ele>2.06</ele>
        <time>2016-05-01T02:49:57Z</time>
      </trkpt>
      <trkpt lat="47.64384" lon="-3.4457">
        <ele>2.06</ele>
        <time>2016-05-01T02:50:43Z</time>
      </trkpt>
      <trkpt lat="47.64384" lon="-3.4457">
        <ele>1.1</ele>
        <time>2016-05-01T02:51:26Z</time>
      </trkpt>
      <trkpt lat="47.64385" lon="-3.44571">
        <ele>1.58</ele>
        <time>2016-05-01T02:52:06Z</time>
      </trkpt>
      <trkpt lat="47.64385" lon="-3.44571">
        <ele>1.58</ele>
        <time>2016-05-01T02:52:47Z</time>
      </trkpt>
      <trkpt lat="47.64385" lon="-3.4457">
        <ele>0.62</ele>
        <time>2016-05-01T02:53:24Z</time>
      </trkpt>
      <trkpt lat="47.64384" lon="-3.4457">
        <ele>0.62</ele>
        <time>2016-05-01T02:53:57Z</time>
      </trkpt>
      <trkpt lat="47.64385" lon="-3.44571">
        <ele>1.1</ele>
        <time>2016-05-01T02:54:36Z</time>
      </trkpt>
      <trkpt lat="47.64386" lon="-3.44571">
        <ele>1.1</ele>
        <time>2016-05-01T02:55:18Z</time>
      </trkpt>
      <trkpt lat="47.64386" lon="-3.44571">
        <ele>1.58</ele>
        <time>2016-05-01T02:55:55Z</time>
      </trkpt>
      <trkpt lat="47.64386" lon="-3.44571">
        <ele>1.58</ele>
        <time>2016-05-01T02:56:26Z</time>
      </trkpt>
      <trkpt lat="47.64385" lon="-3.44571">
        <ele>1.58</ele>
        <time>2016-05-01T02:57:10Z</time>
      </trkpt>
      <trkpt lat="47.64385" lon="-3.44572">
        <ele>1.1</ele>
        <time>2016-05-01T02:57:45Z</time>
      </trkpt>
      <trkpt lat="47.64384" lon="-3.44571">
        <ele>0.62</ele>
        <time>2016-05-01T02:58:23Z</time>
      </trkpt>
      <trkpt lat="47.64384" lon="-3.4457">
        <ele>0.14</ele>
        <time>2016-05-01T02:58:57Z</time>
      </trkpt>
      <trkpt lat="47.64384" lon="-3.4457">
        <ele>-0.34</ele>
        <time>2016-05-01T02:59:40Z</time>
      </trkpt>
      <trkpt lat="47.64384" lon="-3.44571">
        <ele>-0.82</ele>
        <time>2016-05-01T03:00:22Z</time>
      </trkpt>
      <trkpt lat="47.64385" lon="-3.4457">
        <ele>-1.79</ele>
        <time>2016-05-01T03:01:03Z</time>
      </trkpt>
      <trkpt lat="47.64384" lon="-3.44571">
        <ele>-1.3</ele>
        <time>2016-05-01T03:01:43Z</time>
      </trkpt>
      <trkpt lat="47.64385" lon="-3.44573">
        <ele>-1.3</ele>
        <time>2016-05-01T03:02:25Z</time>
      </trkpt>
      <trkpt lat="47.64385" lon="-3.44573">
        <ele>-0.34</ele>
        <time>2016-05-01T03:03:00Z</time>
      </trkpt>
      <trkpt lat="47.64384" lon="-3.44572">
        <ele>-0.82</ele>
        <time>2016-05-01T03:03:36Z</time>
      </trkpt>
      <trkpt lat="47.64383" lon="-3.4457">
        <ele>0.14</ele>
        <time>2016-05-01T03:04:16Z</time>
      </trkpt>
      <trkpt lat="47.64383" lon="-3.44571">
        <ele>0.14</ele>
        <time>2016-05-01T03:04:59Z</time>
      </trkpt>
      <trkpt lat="47.64384" lon="-3.4457">
        <ele>1.1</ele>
        <time>2016-05-01T03:05:41Z</time>
      </trkpt>
      <trkpt lat="47.64384" lon="-3.4457">
        <ele>1.58</ele>
        <time>2016-05-01T03:06:12Z</time>
      </trkpt>
      <trkpt lat="47.64384" lon="-3.4457">
        <ele>1.1</ele>
        <time>2016-05-01T03:06:44Z</time>
      </trkpt>
      <trkpt lat="47.64384" lon="-3.4457">
        <ele>0.14</ele>
        <time>2016-05-01T03:07:28Z</time>
      </trkpt>
      <trkpt lat="47.64384" lon="-3.44571">
        <ele>0.14</ele>
        <time>2016-05-01T03:08:13Z</time>
      </trkpt>
      <trkpt lat="47.64383" lon="-3.4457">
        <ele>-0.82</ele>
        <time>2016-05-01T03:08:56Z</time>
      </trkpt>
      <trkpt lat="47.64383" lon="-3.44571">
        <ele>-0.82</ele>
        <time>2016-05-01T03:09:42Z</time>
      </trkpt>
      <trkpt lat="47.64384" lon="-3.44571">
        <ele>0.14</ele>
        <time>2016-05-01T03:10:15Z</time>
      </trkpt>
      <trkpt lat="47.64384" lon="-3.44571">
        <ele>-0.82</ele>
        <time>2016-05-01T03:10:47Z</time>
      </trkpt>
      <trkpt lat="47.64384" lon="-3.44571">
        <ele>-1.3</ele>
        <time>2016-05-01T03:11:25Z</time>
      </trkpt>
      <trkpt lat="47.64385" lon="-3.44571">
        <ele>-0.82</ele>
        <time>2016-05-01T03:12:01Z</time>
      </trkpt>
      <trkpt lat="47.64386" lon="-3.44572">
        <ele>-0.34</ele>
        <time>2016-05-01T03:12:36Z</time>
      </trkpt>
      <trkpt lat="47.64385" lon="-3.44572">
        <ele>-0.34</ele>
        <time>2016-05-01T03:13:19Z</time>
      </trkpt>
      <trkpt lat="47.64386" lon="-3.44573">
        <ele>-0.82</ele>
        <time>2016-05-01T03:14:00Z</time>
      </trkpt>
      <trkpt lat="47.64386" lon="-3.44573">
        <ele>-0.34</ele>
        <time>2016-05-01T03:14:33Z</time>
      </trkpt>
      <trkpt lat="47.64385" lon="-3.44573">
        <ele>-0.82</ele>
        <time>2016-05-01T03:15:09Z</time>
      </trkpt>
      <trkpt lat="47.64385" lon="-3.44573">
        <ele>0.14</ele>
        <time>2016-05-01T03:15:37Z</time>
      </trkpt>
      <trkpt lat="47.64385" lon="-3.44572">
        <ele>-0.34</ele>
        <time>2016-05-01T03:16:07Z</time>
      </trkpt>
      <trkpt lat="47.64386" lon="-3.44571">
        <ele>0.14</ele>
        <time>2016-05-01T03:16:44Z</time>
      </trkpt>
      <trkpt lat="47.64385" lon="-3.4457">
        <ele>0.14</ele>
        <time>2016-05-01T03:17:22Z</time>
      </trkpt>
      <trkpt lat="47.64386" lon="-3.44571">
        <ele>0.14</ele>
        <time>2016-05-01T03:17:53Z</time>
      </trkpt>
      <trkpt lat="47.64384" lon="-3.44573">
        <ele>0.14</ele>
        <time>2016-05-01T03:18:20Z</time>
      </trkpt>
      <trkpt lat="47.64384" lon="-3.44572">
        <ele>-0.34</ele>
        <time>2016-05-01T03:18:44Z</time>
      </trkpt>
      <trkpt lat="47.64383" lon="-3.44571">
        <ele>0.14</ele>
        <time>2016-05-01T03:19:16Z</time>
      </trkpt>
      <trkpt lat="47.64383" lon="-3.4457">
        <ele>0.62</ele>
        <time>2016-05-01T03:19:41Z</time>
      </trkpt>
      <trkpt lat="47.64382" lon="-3.4457">
        <ele>1.1</ele>
        <time>2016-05-01T03:20:06Z</time>
      </trkpt>
      <trkpt lat="47.64383" lon="-3.4457">
        <ele>1.58</ele>
        <time>2016-05-01T03:20:28Z</time>
      </trkpt>
      <trkpt lat="47.64383" lon="-3.4457">
        <ele>-0.34</ele>
        <time>2016-05-01T03:20:55Z</time>
      </trkpt>
      <trkpt lat="47.64384" lon="-3.4457">
        <ele>0.62</ele>
        <time>2016-05-01T03:21:25Z</time>
      </trkpt>
      <trkpt lat="47.64386" lon="-3.4457">
        <ele>1.1</ele>
        <time>2016-05-01T03:21:55Z</time>
      </trkpt>
      <trkpt lat="47.64387" lon="-3.44572">
        <ele>0.62</ele>
        <time>2016-05-01T03:22:22Z</time>
      </trkpt>
      <trkpt lat="47.64385" lon="-3.44571">
        <ele>0.14</ele>
        <time>2016-05-01T03:23:00Z</time>
      </trkpt>
      <trkpt lat="47.64385" lon="-3.44571">
        <ele>1.58</ele>
        <time>2016-05-01T03:23:36Z</time>
      </trkpt>
      <trkpt lat="47.64385" lon="-3.44571">
        <ele>1.1</ele>
        <time>2016-05-01T03:23:58Z</time>
      </trkpt>
      <trkpt lat="47.64384" lon="-3.44571">
        <ele>2.06</ele>
        <time>2016-05-01T03:24:31Z</time>
      </trkpt>
      <trkpt lat="47.64384" lon="-3.44571">
        <ele>2.06</ele>
        <time>2016-05-01T03:25:00Z</time>
      </trkpt>
      <trkpt lat="47.64384" lon="-3.44572">
        <ele>2.06</ele>
        <time>2016-05-01T03:25:19Z</time>
      </trkpt>
      <trkpt lat="47.64384" lon="-3.44571">
        <ele>1.58</ele>
        <time>2016-05-01T03:25:46Z</time>
      </trkpt>
      <trkpt lat="47.64384" lon="-3.4457">
        <ele>1.58</ele>
        <time>2016-05-01T03:26:16Z</time>
      </trkpt>
      <trkpt lat="47.64384" lon="-3.44569">
        <ele>2.06</ele>
        <time>2016-05-01T03:26:46Z</time>
      </trkpt>
      <trkpt lat="47.64384" lon="-3.44569">
        <ele>1.1</ele>
        <time>2016-05-01T03:27:23Z</time>
      </trkpt>
      <trkpt lat="47.64382" lon="-3.4457">
        <ele>1.58</ele>
        <time>2016-05-01T03:27:55Z</time>
      </trkpt>
      <trkpt lat="47.64382" lon="-3.44571">
        <ele>1.1</ele>
        <time>2016-05-01T03:28:33Z</time>
      </trkpt>
      <trkpt lat="47.64383" lon="-3.44571">
        <ele>0.14</ele>
        <time>2016-05-01T03:28:58Z</time>
      </trkpt>
      <trkpt lat="47.64383" lon="-3.44571">
        <ele>0.14</ele>
        <time>2016-05-01T03:29:28Z</time>
      </trkpt>
      <trkpt lat="47.64383" lon="-3.44569">
        <ele>-0.34</ele>
        <time>2016-05-01T03:30:01Z</time>
      </trkpt>
      <trkpt lat="47.64383" lon="-3.44569">
        <ele>-0.82</ele>
        <time>2016-05-01T03:30:32Z</time>
      </trkpt>
      <trkpt lat="47.64383" lon="-3.4457">
        <ele>-0.34</ele>
        <time>2016-05-01T03:31:01Z</time>
      </trkpt>
      <trkpt lat="47.64382" lon="-3.44571">
        <ele>-0.82</ele>
        <time>2016-05-01T03:31:31Z</time>
      </trkpt>
      <trkpt lat="47.64381" lon="-3.4457">
        <ele>-0.82</ele>
        <time>2016-05-01T03:31:52Z</time>
      </trkpt>
      <trkpt lat="47.64381" lon="-3.4457">
        <ele>-1.3</ele>
        <time>2016-05-01T03:32:25Z</time>
      </trkpt>
      <trkpt lat="47.64381" lon="-3.4457">
        <ele>-0.82</ele>
        <time>2016-05-01T03:32:50Z</time>
      </trkpt>
      <trkpt lat="47.6438" lon="-3.4457">
        <ele>-0.82</ele>
        <time>2016-05-01T03:33:20Z</time>
      </trkpt>
      <trkpt lat="47.64379" lon="-3.44571">
        <ele>-1.3</ele>
        <time>2016-05-01T03:33:51Z</time>
      </trkpt>
      <trkpt lat="47.6438" lon="-3.44571">
        <ele>-1.3</ele>
        <time>2016-05-01T03:34:30Z</time>
      </trkpt>
      <trkpt lat="47.64379" lon="-3.44571">
        <ele>-0.82</ele>
        <time>2016-05-01T03:35:01Z</time>
      </trkpt>
      <trkpt lat="47.6438" lon="-3.44571">
        <ele>-0.34</ele>
        <time>2016-05-01T03:35:33Z</time>
      </trkpt>
      <trkpt lat="47.6438" lon="-3.44571">
        <ele>0.14</ele>
        <time>2016-05-01T03:36:08Z</time>
      </trkpt>
      <trkpt lat="47.64381" lon="-3.44571">
        <ele>0.14</ele>
        <time>2016-05-01T03:36:33Z</time>
      </trkpt>
      <trkpt lat="47.64381" lon="-3.44571">
        <ele>0.14</ele>
        <time>2016-05-01T03:37:01Z</time>
      </trkpt>
      <trkpt lat="47.64381" lon="-3.44572">
        <ele>-0.34</ele>
        <time>2016-05-01T03:37:18Z</time>
      </trkpt>
      <trkpt lat="47.64382" lon="-3.44571">
        <ele>-0.82</ele>
        <time>2016-05-01T03:37:43Z</time>
      </trkpt>
      <trkpt lat="47.64382" lon="-3.44571">
        <ele>-0.82</ele>
        <time>2016-05-01T03:38:05Z</time>
      </trkpt>
      <trkpt lat="47.64382" lon="-3.44572">
        <ele>-1.79</ele>
        <time>2016-05-01T03:38:29Z</time>
      </trkpt>
      <trkpt lat="47.64382" lon="-3.44571">
        <ele>-0.82</ele>
        <time>2016-05-01T03:39:00Z</time>
      </trkpt>
      <trkpt lat="47.64382" lon="-3.44571">
        <ele>-0.82</ele>
        <time>2016-05-01T03:39:20Z</time>
      </trkpt>
      <trkpt lat="47.64383" lon="-3.44571">
        <ele>-0.34</ele>
        <time>2016-05-01T03:39:45Z</time>
      </trkpt>
      <trkpt lat="47.64383" lon="-3.44571">
        <ele>-0.34</ele>
        <time>2016-05-01T03:40:12Z</time>
      </trkpt>
      <trkpt lat="47.64382" lon="-3.44571">
        <ele>-0.82</ele>
        <time>2016-05-01T03:40:46Z</time>
      </trkpt>
      <trkpt lat="47.64381" lon="-3.44571">
        <ele>-1.3</ele>
        <time>2016-05-01T03:41:19Z</time>
      </trkpt>
      <trkpt lat="47.64381" lon="-3.44571">
        <ele>-1.3</ele>
        <time>2016-05-01T03:41:50Z</time>
      </trkpt>
      <trkpt lat="47.64381" lon="-3.44571">
        <ele>-0.82</ele>
        <time>2016-05-01T03:42:18Z</time>
      </trkpt>
      <trkpt lat="47.64381" lon="-3.44571">
        <ele>-0.82</ele>
        <time>2016-05-01T03:42:44Z</time>
      </trkpt>
      <trkpt lat="47.64381" lon="-3.44571">
        <ele>-1.3</ele>
        <time>2016-05-01T03:43:09Z</time>
      </trkpt>
      <trkpt lat="47.64382" lon="-3.4457">
        <ele>-0.82</ele>
        <time>2016-05-01T03:43:39Z</time>
      </trkpt>
      <trkpt lat="47.64383" lon="-3.4457">
        <ele>-0.82</ele>
        <time>2016-05-01T03:44:11Z</time>
      </trkpt>
      <trkpt lat="47.64383" lon="-3.4457">
        <ele>-0.34</ele>
        <time>2016-05-01T03:44:42Z</time>
      </trkpt>
      <trkpt lat="47.64382" lon="-3.44571">
        <ele>2.06</ele>
        <time>2016-05-01T03:45:16Z</time>
      </trkpt>
      <trkpt lat="47.64383" lon="-3.44571">
        <ele>0.62</ele>
        <time>2016-05-01T03:45:41Z</time>
      </trkpt>
      <trkpt lat="47.64383" lon="-3.44571">
        <ele>1.1</ele>
        <time>2016-05-01T03:46:10Z</time>
      </trkpt>
      <trkpt lat="47.64383" lon="-3.4457">
        <ele>1.58</ele>
        <time>2016-05-01T03:46:43Z</time>
      </trkpt>
      <trkpt lat="47.64383" lon="-3.4457">
        <ele>1.1</ele>
        <time>2016-05-01T03:47:10Z</time>
      </trkpt>
      <trkpt lat="47.64383" lon="-3.44571">
        <ele>1.1</ele>
        <time>2016-05-01T03:47:30Z</time>
      </trkpt>
      <trkpt lat="47.64383" lon="-3.4457">
        <ele>0.14</ele>
        <time>2016-05-01T03:48:02Z</time>
      </trkpt>
      <trkpt lat="47.64384" lon="-3.4457">
        <ele>0.14</ele>
        <time>2016-05-01T03:48:26Z</time>
      </trkpt>
      <trkpt lat="47.64384" lon="-3.4457">
        <ele>0.14</ele>
        <time>2016-05-01T03:48:58Z</time>
      </trkpt>
      <trkpt lat="47.64384" lon="-3.4457">
        <ele>0.62</ele>
        <time>2016-05-01T03:49:16Z</time>
      </trkpt>
      <trkpt lat="47.64384" lon="-3.4457">
        <ele>0.62</ele>
        <time>2016-05-01T03:49:40Z</time>
      </trkpt>
      <trkpt lat="47.64384" lon="-3.44571">
        <ele>0.14</ele>
        <time>2016-05-01T03:50:11Z</time>
      </trkpt>
      <trkpt lat="47.64384" lon="-3.44571">
        <ele>-0.34</ele>
        <time>2016-05-01T03:50:29Z</time>
      </trkpt>
      <trkpt lat="47.64383" lon="-3.44571">
        <ele>-0.34</ele>
        <time>2016-05-01T03:50:55Z</time>
      </trkpt>
      <trkpt lat="47.64383" lon="-3.44571">
        <ele>0.14</ele>
        <time>2016-05-01T03:51:19Z</time>
      </trkpt>
      <trkpt lat="47.64383" lon="-3.44571">
        <ele>0.14</ele>
        <time>2016-05-01T03:51:46Z</time>
      </trkpt>
      <trkpt lat="47.64383" lon="-3.44571">
        <ele>0.62</ele>
        <time>2016-05-01T03:52:13Z</time>
      </trkpt>
      <trkpt lat="47.64383" lon="-3.44571">
        <ele>0.62</ele>
        <time>2016-05-01T03:52:43Z</time>
      </trkpt>
      <trkpt lat="47.64384" lon="-3.4457">
        <ele>0.62</ele>
        <time>2016-05-01T03:53:16Z</time>
      </trkpt>
      <trkpt lat="47.64384" lon="-3.4457">
        <ele>1.1</ele>
        <time>2016-05-01T03:53:56Z</time>
      </trkpt>
      <trkpt lat="47.64384" lon="-3.44571">
        <ele>1.1</ele>
        <time>2016-05-01T03:54:22Z</time>
      </trkpt>
      <trkpt lat="47.64384" lon="-3.44572">
        <ele>2.06</ele>
        <time>2016-05-01T03:54:52Z</time>
      </trkpt>
      <trkpt lat="47.64384" lon="-3.44572">
        <ele>2.06</ele>
        <time>2016-05-01T03:55:25Z</time>
      </trkpt>
      <trkpt lat="47.64384" lon="-3.44572">
        <ele>3.02</ele>
        <time>2016-05-01T03:55:54Z</time>
      </trkpt>
      <trkpt lat="47.64385" lon="-3.44571">
        <ele>3.98</ele>
        <time>2016-05-01T03:56:34Z</time>
      </trkpt>
      <trkpt lat="47.64384" lon="-3.4457">
        <ele>4.94</ele>
        <time>2016-05-01T03:57:14Z</time>
      </trkpt>
      <trkpt lat="47.64384" lon="-3.4457">
        <ele>4.94</ele>
        <time>2016-05-01T03:57:52Z</time>
      </trkpt>
      <trkpt lat="47.64384" lon="-3.4457">
        <ele>4.94</ele>
        <time>2016-05-01T03:58:26Z</time>
      </trkpt>
      <trkpt lat="47.64384" lon="-3.44571">
        <ele>3.98</ele>
        <time>2016-05-01T03:59:09Z</time>
      </trkpt>
      <trkpt lat="47.64383" lon="-3.44571">
        <ele>3.98</ele>
        <time>2016-05-01T03:59:52Z</time>
      </trkpt>
      <trkpt lat="47.64383" lon="-3.4457">
        <ele>3.98</ele>
        <time>2016-05-01T04:00:26Z</time>
      </trkpt>
      <trkpt lat="47.64384" lon="-3.44571">
        <ele>2.06</ele>
        <time>2016-05-01T04:01:18Z</time>
      </trkpt>
      <trkpt lat="47.64384" lon="-3.44571">
        <ele>1.1</ele>
        <time>2016-05-01T04:02:03Z</time>
      </trkpt>
      <trkpt lat="47.64384" lon="-3.44571">
        <ele>0.62</ele>
        <time>2016-05-01T04:02:40Z</time>
      </trkpt>
      <trkpt lat="47.64383" lon="-3.4457">
        <ele>0.62</ele>
        <time>2016-05-01T04:03:19Z</time>
      </trkpt>
      <trkpt lat="47.64382" lon="-3.4457">
        <ele>1.1</ele>
        <time>2016-05-01T04:04:11Z</time>
      </trkpt>
      <trkpt lat="47.64383" lon="-3.44571">
        <ele>1.1</ele>
        <time>2016-05-01T04:04:36Z</time>
      </trkpt>
      <trkpt lat="47.64383" lon="-3.44571">
        <ele>1.1</ele>
        <time>2016-05-01T04:05:15Z</time>
      </trkpt>
      <trkpt lat="47.64384" lon="-3.44571">
        <ele>0.62</ele>
        <time>2016-05-01T04:05:48Z</time>
      </trkpt>
      <trkpt lat="47.64383" lon="-3.44572">
        <ele>0.14</ele>
        <time>2016-05-01T04:06:31Z</time>
      </trkpt>
      <trkpt lat="47.64384" lon="-3.44572">
        <ele>0.62</ele>
        <time>2016-05-01T04:07:09Z</time>
      </trkpt>
      <trkpt lat="47.64383" lon="-3.44572">
        <ele>0.62</ele>
        <time>2016-05-01T04:07:39Z</time>
      </trkpt>
      <trkpt lat="47.64383" lon="-3.44572">
        <ele>0.14</ele>
        <time>2016-05-01T04:08:15Z</time>
      </trkpt>
      <trkpt lat="47.64383" lon="-3.44571">
        <ele>0.62</ele>
        <time>2016-05-01T04:08:54Z</time>
      </trkpt>
      <trkpt lat="47.64383" lon="-3.44573">
        <ele>0.62</ele>
        <time>2016-05-01T04:09:24Z</time>
      </trkpt>
      <trkpt lat="47.64382" lon="-3.44572">
        <ele>2.06</ele>
        <time>2016-05-01T04:10:06Z</time>
      </trkpt>
      <trkpt lat="47.64383" lon="-3.44573">
        <ele>3.02</ele>
        <time>2016-05-01T04:10:41Z</time>
      </trkpt>
      <trkpt lat="47.64383" lon="-3.44572">
        <ele>3.02</ele>
        <time>2016-05-01T04:11:14Z</time>
      </trkpt>
      <trkpt lat="47.64383" lon="-3.44572">
        <ele>3.02</ele>
        <time>2016-05-01T04:11:48Z</time>
      </trkpt>
      <trkpt lat="47.64383" lon="-3.44572">
        <ele>3.5</ele>
        <time>2016-05-01T04:12:18Z</time>
      </trkpt>
      <trkpt lat="47.64383" lon="-3.44572">
        <ele>3.5</ele>
        <time>2016-05-01T04:13:06Z</time>
      </trkpt>
      <trkpt lat="47.64383" lon="-3.44572">
        <ele>3.98</ele>
        <time>2016-05-01T04:13:48Z</time>
      </trkpt>
      <trkpt lat="47.64382" lon="-3.44572">
        <ele>3.98</ele>
        <time>2016-05-01T04:14:36Z</time>
      </trkpt>
      <trkpt lat="47.64383" lon="-3.44572">
        <ele>3.98</ele>
        <time>2016-05-01T04:15:16Z</time>
      </trkpt>
      <trkpt lat="47.64384" lon="-3.44572">
        <ele>4.94</ele>
        <time>2016-05-01T04:15:59Z</time>
      </trkpt>
      <trkpt lat="47.64383" lon="-3.44572">
        <ele>5.42</ele>
        <time>2016-05-01T04:16:57Z</time>
      </trkpt>
      <trkpt lat="47.64383" lon="-3.44572">
        <ele>6.39</ele>
        <time>2016-05-01T04:17:52Z</time>
      </trkpt>
      <trkpt lat="47.64383" lon="-3.44571">
        <ele>5.42</ele>
        <time>2016-05-01T04:18:34Z</time>
      </trkpt>
      <trkpt lat="47.64383" lon="-3.44571">
        <ele>4.46</ele>
        <time>2016-05-01T04:19:08Z</time>
      </trkpt>
      <trkpt lat="47.64383" lon="-3.44571">
        <ele>3.98</ele>
        <time>2016-05-01T04:19:46Z</time>
      </trkpt>
      <trkpt lat="47.64383" lon="-3.44571">
        <ele>3.5</ele>
        <time>2016-05-01T04:20:22Z</time>
      </trkpt>
      <trkpt lat="47.64382" lon="-3.4457">
        <ele>2.54</ele>
        <time>2016-05-01T04:21:16Z</time>
      </trkpt>
      <trkpt lat="47.64384" lon="-3.44571">
        <ele>3.02</ele>
        <time>2016-05-01T04:22:04Z</time>
      </trkpt>
      <trkpt lat="47.64384" lon="-3.4457">
        <ele>3.02</ele>
        <time>2016-05-01T04:22:37Z</time>
      </trkpt>
      <trkpt lat="47.64383" lon="-3.4457">
        <ele>3.5</ele>
        <time>2016-05-01T04:23:07Z</time>
      </trkpt>
      <trkpt lat="47.64382" lon="-3.44572">
        <ele>3.98</ele>
        <time>2016-05-01T04:23:45Z</time>
      </trkpt>
      <trkpt lat="47.64383" lon="-3.44572">
        <ele>4.94</ele>
        <time>2016-05-01T04:24:20Z</time>
      </trkpt>
      <trkpt lat="47.64383" lon="-3.44572">
        <ele>5.91</ele>
        <time>2016-05-01T04:25:03Z</time>
      </trkpt>
      <trkpt lat="47.64383" lon="-3.44571">
        <ele>5.42</ele>
        <time>2016-05-01T04:25:39Z</time>
      </trkpt>
      <trkpt lat="47.64383" lon="-3.44572">
        <ele>6.39</ele>
        <time>2016-05-01T04:26:25Z</time>
      </trkpt>
      <trkpt lat="47.64383" lon="-3.44571">
        <ele>5.91</ele>
        <time>2016-05-01T04:27:07Z</time>
      </trkpt>
      <trkpt lat="47.64383" lon="-3.44571">
        <ele>5.42</ele>
        <time>2016-05-01T04:27:47Z</time>
      </trkpt>
      <trkpt lat="47.64383" lon="-3.4457">
        <ele>5.42</ele>
        <time>2016-05-01T04:28:24Z</time>
      </trkpt>
      <trkpt lat="47.64383" lon="-3.44569">
        <ele>5.91</ele>
        <time>2016-05-01T04:29:04Z</time>
      </trkpt>
      <trkpt lat="47.64383" lon="-3.4457">
        <ele>5.42</ele>
        <time>2016-05-01T04:29:41Z</time>
      </trkpt>
      <trkpt lat="47.64383" lon="-3.4457">
        <ele>5.91</ele>
        <time>2016-05-01T04:30:18Z</time>
      </trkpt>
      <trkpt lat="47.64383" lon="-3.4457">
        <ele>5.91</ele>
        <time>2016-05-01T04:31:00Z</time>
      </trkpt>
      <trkpt lat="47.64384" lon="-3.44571">
        <ele>6.39</ele>
        <time>2016-05-01T04:31:39Z</time>
      </trkpt>
      <trkpt lat="47.64383" lon="-3.44571">
        <ele>6.39</ele>
        <time>2016-05-01T04:32:23Z</time>
      </trkpt>
      <trkpt lat="47.64384" lon="-3.44571">
        <ele>6.87</ele>
        <time>2016-05-01T04:33:01Z</time>
      </trkpt>
      <trkpt lat="47.64383" lon="-3.4457">
        <ele>6.87</ele>
        <time>2016-05-01T04:33:46Z</time>
      </trkpt>
      <trkpt lat="47.64382" lon="-3.44571">
        <ele>6.87</ele>
        <time>2016-05-01T04:34:23Z</time>
      </trkpt>
      <trkpt lat="47.64382" lon="-3.4457">
        <ele>7.35</ele>
        <time>2016-05-01T04:35:15Z</time>
      </trkpt>
      <trkpt lat="47.64383" lon="-3.44571">
        <ele>7.35</ele>
        <time>2016-05-01T04:36:06Z</time>
      </trkpt>
      <trkpt lat="47.64383" lon="-3.4457">
        <ele>6.39</ele>
        <time>2016-05-01T04:36:43Z</time>
      </trkpt>
      <trkpt lat="47.64383" lon="-3.4457">
        <ele>5.42</ele>
        <time>2016-05-01T04:37:28Z</time>
      </trkpt>
      <trkpt lat="47.64382" lon="-3.44572">
        <ele>5.91</ele>
        <time>2016-05-01T04:38:06Z</time>
      </trkpt>
      <trkpt lat="47.64382" lon="-3.44572">
        <ele>5.42</ele>
        <time>2016-05-01T04:38:40Z</time>
      </trkpt>
      <trkpt lat="47.64382" lon="-3.44571">
        <ele>4.94</ele>
        <time>2016-05-01T04:39:20Z</time>
      </trkpt>
      <trkpt lat="47.64382" lon="-3.44571">
        <ele>3.98</ele>
        <time>2016-05-01T04:39:53Z</time>
      </trkpt>
      <trkpt lat="47.64383" lon="-3.4457">
        <ele>4.46</ele>
        <time>2016-05-01T04:40:24Z</time>
      </trkpt>
      <trkpt lat="47.64383" lon="-3.4457">
        <ele>4.46</ele>
        <time>2016-05-01T04:40:51Z</time>
      </trkpt>
      <trkpt lat="47.64384" lon="-3.4457">
        <ele>4.46</ele>
        <time>2016-05-01T04:41:20Z</time>
      </trkpt>
      <trkpt lat="47.64384" lon="-3.4457">
        <ele>3.98</ele>
        <time>2016-05-01T04:41:45Z</time>
      </trkpt>
      <trkpt lat="47.64383" lon="-3.44571">
        <ele>3.98</ele>
        <time>2016-05-01T04:42:22Z</time>
      </trkpt>
      <trkpt lat="47.64382" lon="-3.44572">
        <ele>3.98</ele>
        <time>2016-05-01T04:42:47Z</time>
      </trkpt>
      <trkpt lat="47.64382" lon="-3.44571">
        <ele>4.94</ele>
        <time>2016-05-01T04:43:18Z</time>
      </trkpt>
      <trkpt lat="47.64382" lon="-3.44571">
        <ele>4.94</ele>
        <time>2016-05-01T04:43:56Z</time>
      </trkpt>
      <trkpt lat="47.64381" lon="-3.44571">
        <ele>6.39</ele>
        <time>2016-05-01T04:44:28Z</time>
      </trkpt>
      <trkpt lat="47.64382" lon="-3.44572">
        <ele>6.87</ele>
        <time>2016-05-01T04:45:00Z</time>
      </trkpt>
      <trkpt lat="47.64381" lon="-3.44572">
        <ele>7.35</ele>
        <time>2016-05-01T04:45:36Z</time>
      </trkpt>
      <trkpt lat="47.64382" lon="-3.44573">
        <ele>7.35</ele>
        <time>2016-05-01T04:46:10Z</time>
      </trkpt>
      <trkpt lat="47.64381" lon="-3.44572">
        <ele>7.35</ele>
        <time>2016-05-01T04:46:46Z</time>
      </trkpt>
      <trkpt lat="47.64381" lon="-3.44573">
        <ele>7.35</ele>
        <time>2016-05-01T04:47:13Z</time>
      </trkpt>
      <trkpt lat="47.64382" lon="-3.44572">
        <ele>7.35</ele>
        <time>2016-05-01T04:47:44Z</time>
      </trkpt>
      <trkpt lat="47.6438" lon="-3.44573">
        <ele>6.87</ele>
        <time>2016-05-01T04:48:22Z</time>
      </trkpt>
      <trkpt lat="47.6438" lon="-3.44572">
        <ele>5.91</ele>
        <time>2016-05-01T04:49:03Z</time>
      </trkpt>
      <trkpt lat="47.6438" lon="-3.44572">
        <ele>5.42</ele>
        <time>2016-05-01T04:49:29Z</time>
      </trkpt>
      <trkpt lat="47.64379" lon="-3.44573">
        <ele>4.46</ele>
        <time>2016-05-01T04:49:58Z</time>
      </trkpt>
      <trkpt lat="47.6438" lon="-3.44572">
        <ele>3.5</ele>
        <time>2016-05-01T04:50:38Z</time>
      </trkpt>
      <trkpt lat="47.64381" lon="-3.44572">
        <ele>3.5</ele>
        <time>2016-05-01T04:51:13Z</time>
      </trkpt>
      <trkpt lat="47.64381" lon="-3.44573">
        <ele>3.02</ele>
        <time>2016-05-01T04:51:44Z</time>
      </trkpt>
      <trkpt lat="47.6438" lon="-3.44572">
        <ele>4.94</ele>
        <time>2016-05-01T04:52:30Z</time>
      </trkpt>
      <trkpt lat="47.64381" lon="-3.4457">
        <ele>4.46</ele>
        <time>2016-05-01T04:53:08Z</time>
      </trkpt>
      <trkpt lat="47.64381" lon="-3.44572">
        <ele>4.94</ele>
        <time>2016-05-01T04:53:53Z</time>
      </trkpt>
      <trkpt lat="47.64381" lon="-3.44573">
        <ele>4.94</ele>
        <time>2016-05-01T04:54:33Z</time>
      </trkpt>
      <trkpt lat="47.64381" lon="-3.44571">
        <ele>5.91</ele>
        <time>2016-05-01T04:55:13Z</time>
      </trkpt>
      <trkpt lat="47.64381" lon="-3.44572">
        <ele>4.94</ele>
        <time>2016-05-01T04:55:47Z</time>
      </trkpt>
      <trkpt lat="47.64381" lon="-3.44572">
        <ele>3.5</ele>
        <time>2016-05-01T04:56:24Z</time>
      </trkpt>
      <trkpt lat="47.64381" lon="-3.44572">
        <ele>3.98</ele>
        <time>2016-05-01T04:57:03Z</time>
      </trkpt>
      <trkpt lat="47.64382" lon="-3.44572">
        <ele>3.5</ele>
        <time>2016-05-01T04:57:45Z</time>
      </trkpt>
      <trkpt lat="47.64381" lon="-3.44573">
        <ele>4.46</ele>
        <time>2016-05-01T04:58:33Z</time>
      </trkpt>
      <trkpt lat="47.64381" lon="-3.44573">
        <ele>4.94</ele>
        <time>2016-05-01T04:59:15Z</time>
      </trkpt>
      <trkpt lat="47.64381" lon="-3.44574">
        <ele>5.42</ele>
        <time>2016-05-01T04:59:51Z</time>
      </trkpt>
      <trkpt lat="47.6438" lon="-3.44573">
        <ele>4.46</ele>
        <time>2016-05-01T05:00:23Z</time>
      </trkpt>
      <trkpt lat="47.6438" lon="-3.44572">
        <ele>4.46</ele>
        <time>2016-05-01T05:01:01Z</time>
      </trkpt>
      <trkpt lat="47.64381" lon="-3.44572">
        <ele>4.94</ele>
        <time>2016-05-01T05:01:37Z</time>
      </trkpt>
      <trkpt lat="47.64381" lon="-3.44572">
        <ele>4.94</ele>
        <time>2016-05-01T05:02:24Z</time>
      </trkpt>
      <trkpt lat="47.64381" lon="-3.44571">
        <ele>5.91</ele>
        <time>2016-05-01T05:02:55Z</time>
      </trkpt>
      <trkpt lat="47.64381" lon="-3.44572">
        <ele>5.91</ele>
        <time>2016-05-01T05:03:32Z</time>
      </trkpt>
      <trkpt lat="47.64382" lon="-3.44573">
        <ele>5.42</ele>
        <time>2016-05-01T05:04:02Z</time>
      </trkpt>
      <trkpt lat="47.64382" lon="-3.44573">
        <ele>6.39</ele>
        <time>2016-05-01T05:04:36Z</time>
      </trkpt>
      <trkpt lat="47.64382" lon="-3.44574">
        <ele>6.39</ele>
        <time>2016-05-01T05:05:09Z</time>
      </trkpt>
      <trkpt lat="47.64382" lon="-3.44574">
        <ele>5.91</ele>
        <time>2016-05-01T05:05:41Z</time>
      </trkpt>
      <trkpt lat="47.64382" lon="-3.44575">
        <ele>6.39</ele>
        <time>2016-05-01T05:06:15Z</time>
      </trkpt>
      <trkpt lat="47.64382" lon="-3.44575">
        <ele>6.39</ele>
        <time>2016-05-01T05:06:45Z</time>
      </trkpt>
      <trkpt lat="47.64382" lon="-3.44576">
        <ele>5.91</ele>
        <time>2016-05-01T05:07:30Z</time>
      </trkpt>
      <trkpt lat="47.64381" lon="-3.44575">
        <ele>5.42</ele>
        <time>2016-05-01T05:08:04Z</time>
      </trkpt>
      <trkpt lat="47.64381" lon="-3.44575">
        <ele>5.42</ele>
        <time>2016-05-01T05:08:33Z</time>
      </trkpt>
      <trkpt lat="47.64382" lon="-3.44577">
        <ele>6.39</ele>
        <time>2016-05-01T05:09:06Z</time>
      </trkpt>
      <trkpt lat="47.64382" lon="-3.44576">
        <ele>6.39</ele>
        <time>2016-05-01T05:09:29Z</time>
      </trkpt>
      <trkpt lat="47.64382" lon="-3.44576">
        <ele>5.91</ele>
        <time>2016-05-01T05:10:00Z</time>
      </trkpt>
      <trkpt lat="47.64382" lon="-3.44576">
        <ele>5.42</ele>
        <time>2016-05-01T05:10:31Z</time>
      </trkpt>
      <trkpt lat="47.64382" lon="-3.44575">
        <ele>4.94</ele>
        <time>2016-05-01T05:10:53Z</time>
      </trkpt>
      <trkpt lat="47.64383" lon="-3.44574">
        <ele>5.42</ele>
        <time>2016-05-01T05:11:35Z</time>
      </trkpt>
      <trkpt lat="47.64383" lon="-3.44573">
        <ele>5.42</ele>
        <time>2016-05-01T05:12:01Z</time>
      </trkpt>
      <trkpt lat="47.64383" lon="-3.44574">
        <ele>4.94</ele>
        <time>2016-05-01T05:12:29Z</time>
      </trkpt>
      <trkpt lat="47.64382" lon="-3.44574">
        <ele>4.46</ele>
        <time>2016-05-01T05:13:00Z</time>
      </trkpt>
      <trkpt lat="47.64382" lon="-3.44574">
        <ele>3.98</ele>
        <time>2016-05-01T05:13:26Z</time>
      </trkpt>
      <trkpt lat="47.64383" lon="-3.44574">
        <ele>2.54</ele>
        <time>2016-05-01T05:14:05Z</time>
      </trkpt>
      <trkpt lat="47.64384" lon="-3.44575">
        <ele>2.06</ele>
        <time>2016-05-01T05:14:38Z</time>
      </trkpt>
      <trkpt lat="47.64383" lon="-3.44576">
        <ele>2.06</ele>
        <time>2016-05-01T05:15:08Z</time>
      </trkpt>
      <trkpt lat="47.64384" lon="-3.44574">
        <ele>2.06</ele>
        <time>2016-05-01T05:15:51Z</time>
      </trkpt>
      <trkpt lat="47.64384" lon="-3.44575">
        <ele>2.54</ele>
        <time>2016-05-01T05:16:19Z</time>
      </trkpt>
      <trkpt lat="47.64383" lon="-3.44574">
        <ele>2.54</ele>
        <time>2016-05-01T05:16:54Z</time>
      </trkpt>
      <trkpt lat="47.64383" lon="-3.44574">
        <ele>2.54</ele>
        <time>2016-05-01T05:17:24Z</time>
      </trkpt>
      <trkpt lat="47.64382" lon="-3.44573">
        <ele>3.02</ele>
        <time>2016-05-01T05:18:04Z</time>
      </trkpt>
      <trkpt lat="47.64381" lon="-3.44574">
        <ele>2.54</ele>
        <time>2016-05-01T05:18:32Z</time>
      </trkpt>
      <trkpt lat="47.64381" lon="-3.44573">
        <ele>2.54</ele>
        <time>2016-05-01T05:19:06Z</time>
      </trkpt>
      <trkpt lat="47.64382" lon="-3.44573">
        <ele>3.5</ele>
        <time>2016-05-01T05:19:48Z</time>
      </trkpt>
      <trkpt lat="47.64381" lon="-3.44572">
        <ele>3.02</ele>
        <time>2016-05-01T05:20:25Z</time>
      </trkpt>
      <trkpt lat="47.64383" lon="-3.44571">
        <ele>3.02</ele>
        <time>2016-05-01T05:21:10Z</time>
      </trkpt>
      <trkpt lat="47.64382" lon="-3.44572">
        <ele>1.58</ele>
        <time>2016-05-01T05:21:53Z</time>
      </trkpt>
      <trkpt lat="47.64382" lon="-3.44573">
        <ele>0.62</ele>
        <time>2016-05-01T05:22:29Z</time>
      </trkpt>
      <trkpt lat="47.64382" lon="-3.44573">
        <ele>0.62</ele>
        <time>2016-05-01T05:23:13Z</time>
      </trkpt>
      <trkpt lat="47.64382" lon="-3.44573">
        <ele>0.62</ele>
        <time>2016-05-01T05:23:58Z</time>
      </trkpt>
      <trkpt lat="47.64382" lon="-3.44573">
        <ele>0.14</ele>
        <time>2016-05-01T05:24:27Z</time>
      </trkpt>
      <trkpt lat="47.64382" lon="-3.44573">
        <ele>-0.82</ele>
        <time>2016-05-01T05:25:01Z</time>
      </trkpt>
      <trkpt lat="47.64382" lon="-3.44574">
        <ele>-1.3</ele>
        <time>2016-05-01T05:25:27Z</time>
      </trkpt>
      <trkpt lat="47.64382" lon="-3.44575">
        <ele>-0.34</ele>
        <time>2016-05-01T05:26:19Z</time>
      </trkpt>
      <trkpt lat="47.64382" lon="-3.44575">
        <ele>-1.3</ele>
        <time>2016-05-01T05:26:59Z</time>
      </trkpt>
      <trkpt lat="47.64381" lon="-3.44574">
        <ele>-0.34</ele>
        <time>2016-05-01T05:27:50Z</time>
      </trkpt>
      <trkpt lat="47.64382" lon="-3.44573">
        <ele>-0.34</ele>
        <time>2016-05-01T05:28:42Z</time>
      </trkpt>
      <trkpt lat="47.64382" lon="-3.44573">
        <ele>-0.34</ele>
        <time>2016-05-01T05:29:32Z</time>
      </trkpt>
      <trkpt lat="47.64382" lon="-3.44574">
        <ele>-0.82</ele>
        <time>2016-05-01T05:30:02Z</time>
      </trkpt>
      <trkpt lat="47.64382" lon="-3.44574">
        <ele>-1.79</ele>
        <time>2016-05-01T05:30:33Z</time>
      </trkpt>
      <trkpt lat="47.64381" lon="-3.44573">
        <ele>-2.27</ele>
        <time>2016-05-01T05:31:21Z</time>
      </trkpt>
      <trkpt lat="47.64382" lon="-3.44571">
        <ele>-3.71</ele>
        <time>2016-05-01T05:31:58Z</time>
      </trkpt>
      <trkpt lat="47.64382" lon="-3.44574">
        <ele>-4.67</ele>
        <time>2016-05-01T05:32:29Z</time>
      </trkpt>
      <trkpt lat="47.64383" lon="-3.44573">
        <ele>-4.19</ele>
        <time>2016-05-01T05:33:23Z</time>
      </trkpt>
      <trkpt lat="47.64383" lon="-3.44572">
        <ele>-5.63</ele>
        <time>2016-05-01T05:34:06Z</time>
      </trkpt>
      <trkpt lat="47.64382" lon="-3.44571">
        <ele>-6.59</ele>
        <time>2016-05-01T05:34:44Z</time>
      </trkpt>
      <trkpt lat="47.64383" lon="-3.44571">
        <ele>-5.63</ele>
        <time>2016-05-01T05:35:28Z</time>
      </trkpt>
      <trkpt lat="47.64382" lon="-3.44572">
        <ele>-5.15</ele>
        <time>2016-05-01T05:36:05Z</time>
      </trkpt>
      <trkpt lat="47.64382" lon="-3.44573">
        <ele>-6.11</ele>
        <time>2016-05-01T05:36:52Z</time>
      </trkpt>
      <trkpt lat="47.64383" lon="-3.44571">
        <ele>-5.15</ele>
        <time>2016-05-01T05:37:42Z</time>
      </trkpt>
      <trkpt lat="47.64383" lon="-3.44572">
        <ele>-4.67</ele>
        <time>2016-05-01T05:38:28Z</time>
      </trkpt>
      <trkpt lat="47.64383" lon="-3.44571">
        <ele>-4.67</ele>
        <time>2016-05-01T05:39:10Z</time>
      </trkpt>
      <trkpt lat="47.6438" lon="-3.44573">
        <ele>-4.19</ele>
        <time>2016-05-01T05:39:49Z</time>
      </trkpt>
      <trkpt lat="47.64381" lon="-3.44573">
        <ele>-5.15</ele>
        <time>2016-05-01T05:40:31Z</time>
      </trkpt>
      <trkpt lat="47.64382" lon="-3.44573">
        <ele>-6.59</ele>
        <time>2016-05-01T05:41:06Z</time>
      </trkpt>
      <trkpt lat="47.64382" lon="-3.44572">
        <ele>-5.63</ele>
        <time>2016-05-01T05:41:53Z</time>
      </trkpt>
      <trkpt lat="47.64382" lon="-3.44573">
        <ele>-5.15</ele>
        <time>2016-05-01T05:42:26Z</time>
      </trkpt>
      <trkpt lat="47.64382" lon="-3.44572">
        <ele>-5.15</ele>
        <time>2016-05-01T05:43:08Z</time>
      </trkpt>
      <trkpt lat="47.64382" lon="-3.44573">
        <ele>-5.15</ele>
        <time>2016-05-01T05:43:46Z</time>
      </trkpt>
      <trkpt lat="47.64382" lon="-3.44572">
        <ele>-3.23</ele>
        <time>2016-05-01T05:44:42Z</time>
      </trkpt>
      <trkpt lat="47.64381" lon="-3.44573">
        <ele>-2.75</ele>
        <time>2016-05-01T05:45:18Z</time>
      </trkpt>
      <trkpt lat="47.64382" lon="-3.44573">
        <ele>-2.75</ele>
        <time>2016-05-01T05:46:00Z</time>
      </trkpt>
      <trkpt lat="47.64382" lon="-3.44572">
        <ele>-4.19</ele>
        <time>2016-05-01T05:46:41Z</time>
      </trkpt>
      <trkpt lat="47.64382" lon="-3.44571">
        <ele>-4.19</ele>
        <time>2016-05-01T05:47:17Z</time>
      </trkpt>
      <trkpt lat="47.64382" lon="-3.44573">
        <ele>-3.71</ele>
        <time>2016-05-01T05:47:57Z</time>
      </trkpt>
      <trkpt lat="47.64382" lon="-3.44571">
        <ele>-4.19</ele>
        <time>2016-05-01T05:48:42Z</time>
      </trkpt>
      <trkpt lat="47.64382" lon="-3.44571">
        <ele>-4.67</ele>
        <time>2016-05-01T05:49:29Z</time>
      </trkpt>
      <trkpt lat="47.64382" lon="-3.44572">
        <ele>-4.67</ele>
        <time>2016-05-01T05:50:08Z</time>
      </trkpt>
      <trkpt lat="47.64381" lon="-3.44573">
        <ele>-4.67</ele>
        <time>2016-05-01T05:50:59Z</time>
      </trkpt>
      <trkpt lat="47.64382" lon="-3.44573">
        <ele>-6.11</ele>
        <time>2016-05-01T05:51:40Z</time>
      </trkpt>
      <trkpt lat="47.64382" lon="-3.44572">
        <ele>-6.59</ele>
        <time>2016-05-01T05:52:32Z</time>
      </trkpt>
      <trkpt lat="47.64383" lon="-3.44571">
        <ele>-6.11</ele>
        <time>2016-05-01T05:53:11Z</time>
      </trkpt>
      <trkpt lat="47.64382" lon="-3.44572">
        <ele>-6.11</ele>
        <time>2016-05-01T05:54:02Z</time>
      </trkpt>
      <trkpt lat="47.64383" lon="-3.44571">
        <ele>-5.63</ele>
        <time>2016-05-01T05:54:36Z</time>
      </trkpt>
      <trkpt lat="47.64382" lon="-3.44573">
        <ele>-5.63</ele>
        <time>2016-05-01T05:55:15Z</time>
      </trkpt>
      <trkpt lat="47.64382" lon="-3.44573">
        <ele>-5.63</ele>
        <time>2016-05-01T05:56:00Z</time>
      </trkpt>
      <trkpt lat="47.64383" lon="-3.44574">
        <ele>-6.59</ele>
        <time>2016-05-01T05:56:47Z</time>
      </trkpt>
      <trkpt lat="47.64382" lon="-3.44572">
        <ele>-6.59</ele>
        <time>2016-05-01T05:57:31Z</time>
      </trkpt>
      <trkpt lat="47.64381" lon="-3.44572">
        <ele>-6.59</ele>
        <time>2016-05-01T05:58:03Z</time>
      </trkpt>
      <trkpt lat="47.64381" lon="-3.44573">
        <ele>-5.15</ele>
        <time>2016-05-01T05:58:54Z</time>
      </trkpt>
      <trkpt lat="47.64381" lon="-3.44573">
        <ele>-5.63</ele>
        <time>2016-05-01T05:59:41Z</time>
      </trkpt>
      <trkpt lat="47.64381" lon="-3.44573">
        <ele>-6.59</ele>
        <time>2016-05-01T06:00:22Z</time>
      </trkpt>
      <trkpt lat="47.64381" lon="-3.44572">
        <ele>-7.07</ele>
        <time>2016-05-01T06:01:02Z</time>
      </trkpt>
      <trkpt lat="47.64381" lon="-3.44573">
        <ele>-6.59</ele>
        <time>2016-05-01T06:01:46Z</time>
      </trkpt>
      <trkpt lat="47.64381" lon="-3.44573">
        <ele>-5.15</ele>
        <time>2016-05-01T06:02:22Z</time>
      </trkpt>
      <trkpt lat="47.64382" lon="-3.44573">
        <ele>-6.59</ele>
        <time>2016-05-01T06:03:16Z</time>
      </trkpt>
      <trkpt lat="47.64382" lon="-3.44573">
        <ele>-7.07</ele>
        <time>2016-05-01T06:03:53Z</time>
      </trkpt>
      <trkpt lat="47.64381" lon="-3.44573">
        <ele>-7.07</ele>
        <time>2016-05-01T06:04:33Z</time>
      </trkpt>
      <trkpt lat="47.64381" lon="-3.44573">
        <ele>-7.07</ele>
        <time>2016-05-01T06:05:08Z</time>
      </trkpt>
      <trkpt lat="47.64381" lon="-3.44572">
        <ele>-6.59</ele>
        <time>2016-05-01T06:05:42Z</time>
      </trkpt>
      <trkpt lat="47.64382" lon="-3.44572">
        <ele>-6.59</ele>
        <time>2016-05-01T06:06:17Z</time>
      </trkpt>
      <trkpt lat="47.64381" lon="-3.44571">
        <ele>-5.15</ele>
        <time>2016-05-01T06:06:54Z</time>
      </trkpt>
      <trkpt lat="47.64381" lon="-3.44571">
        <ele>-4.67</ele>
        <time>2016-05-01T06:07:36Z</time>
      </trkpt>
      <trkpt lat="47.64382" lon="-3.44572">
        <ele>-4.67</ele>
        <time>2016-05-01T06:08:14Z</time>
      </trkpt>
      <trkpt lat="47.64381" lon="-3.44572">
        <ele>-4.67</ele>
        <time>2016-05-01T06:08:52Z</time>
      </trkpt>
      <trkpt lat="47.64381" lon="-3.44571">
        <ele>-3.71</ele>
        <time>2016-05-01T06:09:30Z</time>
      </trkpt>
      <trkpt lat="47.64381" lon="-3.44571">
        <ele>-3.23</ele>
        <time>2016-05-01T06:10:03Z</time>
      </trkpt>
      <trkpt lat="47.64381" lon="-3.4457">
        <ele>-3.23</ele>
        <time>2016-05-01T06:10:44Z</time>
      </trkpt>
      <trkpt lat="47.6438" lon="-3.4457">
        <ele>-3.71</ele>
        <time>2016-05-01T06:11:18Z</time>
      </trkpt>
      <trkpt lat="47.64381" lon="-3.44571">
        <ele>-3.71</ele>
        <time>2016-05-01T06:11:53Z</time>
      </trkpt>
      <trkpt lat="47.64381" lon="-3.44571">
        <ele>-3.71</ele>
        <time>2016-05-01T06:12:32Z</time>
      </trkpt>
      <trkpt lat="47.6438" lon="-3.44569">
        <ele>-4.19</ele>
        <time>2016-05-01T06:13:05Z</time>
      </trkpt>
      <trkpt lat="47.6438" lon="-3.44569">
        <ele>-4.19</ele>
        <time>2016-05-01T06:13:38Z</time>
      </trkpt>
      <trkpt lat="47.64381" lon="-3.4457">
        <ele>-3.71</ele>
        <time>2016-05-01T06:14:21Z</time>
      </trkpt>
      <trkpt lat="47.64382" lon="-3.44571">
        <ele>-2.27</ele>
        <time>2016-05-01T06:14:51Z</time>
      </trkpt>
      <trkpt lat="47.64382" lon="-3.44572">
        <ele>-1.79</ele>
        <time>2016-05-01T06:15:32Z</time>
      </trkpt>
      <trkpt lat="47.64382" lon="-3.44571">
        <ele>-1.79</ele>
        <time>2016-05-01T06:15:59Z</time>
      </trkpt>
      <trkpt lat="47.64382" lon="-3.44571">
        <ele>-1.79</ele>
        <time>2016-05-01T06:16:32Z</time>
      </trkpt>
      <trkpt lat="47.64382" lon="-3.4457">
        <ele>-1.79</ele>
        <time>2016-05-01T06:17:00Z</time>
      </trkpt>
      <trkpt lat="47.64382" lon="-3.44571">
        <ele>-1.3</ele>
        <time>2016-05-01T06:17:41Z</time>
      </trkpt>
      <trkpt lat="47.64382" lon="-3.44572">
        <ele>-1.3</ele>
        <time>2016-05-01T06:18:10Z</time>
      </trkpt>
      <trkpt lat="47.64382" lon="-3.44573">
        <ele>-1.3</ele>
        <time>2016-05-01T06:18:49Z</time>
      </trkpt>
      <trkpt lat="47.64381" lon="-3.44572">
        <ele>-0.82</ele>
        <time>2016-05-01T06:19:23Z</time>
      </trkpt>
      <trkpt lat="47.64381" lon="-3.44572">
        <ele>0.14</ele>
        <time>2016-05-01T06:20:01Z</time>
      </trkpt>
      <trkpt lat="47.64382" lon="-3.44572">
        <ele>0.14</ele>
        <time>2016-05-01T06:20:36Z</time>
      </trkpt>
      <trkpt lat="47.64383" lon="-3.44572">
        <ele>0.14</ele>
        <time>2016-05-01T06:21:11Z</time>
      </trkpt>
      <trkpt lat="47.64382" lon="-3.44571">
        <ele>1.58</ele>
        <time>2016-05-01T06:21:45Z</time>
      </trkpt>
      <trkpt lat="47.64382" lon="-3.44572">
        <ele>2.06</ele>
        <time>2016-05-01T06:22:14Z</time>
      </trkpt>
      <trkpt lat="47.64382" lon="-3.44571">
        <ele>1.58</ele>
        <time>2016-05-01T06:22:44Z</time>
      </trkpt>
      <trkpt lat="47.64381" lon="-3.44571">
        <ele>2.06</ele>
        <time>2016-05-01T06:23:21Z</time>
      </trkpt>
      <trkpt lat="47.64382" lon="-3.4457">
        <ele>3.02</ele>
        <time>2016-05-01T06:23:55Z</time>
      </trkpt>
      <trkpt lat="47.64381" lon="-3.4457">
        <ele>3.5</ele>
        <time>2016-05-01T06:24:24Z</time>
      </trkpt>
      <trkpt lat="47.64381" lon="-3.4457">
        <ele>3.5</ele>
        <time>2016-05-01T06:24:52Z</time>
      </trkpt>
      <trkpt lat="47.64381" lon="-3.44571">
        <ele>3.02</ele>
        <time>2016-05-01T06:25:23Z</time>
      </trkpt>
      <trkpt lat="47.64381" lon="-3.44571">
        <ele>3.5</ele>
        <time>2016-05-01T06:25:44Z</time>
      </trkpt>
      <trkpt lat="47.6438" lon="-3.4457">
        <ele>3.5</ele>
        <time>2016-05-01T06:26:05Z</time>
      </trkpt>
      <trkpt lat="47.6438" lon="-3.44571">
        <ele>3.5</ele>
        <time>2016-05-01T06:26:29Z</time>
      </trkpt>
      <trkpt lat="47.64381" lon="-3.44569">
        <ele>3.98</ele>
        <time>2016-05-01T06:27:01Z</time>
      </trkpt>
      <trkpt lat="47.64381" lon="-3.44569">
        <ele>3.5</ele>
        <time>2016-05-01T06:27:33Z</time>
      </trkpt>
      <trkpt lat="47.64382" lon="-3.4457">
        <ele>3.5</ele>
        <time>2016-05-01T06:28:06Z</time>
      </trkpt>
      <trkpt lat="47.64382" lon="-3.4457">
        <ele>3.02</ele>
        <time>2016-05-01T06:28:38Z</time>
      </trkpt>
      <trkpt lat="47.64382" lon="-3.4457">
        <ele>2.54</ele>
        <time>2016-05-01T06:29:12Z</time>
      </trkpt>
      <trkpt lat="47.64382" lon="-3.44572">
        <ele>3.02</ele>
        <time>2016-05-01T06:29:41Z</time>
      </trkpt>
      <trkpt lat="47.64383" lon="-3.44573">
        <ele>3.5</ele>
        <time>2016-05-01T06:30:09Z</time>
      </trkpt>
      <trkpt lat="47.64383" lon="-3.44571">
        <ele>3.02</ele>
        <time>2016-05-01T06:30:41Z</time>
      </trkpt>
      <trkpt lat="47.64382" lon="-3.44571">
        <ele>3.5</ele>
        <time>2016-05-01T06:31:16Z</time>
      </trkpt>
      <trkpt lat="47.64383" lon="-3.44572">
        <ele>3.5</ele>
        <time>2016-05-01T06:31:45Z</time>
      </trkpt>
      <trkpt lat="47.64383" lon="-3.44572">
        <ele>3.02</ele>
        <time>2016-05-01T06:32:18Z</time>
      </trkpt>
      <trkpt lat="47.64383" lon="-3.44572">
        <ele>3.02</ele>
        <time>2016-05-01T06:32:45Z</time>
      </trkpt>
      <trkpt lat="47.64384" lon="-3.44571">
        <ele>3.02</ele>
        <time>2016-05-01T06:33:21Z</time>
      </trkpt>
      <trkpt lat="47.64383" lon="-3.4457">
        <ele>2.54</ele>
        <time>2016-05-01T06:33:55Z</time>
      </trkpt>
      <trkpt lat="47.64383" lon="-3.44571">
        <ele>2.54</ele>
        <time>2016-05-01T06:34:19Z</time>
      </trkpt>
      <trkpt lat="47.64383" lon="-3.44571">
        <ele>2.06</ele>
        <time>2016-05-01T06:34:50Z</time>
      </trkpt>
      <trkpt lat="47.64383" lon="-3.44571">
        <ele>2.06</ele>
        <time>2016-05-01T06:35:27Z</time>
      </trkpt>
      <trkpt lat="47.64383" lon="-3.4457">
        <ele>2.06</ele>
        <time>2016-05-01T06:35:57Z</time>
      </trkpt>
      <trkpt lat="47.64383" lon="-3.4457">
        <ele>2.06</ele>
        <time>2016-05-01T06:36:17Z</time>
      </trkpt>
      <trkpt lat="47.64382" lon="-3.4457">
        <ele>1.58</ele>
        <time>2016-05-01T06:36:39Z</time>
      </trkpt>
      <trkpt lat="47.64381" lon="-3.4457">
        <ele>1.1</ele>
        <time>2016-05-01T06:37:00Z</time>
      </trkpt>
      <trkpt lat="47.64381" lon="-3.4457">
        <ele>0.62</ele>
        <time>2016-05-01T06:37:25Z</time>
      </trkpt>
      <trkpt lat="47.64381" lon="-3.4457">
        <ele>1.1</ele>
        <time>2016-05-01T06:37:49Z</time>
      </trkpt>
      <trkpt lat="47.64381" lon="-3.4457">
        <ele>1.1</ele>
        <time>2016-05-01T06:38:17Z</time>
      </trkpt>
      <trkpt lat="47.64381" lon="-3.4457">
        <ele>1.1</ele>
        <time>2016-05-01T06:38:43Z</time>
      </trkpt>
      <trkpt lat="47.64382" lon="-3.4457">
        <ele>0.62</ele>
        <time>2016-05-01T06:39:09Z</time>
      </trkpt>
      <trkpt lat="47.64383" lon="-3.4457">
        <ele>1.58</ele>
        <time>2016-05-01T06:39:38Z</time>
      </trkpt>
      <trkpt lat="47.64382" lon="-3.4457">
        <ele>1.58</ele>
        <time>2016-05-01T06:40:14Z</time>
      </trkpt>
      <trkpt lat="47.64382" lon="-3.4457">
        <ele>1.58</ele>
        <time>2016-05-01T06:40:47Z</time>
      </trkpt>
      <trkpt lat="47.64382" lon="-3.4457">
        <ele>2.06</ele>
        <time>2016-05-01T06:41:18Z</time>
      </trkpt>
      <trkpt lat="47.64382" lon="-3.4457">
        <ele>2.06</ele>
        <time>2016-05-01T06:41:52Z</time>
      </trkpt>
      <trkpt lat="47.64382" lon="-3.4457">
        <ele>2.06</ele>
        <time>2016-05-01T06:42:21Z</time>
      </trkpt>
      <trkpt lat="47.64381" lon="-3.4457">
        <ele>1.58</ele>
        <time>2016-05-01T06:42:48Z</time>
      </trkpt>
      <trkpt lat="47.64381" lon="-3.4457">
        <ele>2.06</ele>
        <time>2016-05-01T06:43:20Z</time>
      </trkpt>
      <trkpt lat="47.64382" lon="-3.44568">
        <ele>2.54</ele>
        <time>2016-05-01T06:43:52Z</time>
      </trkpt>
      <trkpt lat="47.64382" lon="-3.44569">
        <ele>2.06</ele>
        <time>2016-05-01T06:44:17Z</time>
      </trkpt>
      <trkpt lat="47.64382" lon="-3.44569">
        <ele>1.58</ele>
        <time>2016-05-01T06:44:52Z</time>
      </trkpt>
      <trkpt lat="47.64381" lon="-3.4457">
        <ele>1.58</ele>
        <time>2016-05-01T06:45:19Z</time>
      </trkpt>
      <trkpt lat="47.64381" lon="-3.4457">
        <ele>1.1</ele>
        <time>2016-05-01T06:45:43Z</time>
      </trkpt>
      <trkpt lat="47.64381" lon="-3.44571">
        <ele>1.58</ele>
        <time>2016-05-01T06:46:09Z</time>
      </trkpt>
      <trkpt lat="47.64381" lon="-3.4457">
        <ele>1.1</ele>
        <time>2016-05-01T06:46:29Z</time>
      </trkpt>
      <trkpt lat="47.64381" lon="-3.4457">
        <ele>1.1</ele>
        <time>2016-05-01T06:46:51Z</time>
      </trkpt>
      <trkpt lat="47.64381" lon="-3.4457">
        <ele>1.1</ele>
        <time>2016-05-01T06:47:21Z</time>
      </trkpt>
      <trkpt lat="47.64381" lon="-3.44571">
        <ele>1.58</ele>
        <time>2016-05-01T06:47:50Z</time>
      </trkpt>
      <trkpt lat="47.64382" lon="-3.4457">
        <ele>1.58</ele>
        <time>2016-05-01T06:48:16Z</time>
      </trkpt>
      <trkpt lat="47.64381" lon="-3.44569">
        <ele>1.58</ele>
        <time>2016-05-01T06:48:39Z</time>
      </trkpt>
      <trkpt lat="47.6438" lon="-3.44569">
        <ele>2.54</ele>
        <time>2016-05-01T06:49:07Z</time>
      </trkpt>
      <trkpt lat="47.6438" lon="-3.44569">
        <ele>2.54</ele>
        <time>2016-05-01T06:49:32Z</time>
      </trkpt>
      <trkpt lat="47.64381" lon="-3.44568">
        <ele>3.02</ele>
        <time>2016-05-01T06:49:59Z</time>
      </trkpt>
      <trkpt lat="47.6438" lon="-3.44568">
        <ele>2.54</ele>
        <time>2016-05-01T06:50:19Z</time>
      </trkpt>
      <trkpt lat="47.6438" lon="-3.44569">
        <ele>3.02</ele>
        <time>2016-05-01T06:50:45Z</time>
      </trkpt>
      <trkpt lat="47.64381" lon="-3.4457">
        <ele>2.54</ele>
        <time>2016-05-01T06:51:11Z</time>
      </trkpt>
      <trkpt lat="47.64381" lon="-3.4457">
        <ele>2.06</ele>
        <time>2016-05-01T06:51:39Z</time>
      </trkpt>
      <trkpt lat="47.64382" lon="-3.4457">
        <ele>2.06</ele>
        <time>2016-05-01T06:52:00Z</time>
      </trkpt>
      <trkpt lat="47.64382" lon="-3.44569">
        <ele>2.54</ele>
        <time>2016-05-01T06:52:25Z</time>
      </trkpt>
      <trkpt lat="47.64382" lon="-3.4457">
        <ele>3.02</ele>
        <time>2016-05-01T06:52:49Z</time>
      </trkpt>
      <trkpt lat="47.64382" lon="-3.4457">
        <ele>2.54</ele>
        <time>2016-05-01T06:53:13Z</time>
      </trkpt>
      <trkpt lat="47.64381" lon="-3.4457">
        <ele>2.54</ele>
        <time>2016-05-01T06:53:43Z</time>
      </trkpt>
      <trkpt lat="47.64381" lon="-3.44571">
        <ele>1.58</ele>
        <time>2016-05-01T06:54:10Z</time>
      </trkpt>
      <trkpt lat="47.64381" lon="-3.44572">
        <ele>1.1</ele>
        <time>2016-05-01T06:54:39Z</time>
      </trkpt>
      <trkpt lat="47.64381" lon="-3.44572">
        <ele>1.58</ele>
        <time>2016-05-01T06:55:08Z</time>
      </trkpt>
      <trkpt lat="47.64381" lon="-3.44573">
        <ele>1.58</ele>
        <time>2016-05-01T06:55:36Z</time>
      </trkpt>
      <trkpt lat="47.6438" lon="-3.44573">
        <ele>1.58</ele>
        <time>2016-05-01T06:56:00Z</time>
      </trkpt>
      <trkpt lat="47.6438" lon="-3.44572">
        <ele>1.58</ele>
        <time>2016-05-01T06:56:26Z</time>
      </trkpt>
      <trkpt lat="47.6438" lon="-3.44572">
        <ele>1.1</ele>
        <time>2016-05-01T06:56:50Z</time>
      </trkpt>
      <trkpt lat="47.6438" lon="-3.44572">
        <ele>1.58</ele>
        <time>2016-05-01T06:57:15Z</time>
      </trkpt>
      <trkpt lat="47.6438" lon="-3.44571">
        <ele>1.1</ele>
        <time>2016-05-01T06:57:44Z</time>
      </trkpt>
      <trkpt lat="47.6438" lon="-3.44572">
        <ele>2.06</ele>
        <time>2016-05-01T06:58:11Z</time>
      </trkpt>
      <trkpt lat="47.6438" lon="-3.44572">
        <ele>2.06</ele>
        <time>2016-05-01T06:58:36Z</time>
      </trkpt>
      <trkpt lat="47.64379" lon="-3.44572">
        <ele>2.54</ele>
        <time>2016-05-01T06:59:03Z</time>
      </trkpt>
      <trkpt lat="47.64378" lon="-3.44572">
        <ele>2.54</ele>
        <time>2016-05-01T06:59:28Z</time>
      </trkpt>
      <trkpt lat="47.64378" lon="-3.44571">
        <ele>1.58</ele>
        <time>2016-05-01T07:00:00Z</time>
      </trkpt>
      <trkpt lat="47.64378" lon="-3.44571">
        <ele>2.54</ele>
        <time>2016-05-01T07:00:29Z</time>
      </trkpt>
      <trkpt lat="47.64379" lon="-3.44571">
        <ele>2.54</ele>
        <time>2016-05-01T07:00:53Z</time>
      </trkpt>
      <trkpt lat="47.64379" lon="-3.44571">
        <ele>3.02</ele>
        <time>2016-05-01T07:01:22Z</time>
      </trkpt>
      <trkpt lat="47.64379" lon="-3.44571">
        <ele>3.98</ele>
        <time>2016-05-01T07:01:51Z</time>
      </trkpt>
      <trkpt lat="47.64379" lon="-3.44571">
        <ele>3.5</ele>
        <time>2016-05-01T07:02:14Z</time>
      </trkpt>
      <trkpt lat="47.6438" lon="-3.44572">
        <ele>3.5</ele>
        <time>2016-05-01T07:02:38Z</time>
      </trkpt>
      <trkpt lat="47.6438" lon="-3.44573">
        <ele>3.02</ele>
        <time>2016-05-01T07:03:03Z</time>
      </trkpt>
      <trkpt lat="47.64381" lon="-3.44573">
        <ele>4.46</ele>
        <time>2016-05-01T07:03:43Z</time>
      </trkpt>
      <trkpt lat="47.64381" lon="-3.44572">
        <ele>4.46</ele>
        <time>2016-05-01T07:04:14Z</time>
      </trkpt>
      <trkpt lat="47.64381" lon="-3.44572">
        <ele>3.98</ele>
        <time>2016-05-01T07:04:48Z</time>
      </trkpt>
      <trkpt lat="47.6438" lon="-3.44572">
        <ele>4.46</ele>
        <time>2016-05-01T07:05:30Z</time>
      </trkpt>
      <trkpt lat="47.64381" lon="-3.44573">
        <ele>3.02</ele>
        <time>2016-05-01T07:06:10Z</time>
      </trkpt>
      <trkpt lat="47.64381" lon="-3.44572">
        <ele>3.98</ele>
        <time>2016-05-01T07:06:49Z</time>
      </trkpt>
      <trkpt lat="47.64381" lon="-3.44572">
        <ele>3.02</ele>
        <time>2016-05-01T07:07:20Z</time>
      </trkpt>
      <trkpt lat="47.64381" lon="-3.44571">
        <ele>2.06</ele>
        <time>2016-05-01T07:08:00Z</time>
      </trkpt>
      <trkpt lat="47.64382" lon="-3.44572">
        <ele>1.58</ele>
        <time>2016-05-01T07:08:39Z</time>
      </trkpt>
      <trkpt lat="47.64381" lon="-3.44571">
        <ele>1.58</ele>
        <time>2016-05-01T07:09:25Z</time>
      </trkpt>
      <trkpt lat="47.64383" lon="-3.44571">
        <ele>2.06</ele>
        <time>2016-05-01T07:10:11Z</time>
      </trkpt>
      <trkpt lat="47.64382" lon="-3.4457">
        <ele>2.06</ele>
        <time>2016-05-01T07:10:56Z</time>
      </trkpt>
      <trkpt lat="47.64382" lon="-3.4457">
        <ele>1.58</ele>
        <time>2016-05-01T07:11:47Z</time>
      </trkpt>
      <trkpt lat="47.6438" lon="-3.44571">
        <ele>2.54</ele>
        <time>2016-05-01T07:12:39Z</time>
      </trkpt>
      <trkpt lat="47.64381" lon="-3.44571">
        <ele>2.54</ele>
        <time>2016-05-01T07:13:17Z</time>
      </trkpt>
      <trkpt lat="47.64381" lon="-3.4457">
        <ele>2.06</ele>
        <time>2016-05-01T07:14:06Z</time>
      </trkpt>
      <trkpt lat="47.64382" lon="-3.44569">
        <ele>1.1</ele>
        <time>2016-05-01T07:14:44Z</time>
      </trkpt>
      <trkpt lat="47.64382" lon="-3.44569">
        <ele>1.1</ele>
        <time>2016-05-01T07:15:21Z</time>
      </trkpt>
      <trkpt lat="47.64381" lon="-3.44569">
        <ele>2.06</ele>
        <time>2016-05-01T07:16:06Z</time>
      </trkpt>
      <trkpt lat="47.64381" lon="-3.44569">
        <ele>1.58</ele>
        <time>2016-05-01T07:16:50Z</time>
      </trkpt>
      <trkpt lat="47.64381" lon="-3.4457">
        <ele>1.58</ele>
        <time>2016-05-01T07:17:22Z</time>
      </trkpt>
      <trkpt lat="47.64381" lon="-3.4457">
        <ele>1.58</ele>
        <time>2016-05-01T07:18:06Z</time>
      </trkpt>
      <trkpt lat="47.64381" lon="-3.4457">
        <ele>1.1</ele>
        <time>2016-05-01T07:18:48Z</time>
      </trkpt>
      <trkpt lat="47.64381" lon="-3.44571">
        <ele>0.62</ele>
        <time>2016-05-01T07:19:22Z</time>
      </trkpt>
      <trkpt lat="47.64381" lon="-3.44571">
        <ele>0.62</ele>
        <time>2016-05-01T07:20:09Z</time>
      </trkpt>
      <trkpt lat="47.64382" lon="-3.44569">
        <ele>0.62</ele>
        <time>2016-05-01T07:21:00Z</time>
      </trkpt>
      <trkpt lat="47.64383" lon="-3.44568">
        <ele>0.14</ele>
        <time>2016-05-01T07:21:52Z</time>
      </trkpt>
      <trkpt lat="47.64383" lon="-3.44568">
        <ele>-0.34</ele>
        <time>2016-05-01T07:22:37Z</time>
      </trkpt>
      <trkpt lat="47.64384" lon="-3.44568">
        <ele>0.62</ele>
        <time>2016-05-01T07:23:20Z</time>
      </trkpt>
      <trkpt lat="47.64383" lon="-3.44567">
        <ele>1.1</ele>
        <time>2016-05-01T07:23:54Z</time>
      </trkpt>
      <trkpt lat="47.64383" lon="-3.44568">
        <ele>0.62</ele>
        <time>2016-05-01T07:24:28Z</time>
      </trkpt>
      <trkpt lat="47.64383" lon="-3.44568">
        <ele>1.58</ele>
        <time>2016-05-01T07:25:02Z</time>
      </trkpt>
      <trkpt lat="47.64384" lon="-3.44568">
        <ele>1.58</ele>
        <time>2016-05-01T07:25:46Z</time>
      </trkpt>
      <trkpt lat="47.64384" lon="-3.44568">
        <ele>1.58</ele>
        <time>2016-05-01T07:26:21Z</time>
      </trkpt>
      <trkpt lat="47.64383" lon="-3.44568">
        <ele>0.62</ele>
        <time>2016-05-01T07:26:56Z</time>
      </trkpt>
      <trkpt lat="47.64383" lon="-3.44568">
        <ele>0.62</ele>
        <time>2016-05-01T07:27:33Z</time>
      </trkpt>
      <trkpt lat="47.64383" lon="-3.44568">
        <ele>1.1</ele>
        <time>2016-05-01T07:28:12Z</time>
      </trkpt>
      <trkpt lat="47.64384" lon="-3.44569">
        <ele>0.62</ele>
        <time>2016-05-01T07:28:55Z</time>
      </trkpt>
      <trkpt lat="47.64384" lon="-3.44568">
        <ele>1.1</ele>
        <time>2016-05-01T07:29:35Z</time>
      </trkpt>
      <trkpt lat="47.64384" lon="-3.44568">
        <ele>0.62</ele>
        <time>2016-05-01T07:30:10Z</time>
      </trkpt>
      <trkpt lat="47.64384" lon="-3.44567">
        <ele>1.1</ele>
        <time>2016-05-01T07:30:48Z</time>
      </trkpt>
      <trkpt lat="47.64384" lon="-3.44568">
        <ele>1.1</ele>
        <time>2016-05-01T07:31:30Z</time>
      </trkpt>
      <trkpt lat="47.64384" lon="-3.44568">
        <ele>1.58</ele>
        <time>2016-05-01T07:32:15Z</time>
      </trkpt>
      <trkpt lat="47.64385" lon="-3.44567">
        <ele>1.58</ele>
        <time>2016-05-01T07:32:49Z</time>
      </trkpt>
      <trkpt lat="47.64385" lon="-3.44568">
        <ele>2.06</ele>
        <time>2016-05-01T07:33:24Z</time>
      </trkpt>
      <trkpt lat="47.64384" lon="-3.44569">
        <ele>2.06</ele>
        <time>2016-05-01T07:33:58Z</time>
      </trkpt>
      <trkpt lat="47.64384" lon="-3.44568">
        <ele>2.06</ele>
        <time>2016-05-01T07:34:32Z</time>
      </trkpt>
      <trkpt lat="47.64383" lon="-3.44568">
        <ele>2.54</ele>
        <time>2016-05-01T07:35:09Z</time>
      </trkpt>
      <trkpt lat="47.64384" lon="-3.4457">
        <ele>2.06</ele>
        <time>2016-05-01T07:35:47Z</time>
      </trkpt>
      <trkpt lat="47.64383" lon="-3.44571">
        <ele>2.06</ele>
        <time>2016-05-01T07:36:25Z</time>
      </trkpt>
      <trkpt lat="47.64382" lon="-3.44571">
        <ele>2.06</ele>
        <time>2016-05-01T07:36:57Z</time>
      </trkpt>
      <trkpt lat="47.64382" lon="-3.44571">
        <ele>2.06</ele>
        <time>2016-05-01T07:37:34Z</time>
      </trkpt>
      <trkpt lat="47.64382" lon="-3.44571">
        <ele>2.54</ele>
        <time>2016-05-01T07:38:07Z</time>
      </trkpt>
      <trkpt lat="47.64382" lon="-3.44572">
        <ele>2.06</ele>
        <time>2016-05-01T07:38:40Z</time>
      </trkpt>
      <trkpt lat="47.64381" lon="-3.44572">
        <ele>2.06</ele>
        <time>2016-05-01T07:39:12Z</time>
      </trkpt>
      <trkpt lat="47.64381" lon="-3.44572">
        <ele>1.58</ele>
        <time>2016-05-01T07:39:45Z</time>
      </trkpt>
      <trkpt lat="47.64381" lon="-3.44572">
        <ele>2.06</ele>
        <time>2016-05-01T07:40:13Z</time>
      </trkpt>
      <trkpt lat="47.64381" lon="-3.44572">
        <ele>2.06</ele>
        <time>2016-05-01T07:40:49Z</time>
      </trkpt>
      <trkpt lat="47.6438" lon="-3.44572">
        <ele>2.54</ele>
        <time>2016-05-01T07:41:19Z</time>
      </trkpt>
      <trkpt lat="47.6438" lon="-3.44572">
        <ele>2.06</ele>
        <time>2016-05-01T07:41:42Z</time>
      </trkpt>
      <trkpt lat="47.6438" lon="-3.44572">
        <ele>2.06</ele>
        <time>2016-05-01T07:42:03Z</time>
      </trkpt>
      <trkpt lat="47.6438" lon="-3.44572">
        <ele>2.54</ele>
        <time>2016-05-01T07:42:33Z</time>
      </trkpt>
      <trkpt lat="47.6438" lon="-3.44571">
        <ele>3.02</ele>
        <time>2016-05-01T07:43:01Z</time>
      </trkpt>
      <trkpt lat="47.6438" lon="-3.44571">
        <ele>3.5</ele>
        <time>2016-05-01T07:43:32Z</time>
      </trkpt>
      <trkpt lat="47.6438" lon="-3.44571">
        <ele>3.98</ele>
        <time>2016-05-01T07:43:59Z</time>
      </trkpt>
      <trkpt lat="47.64381" lon="-3.4457">
        <ele>3.98</ele>
        <time>2016-05-01T07:44:26Z</time>
      </trkpt>
      <trkpt lat="47.6438" lon="-3.4457">
        <ele>4.46</ele>
        <time>2016-05-01T07:44:57Z</time>
      </trkpt>
      <trkpt lat="47.64381" lon="-3.4457">
        <ele>3.5</ele>
        <time>2016-05-01T07:45:24Z</time>
      </trkpt>
      <trkpt lat="47.64382" lon="-3.4457">
        <ele>3.5</ele>
        <time>2016-05-01T07:45:57Z</time>
      </trkpt>
      <trkpt lat="47.64381" lon="-3.44571">
        <ele>3.98</ele>
        <time>2016-05-01T07:46:28Z</time>
      </trkpt>
      <trkpt lat="47.64382" lon="-3.4457">
        <ele>3.98</ele>
        <time>2016-05-01T07:47:04Z</time>
      </trkpt>
      <trkpt lat="47.64382" lon="-3.44569">
        <ele>4.46</ele>
        <time>2016-05-01T07:47:39Z</time>
      </trkpt>
      <trkpt lat="47.64382" lon="-3.4457">
        <ele>3.98</ele>
        <time>2016-05-01T07:48:11Z</time>
      </trkpt>
      <trkpt lat="47.64382" lon="-3.4457">
        <ele>3.98</ele>
        <time>2016-05-01T07:48:44Z</time>
      </trkpt>
      <trkpt lat="47.64382" lon="-3.4457">
        <ele>4.46</ele>
        <time>2016-05-01T07:49:17Z</time>
      </trkpt>
      <trkpt lat="47.64382" lon="-3.4457">
        <ele>4.46</ele>
        <time>2016-05-01T07:49:48Z</time>
      </trkpt>
      <trkpt lat="47.64382" lon="-3.4457">
        <ele>5.42</ele>
        <time>2016-05-01T07:50:25Z</time>
      </trkpt>
      <trkpt lat="47.64382" lon="-3.4457">
        <ele>5.42</ele>
        <time>2016-05-01T07:51:02Z</time>
      </trkpt>
      <trkpt lat="47.64381" lon="-3.4457">
        <ele>5.91</ele>
        <time>2016-05-01T07:51:37Z</time>
      </trkpt>
      <trkpt lat="47.64382" lon="-3.44571">
        <ele>7.35</ele>
        <time>2016-05-01T07:52:13Z</time>
      </trkpt>
      <trkpt lat="47.64382" lon="-3.44571">
        <ele>7.35</ele>
        <time>2016-05-01T07:52:49Z</time>
      </trkpt>
      <trkpt lat="47.64382" lon="-3.44571">
        <ele>7.35</ele>
        <time>2016-05-01T07:53:22Z</time>
      </trkpt>
      <trkpt lat="47.64382" lon="-3.44571">
        <ele>7.35</ele>
        <time>2016-05-01T07:54:00Z</time>
      </trkpt>
      <trkpt lat="47.64382" lon="-3.44572">
        <ele>6.87</ele>
        <time>2016-05-01T07:54:30Z</time>
      </trkpt>
      <trkpt lat="47.64382" lon="-3.44572">
        <ele>6.39</ele>
        <time>2016-05-01T07:55:09Z</time>
      </trkpt>
      <trkpt lat="47.64381" lon="-3.44572">
        <ele>6.39</ele>
        <time>2016-05-01T07:55:47Z</time>
      </trkpt>
      <trkpt lat="47.64381" lon="-3.44573">
        <ele>6.39</ele>
        <time>2016-05-01T07:56:31Z</time>
      </trkpt>
      <trkpt lat="47.64381" lon="-3.44573">
        <ele>5.91</ele>
        <time>2016-05-01T07:57:04Z</time>
      </trkpt>
      <trkpt lat="47.64381" lon="-3.44572">
        <ele>4.94</ele>
        <time>2016-05-01T07:57:50Z</time>
      </trkpt>
      <trkpt lat="47.64381" lon="-3.44571">
        <ele>4.94</ele>
        <time>2016-05-01T07:58:22Z</time>
      </trkpt>
      <trkpt lat="47.64382" lon="-3.44573">
        <ele>2.54</ele>
        <time>2016-05-01T07:59:01Z</time>
      </trkpt>
      <trkpt lat="47.64381" lon="-3.44572">
        <ele>2.06</ele>
        <time>2016-05-01T07:59:44Z</time>
      </trkpt>
      <trkpt lat="47.6438" lon="-3.44572">
        <ele>2.06</ele>
        <time>2016-05-01T08:00:17Z</time>
      </trkpt>
      <trkpt lat="47.6438" lon="-3.44572">
        <ele>3.02</ele>
        <time>2016-05-01T08:00:51Z</time>
      </trkpt>
      <trkpt lat="47.6438" lon="-3.44572">
        <ele>3.02</ele>
        <time>2016-05-01T08:01:24Z</time>
      </trkpt>
      <trkpt lat="47.64381" lon="-3.44572">
        <ele>2.06</ele>
        <time>2016-05-01T08:02:04Z</time>
      </trkpt>
      <trkpt lat="47.64381" lon="-3.44572">
        <ele>2.06</ele>
        <time>2016-05-01T08:02:36Z</time>
      </trkpt>
      <trkpt lat="47.64382" lon="-3.44571">
        <ele>1.58</ele>
        <time>2016-05-01T08:03:15Z</time>
      </trkpt>
      <trkpt lat="47.64381" lon="-3.44572">
        <ele>0.62</ele>
        <time>2016-05-01T08:03:52Z</time>
      </trkpt>
      <trkpt lat="47.64381" lon="-3.44573">
        <ele>0.62</ele>
        <time>2016-05-01T08:04:27Z</time>
      </trkpt>
      <trkpt lat="47.64381" lon="-3.44573">
        <ele>1.58</ele>
        <time>2016-05-01T08:05:02Z</time>
      </trkpt>
      <trkpt lat="47.64381" lon="-3.44573">
        <ele>1.58</ele>
        <time>2016-05-01T08:05:42Z</time>
      </trkpt>
      <trkpt lat="47.64381" lon="-3.44573">
        <ele>2.06</ele>
        <time>2016-05-01T08:06:12Z</time>
      </trkpt>
      <trkpt lat="47.64382" lon="-3.44573">
        <ele>2.06</ele>
        <time>2016-05-01T08:06:46Z</time>
      </trkpt>
      <trkpt lat="47.64381" lon="-3.44573">
        <ele>1.58</ele>
        <time>2016-05-01T08:07:19Z</time>
      </trkpt>
      <trkpt lat="47.64381" lon="-3.44573">
        <ele>1.58</ele>
        <time>2016-05-01T08:07:51Z</time>
      </trkpt>
      <trkpt lat="47.64381" lon="-3.44574">
        <ele>1.58</ele>
        <time>2016-05-01T08:08:26Z</time>
      </trkpt>
      <trkpt lat="47.64381" lon="-3.44573">
        <ele>2.06</ele>
        <time>2016-05-01T08:09:07Z</time>
      </trkpt>
      <trkpt lat="47.64381" lon="-3.44572">
        <ele>1.58</ele>
        <time>2016-05-01T08:09:39Z</time>
      </trkpt>
      <trkpt lat="47.64381" lon="-3.44572">
        <ele>1.1</ele>
        <time>2016-05-01T08:10:12Z</time>
      </trkpt>
      <trkpt lat="47.64381" lon="-3.44572">
        <ele>0.62</ele>
        <time>2016-05-01T08:10:47Z</time>
      </trkpt>
      <trkpt lat="47.64381" lon="-3.44572">
        <ele>0.62</ele>
        <time>2016-05-01T08:11:22Z</time>
      </trkpt>
      <trkpt lat="47.6438" lon="-3.44573">
        <ele>1.1</ele>
        <time>2016-05-01T08:12:00Z</time>
      </trkpt>
      <trkpt lat="47.64381" lon="-3.44573">
        <ele>1.1</ele>
        <time>2016-05-01T08:12:34Z</time>
      </trkpt>
      <trkpt lat="47.64381" lon="-3.44573">
        <ele>2.06</ele>
        <time>2016-05-01T08:13:08Z</time>
      </trkpt>
      <trkpt lat="47.64381" lon="-3.44573">
        <ele>2.06</ele>
        <time>2016-05-01T08:13:45Z</time>
      </trkpt>
      <trkpt lat="47.64382" lon="-3.44572">
        <ele>2.54</ele>
        <time>2016-05-01T08:14:24Z</time>
      </trkpt>
      <trkpt lat="47.64382" lon="-3.44572">
        <ele>2.06</ele>
        <time>2016-05-01T08:14:49Z</time>
      </trkpt>
      <trkpt lat="47.64382" lon="-3.44574">
        <ele>3.02</ele>
        <time>2016-05-01T08:15:22Z</time>
      </trkpt>
      <trkpt lat="47.64381" lon="-3.44574">
        <ele>3.5</ele>
        <time>2016-05-01T08:16:03Z</time>
      </trkpt>
      <trkpt lat="47.64381" lon="-3.44573">
        <ele>4.46</ele>
        <time>2016-05-01T08:16:41Z</time>
      </trkpt>
      <trkpt lat="47.64382" lon="-3.44573">
        <ele>3.98</ele>
        <time>2016-05-01T08:17:17Z</time>
      </trkpt>
      <trkpt lat="47.64382" lon="-3.44574">
        <ele>3.5</ele>
        <time>2016-05-01T08:17:51Z</time>
      </trkpt>
      <trkpt lat="47.64382" lon="-3.44574">
        <ele>3.02</ele>
        <time>2016-05-01T08:18:28Z</time>
      </trkpt>
      <trkpt lat="47.64383" lon="-3.44574">
        <ele>2.54</ele>
        <time>2016-05-01T08:19:03Z</time>
      </trkpt>
      <trkpt lat="47.64382" lon="-3.44573">
        <ele>3.02</ele>
        <time>2016-05-01T08:19:44Z</time>
      </trkpt>
      <trkpt lat="47.64383" lon="-3.44572">
        <ele>3.02</ele>
        <time>2016-05-01T08:20:18Z</time>
      </trkpt>
      <trkpt lat="47.64383" lon="-3.44572">
        <ele>3.5</ele>
        <time>2016-05-01T08:20:50Z</time>
      </trkpt>
      <trkpt lat="47.64383" lon="-3.44572">
        <ele>3.02</ele>
        <time>2016-05-01T08:21:35Z</time>
      </trkpt>
      <trkpt lat="47.64383" lon="-3.44572">
        <ele>4.46</ele>
        <time>2016-05-01T08:22:15Z</time>
      </trkpt>
      <trkpt lat="47.64384" lon="-3.44572">
        <ele>4.46</ele>
        <time>2016-05-01T08:23:00Z</time>
      </trkpt>
      <trkpt lat="47.64385" lon="-3.44572">
        <ele>4.46</ele>
        <time>2016-05-01T08:23:48Z</time>
      </trkpt>
      <trkpt lat="47.64385" lon="-3.44571">
        <ele>4.46</ele>
        <time>2016-05-01T08:24:31Z</time>
      </trkpt>
      <trkpt lat="47.64384" lon="-3.44571">
        <ele>5.42</ele>
        <time>2016-05-01T08:25:10Z</time>
      </trkpt>
      <trkpt lat="47.64384" lon="-3.44571">
        <ele>4.46</ele>
        <time>2016-05-01T08:25:48Z</time>
      </trkpt>
      <trkpt lat="47.64384" lon="-3.4457">
        <ele>4.46</ele>
        <time>2016-05-01T08:26:24Z</time>
      </trkpt>
      <trkpt lat="47.64383" lon="-3.44569">
        <ele>4.94</ele>
        <time>2016-05-01T08:27:02Z</time>
      </trkpt>
      <trkpt lat="47.64383" lon="-3.44569">
        <ele>5.42</ele>
        <time>2016-05-01T08:27:42Z</time>
      </trkpt>
      <trkpt lat="47.64384" lon="-3.44568">
        <ele>3.98</ele>
        <time>2016-05-01T08:28:18Z</time>
      </trkpt>
      <trkpt lat="47.64384" lon="-3.44568">
        <ele>3.02</ele>
        <time>2016-05-01T08:28:55Z</time>
      </trkpt>
      <trkpt lat="47.64383" lon="-3.44569">
        <ele>3.02</ele>
        <time>2016-05-01T08:29:28Z</time>
      </trkpt>
      <trkpt lat="47.64382" lon="-3.44571">
        <ele>1.58</ele>
        <time>2016-05-01T08:30:08Z</time>
      </trkpt>
      <trkpt lat="47.64382" lon="-3.44569">
        <ele>2.06</ele>
        <time>2016-05-01T08:30:48Z</time>
      </trkpt>
      <trkpt lat="47.64381" lon="-3.44569">
        <ele>2.06</ele>
        <time>2016-05-01T08:31:18Z</time>
      </trkpt>
      <trkpt lat="47.64382" lon="-3.4457">
        <ele>1.58</ele>
        <time>2016-05-01T08:32:02Z</time>
      </trkpt>
      <trkpt lat="47.64383" lon="-3.4457">
        <ele>0.62</ele>
        <time>2016-05-01T08:32:38Z</time>
      </trkpt>
      <trkpt lat="47.64382" lon="-3.4457">
        <ele>0.14</ele>
        <time>2016-05-01T08:33:08Z</time>
      </trkpt>
      <trkpt lat="47.64382" lon="-3.4457">
        <ele>0.62</ele>
        <time>2016-05-01T08:33:45Z</time>
      </trkpt>
      <trkpt lat="47.64382" lon="-3.4457">
        <ele>0.62</ele>
        <time>2016-05-01T08:34:17Z</time>
      </trkpt>
      <trkpt lat="47.64382" lon="-3.4457">
        <ele>0.14</ele>
        <time>2016-05-01T08:34:51Z</time>
      </trkpt>
      <trkpt lat="47.64382" lon="-3.44571">
        <ele>-0.82</ele>
        <time>2016-05-01T08:35:38Z</time>
      </trkpt>
      <trkpt lat="47.64383" lon="-3.44571">
        <ele>-0.34</ele>
        <time>2016-05-01T08:36:15Z</time>
      </trkpt>
      <trkpt lat="47.64383" lon="-3.44571">
        <ele>0.14</ele>
        <time>2016-05-01T08:36:54Z</time>
      </trkpt>
      <trkpt lat="47.64384" lon="-3.44571">
        <ele>0.14</ele>
        <time>2016-05-01T08:37:32Z</time>
      </trkpt>
      <trkpt lat="47.64384" lon="-3.4457">
        <ele>0.62</ele>
        <time>2016-05-01T08:38:02Z</time>
      </trkpt>
      <trkpt lat="47.64384" lon="-3.44569">
        <ele>0.14</ele>
        <time>2016-05-01T08:38:29Z</time>
      </trkpt>
      <trkpt lat="47.64384" lon="-3.44569">
        <ele>1.1</ele>
        <time>2016-05-01T08:39:02Z</time>
      </trkpt>
      <trkpt lat="47.64384" lon="-3.4457">
        <ele>1.1</ele>
        <time>2016-05-01T08:39:30Z</time>
      </trkpt>
      <trkpt lat="47.64383" lon="-3.44569">
        <ele>2.06</ele>
        <time>2016-05-01T08:40:06Z</time>
      </trkpt>
      <trkpt lat="47.64383" lon="-3.4457">
        <ele>1.58</ele>
        <time>2016-05-01T08:40:29Z</time>
      </trkpt>
      <trkpt lat="47.64383" lon="-3.4457">
        <ele>1.58</ele>
        <time>2016-05-01T08:41:10Z</time>
      </trkpt>
      <trkpt lat="47.64383" lon="-3.44569">
        <ele>2.54</ele>
        <time>2016-05-01T08:41:50Z</time>
      </trkpt>
      <trkpt lat="47.64382" lon="-3.44569">
        <ele>2.54</ele>
        <time>2016-05-01T08:42:25Z</time>
      </trkpt>
      <trkpt lat="47.64383" lon="-3.4457">
        <ele>2.06</ele>
        <time>2016-05-01T08:42:55Z</time>
      </trkpt>
      <trkpt lat="47.64383" lon="-3.44569">
        <ele>2.06</ele>
        <time>2016-05-01T08:43:31Z</time>
      </trkpt>
      <trkpt lat="47.64382" lon="-3.44569">
        <ele>1.58</ele>
        <time>2016-05-01T08:44:02Z</time>
      </trkpt>
      <trkpt lat="47.64382" lon="-3.4457">
        <ele>0.62</ele>
        <time>2016-05-01T08:44:35Z</time>
      </trkpt>
      <trkpt lat="47.64382" lon="-3.4457">
        <ele>-0.34</ele>
        <time>2016-05-01T08:45:10Z</time>
      </trkpt>
      <trkpt lat="47.64383" lon="-3.4457">
        <ele>-0.34</ele>
        <time>2016-05-01T08:45:46Z</time>
      </trkpt>
      <trkpt lat="47.64383" lon="-3.44569">
        <ele>0.14</ele>
        <time>2016-05-01T08:46:20Z</time>
      </trkpt>
      <trkpt lat="47.64383" lon="-3.4457">
        <ele>0.14</ele>
        <time>2016-05-01T08:46:59Z</time>
      </trkpt>
      <trkpt lat="47.64382" lon="-3.4457">
        <ele>0.14</ele>
        <time>2016-05-01T08:47:39Z</time>
      </trkpt>
      <trkpt lat="47.64382" lon="-3.4457">
        <ele>0.14</ele>
        <time>2016-05-01T08:48:10Z</time>
      </trkpt>
      <trkpt lat="47.64382" lon="-3.4457">
        <ele>0.14</ele>
        <time>2016-05-01T08:48:40Z</time>
      </trkpt>
      <trkpt lat="47.64382" lon="-3.4457">
        <ele>-0.34</ele>
        <time>2016-05-01T08:49:21Z</time>
      </trkpt>
      <trkpt lat="47.64383" lon="-3.4457">
        <ele>-0.82</ele>
        <time>2016-05-01T08:49:55Z</time>
      </trkpt>
      <trkpt lat="47.64382" lon="-3.4457">
        <ele>-1.3</ele>
        <time>2016-05-01T08:50:29Z</time>
      </trkpt>
      <trkpt lat="47.64382" lon="-3.4457">
        <ele>-0.34</ele>
        <time>2016-05-01T08:51:08Z</time>
      </trkpt>
      <trkpt lat="47.64382" lon="-3.44571">
        <ele>-0.82</ele>
        <time>2016-05-01T08:51:47Z</time>
      </trkpt>
      <trkpt lat="47.64381" lon="-3.44571">
        <ele>-0.34</ele>
        <time>2016-05-01T08:52:25Z</time>
      </trkpt>
      <trkpt lat="47.64382" lon="-3.44571">
        <ele>-0.34</ele>
        <time>2016-05-01T08:53:01Z</time>
      </trkpt>
      <trkpt lat="47.64382" lon="-3.44571">
        <ele>-1.3</ele>
        <time>2016-05-01T08:53:29Z</time>
      </trkpt>
      <trkpt lat="47.64383" lon="-3.44571">
        <ele>-1.3</ele>
        <time>2016-05-01T08:54:04Z</time>
      </trkpt>
      <trkpt lat="47.64383" lon="-3.44571">
        <ele>-0.82</ele>
        <time>2016-05-01T08:54:25Z</time>
      </trkpt>
      <trkpt lat="47.64383" lon="-3.44571">
        <ele>-0.82</ele>
        <time>2016-05-01T08:54:58Z</time>
      </trkpt>
      <trkpt lat="47.64382" lon="-3.4457">
        <ele>-0.34</ele>
        <time>2016-05-01T08:55:26Z</time>
      </trkpt>
      <trkpt lat="47.64382" lon="-3.4457">
        <ele>-0.34</ele>
        <time>2016-05-01T08:56:02Z</time>
      </trkpt>
      <trkpt lat="47.64382" lon="-3.4457">
        <ele>0.14</ele>
        <time>2016-05-01T08:56:34Z</time>
      </trkpt>
      <trkpt lat="47.64383" lon="-3.4457">
        <ele>0.14</ele>
        <time>2016-05-01T08:57:17Z</time>
      </trkpt>
      <trkpt lat="47.64382" lon="-3.4457">
        <ele>0.62</ele>
        <time>2016-05-01T08:57:58Z</time>
      </trkpt>
      <trkpt lat="47.64382" lon="-3.4457">
        <ele>0.14</ele>
        <time>2016-05-01T08:58:33Z</time>
      </trkpt>
      <trkpt lat="47.64383" lon="-3.4457">
        <ele>-0.34</ele>
        <time>2016-05-01T08:59:05Z</time>
      </trkpt>
      <trkpt lat="47.64382" lon="-3.4457">
        <ele>-0.34</ele>
        <time>2016-05-01T08:59:37Z</time>
      </trkpt>
      <trkpt lat="47.64383" lon="-3.4457">
        <ele>0.14</ele>
        <time>2016-05-01T09:00:11Z</time>
      </trkpt>
      <trkpt lat="47.64383" lon="-3.44569">
        <ele>-0.34</ele>
        <time>2016-05-01T09:00:48Z</time>
      </trkpt>
      <trkpt lat="47.64383" lon="-3.44569">
        <ele>-0.34</ele>
        <time>2016-05-01T09:01:27Z</time>
      </trkpt>
      <trkpt lat="47.64383" lon="-3.4457">
        <ele>0.14</ele>
        <time>2016-05-01T09:02:05Z</time>
      </trkpt>
      <trkpt lat="47.64383" lon="-3.4457">
        <ele>-0.34</ele>
        <time>2016-05-01T09:02:49Z</time>
      </trkpt>
      <trkpt lat="47.64383" lon="-3.44569">
        <ele>0.62</ele>
        <time>2016-05-01T09:03:30Z</time>
      </trkpt>
      <trkpt lat="47.64383" lon="-3.4457">
        <ele>0.62</ele>
        <time>2016-05-01T09:04:08Z</time>
      </trkpt>
      <trkpt lat="47.64383" lon="-3.4457">
        <ele>0.62</ele>
        <time>2016-05-01T09:04:41Z</time>
      </trkpt>
      <trkpt lat="47.64382" lon="-3.4457">
        <ele>0.62</ele>
        <time>2016-05-01T09:05:14Z</time>
      </trkpt>
      <trkpt lat="47.64382" lon="-3.4457">
        <ele>0.14</ele>
        <time>2016-05-01T09:05:46Z</time>
      </trkpt>
      <trkpt lat="47.64382" lon="-3.44569">
        <ele>0.14</ele>
        <time>2016-05-01T09:06:18Z</time>
      </trkpt>
      <trkpt lat="47.64382" lon="-3.4457">
        <ele>-0.34</ele>
        <time>2016-05-01T09:06:58Z</time>
      </trkpt>
      <trkpt lat="47.64382" lon="-3.44569">
        <ele>-0.34</ele>
        <time>2016-05-01T09:07:32Z</time>
      </trkpt>
      <trkpt lat="47.64382" lon="-3.44569">
        <ele>0.62</ele>
        <time>2016-05-01T09:08:13Z</time>
      </trkpt>
      <trkpt lat="47.64382" lon="-3.44569">
        <ele>0.62</ele>
        <time>2016-05-01T09:08:49Z</time>
      </trkpt>
      <trkpt lat="47.64383" lon="-3.44569">
        <ele>0.62</ele>
        <time>2016-05-01T09:09:25Z</time>
      </trkpt>
      <trkpt lat="47.64382" lon="-3.4457">
        <ele>1.1</ele>
        <time>2016-05-01T09:09:51Z</time>
      </trkpt>
      <trkpt lat="47.64382" lon="-3.4457">
        <ele>1.1</ele>
        <time>2016-05-01T09:10:28Z</time>
      </trkpt>
      <trkpt lat="47.64382" lon="-3.4457">
        <ele>1.1</ele>
        <time>2016-05-01T09:10:55Z</time>
      </trkpt>
      <trkpt lat="47.64381" lon="-3.4457">
        <ele>0.62</ele>
        <time>2016-05-01T09:11:20Z</time>
      </trkpt>
      <trkpt lat="47.64382" lon="-3.44571">
        <ele>0.14</ele>
        <time>2016-05-01T09:11:53Z</time>
      </trkpt>
      <trkpt lat="47.64381" lon="-3.4457">
        <ele>0.14</ele>
        <time>2016-05-01T09:12:28Z</time>
      </trkpt>
      <trkpt lat="47.64382" lon="-3.44571">
        <ele>-0.34</ele>
        <time>2016-05-01T09:13:08Z</time>
      </trkpt>
      <trkpt lat="47.64382" lon="-3.44571">
        <ele>-0.34</ele>
        <time>2016-05-01T09:13:45Z</time>
      </trkpt>
      <trkpt lat="47.64382" lon="-3.44571">
        <ele>-0.34</ele>
        <time>2016-05-01T09:14:20Z</time>
      </trkpt>
      <trkpt lat="47.64382" lon="-3.44571">
        <ele>-0.34</ele>
        <time>2016-05-01T09:14:59Z</time>
      </trkpt>
      <trkpt lat="47.64382" lon="-3.44571">
        <ele>0.62</ele>
        <time>2016-05-01T09:15:36Z</time>
      </trkpt>
      <trkpt lat="47.64382" lon="-3.4457">
        <ele>0.62</ele>
        <time>2016-05-01T09:16:08Z</time>
      </trkpt>
      <trkpt lat="47.64382" lon="-3.44571">
        <ele>-0.34</ele>
        <time>2016-05-01T09:16:49Z</time>
      </trkpt>
      <trkpt lat="47.64382" lon="-3.44571">
        <ele>-0.82</ele>
        <time>2016-05-01T09:17:22Z</time>
      </trkpt>
      <trkpt lat="47.64382" lon="-3.44571">
        <ele>-0.34</ele>
        <time>2016-05-01T09:18:03Z</time>
      </trkpt>
      <trkpt lat="47.64382" lon="-3.44571">
        <ele>0.62</ele>
        <time>2016-05-01T09:18:37Z</time>
      </trkpt>
      <trkpt lat="47.64381" lon="-3.44572">
        <ele>0.14</ele>
        <time>2016-05-01T09:19:16Z</time>
      </trkpt>
      <trkpt lat="47.64381" lon="-3.44571">
        <ele>0.14</ele>
        <time>2016-05-01T09:19:51Z</time>
      </trkpt>
      <trkpt lat="47.64381" lon="-3.44571">
        <ele>0.14</ele>
        <time>2016-05-01T09:20:29Z</time>
      </trkpt>
      <trkpt lat="47.64382" lon="-3.44571">
        <ele>0.14</ele>
        <time>2016-05-01T09:21:13Z</time>
      </trkpt>
      <trkpt lat="47.64382" lon="-3.44571">
        <ele>-0.82</ele>
        <time>2016-05-01T09:21:51Z</time>
      </trkpt>
      <trkpt lat="47.64382" lon="-3.44572">
        <ele>-0.34</ele>
        <time>2016-05-01T09:22:24Z</time>
      </trkpt>
      <trkpt lat="47.64382" lon="-3.44571">
        <ele>0.62</ele>
        <time>2016-05-01T09:23:04Z</time>
      </trkpt>
      <trkpt lat="47.64382" lon="-3.44571">
        <ele>1.1</ele>
        <time>2016-05-01T09:23:50Z</time>
      </trkpt>
      <trkpt lat="47.64381" lon="-3.4457">
        <ele>0.62</ele>
        <time>2016-05-01T09:24:30Z</time>
      </trkpt>
      <trkpt lat="47.64382" lon="-3.44571">
        <ele>0.62</ele>
        <time>2016-05-01T09:25:10Z</time>
      </trkpt>
      <trkpt lat="47.64381" lon="-3.44571">
        <ele>0.14</ele>
        <time>2016-05-01T09:25:38Z</time>
      </trkpt>
      <trkpt lat="47.64381" lon="-3.44572">
        <ele>-0.34</ele>
        <time>2016-05-01T09:26:08Z</time>
      </trkpt>
      <trkpt lat="47.64381" lon="-3.44573">
        <ele>-0.34</ele>
        <time>2016-05-01T09:26:36Z</time>
      </trkpt>
      <trkpt lat="47.64381" lon="-3.44573">
        <ele>0.14</ele>
        <time>2016-05-01T09:27:10Z</time>
      </trkpt>
      <trkpt lat="47.64382" lon="-3.44572">
        <ele>0.14</ele>
        <time>2016-05-01T09:27:45Z</time>
      </trkpt>
      <trkpt lat="47.64382" lon="-3.44572">
        <ele>0.62</ele>
        <time>2016-05-01T09:28:23Z</time>
      </trkpt>
      <trkpt lat="47.64383" lon="-3.44571">
        <ele>0.62</ele>
        <time>2016-05-01T09:29:02Z</time>
      </trkpt>
      <trkpt lat="47.64382" lon="-3.44571">
        <ele>0.14</ele>
        <time>2016-05-01T09:29:35Z</time>
      </trkpt>
      <trkpt lat="47.64382" lon="-3.44572">
        <ele>-0.34</ele>
        <time>2016-05-01T09:30:12Z</time>
      </trkpt>
      <trkpt lat="47.64382" lon="-3.44572">
        <ele>-0.34</ele>
        <time>2016-05-01T09:30:49Z</time>
      </trkpt>
      <trkpt lat="47.64381" lon="-3.44573">
        <ele>-0.34</ele>
        <time>2016-05-01T09:31:24Z</time>
      </trkpt>
      <trkpt lat="47.64381" lon="-3.44573">
        <ele>-0.82</ele>
        <time>2016-05-01T09:32:01Z</time>
      </trkpt>
      <trkpt lat="47.64381" lon="-3.44572">
        <ele>-0.34</ele>
        <time>2016-05-01T09:32:37Z</time>
      </trkpt>
      <trkpt lat="47.64381" lon="-3.44572">
        <ele>-0.34</ele>
        <time>2016-05-01T09:33:20Z</time>
      </trkpt>
      <trkpt lat="47.64382" lon="-3.44571">
        <ele>-0.82</ele>
        <time>2016-05-01T09:34:00Z</time>
      </trkpt>
      <trkpt lat="47.64383" lon="-3.44571">
        <ele>-1.3</ele>
        <time>2016-05-01T09:34:32Z</time>
      </trkpt>
      <trkpt lat="47.64383" lon="-3.4457">
        <ele>-1.79</ele>
        <time>2016-05-01T09:35:10Z</time>
      </trkpt>
      <trkpt lat="47.64382" lon="-3.4457">
        <ele>-1.79</ele>
        <time>2016-05-01T09:35:51Z</time>
      </trkpt>
      <trkpt lat="47.64383" lon="-3.44571">
        <ele>-1.79</ele>
        <time>2016-05-01T09:36:33Z</time>
      </trkpt>
      <trkpt lat="47.64383" lon="-3.4457">
        <ele>-1.79</ele>
        <time>2016-05-01T09:37:14Z</time>
      </trkpt>
      <trkpt lat="47.64383" lon="-3.44571">
        <ele>-2.27</ele>
        <time>2016-05-01T09:37:51Z</time>
      </trkpt>
      <trkpt lat="47.64383" lon="-3.44571">
        <ele>-1.79</ele>
        <time>2016-05-01T09:38:30Z</time>
      </trkpt>
      <trkpt lat="47.64382" lon="-3.4457">
        <ele>-2.27</ele>
        <time>2016-05-01T09:38:58Z</time>
      </trkpt>
      <trkpt lat="47.64382" lon="-3.4457">
        <ele>-2.27</ele>
        <time>2016-05-01T09:39:26Z</time>
      </trkpt>
      <trkpt lat="47.64382" lon="-3.4457">
        <ele>-2.27</ele>
        <time>2016-05-01T09:39:56Z</time>
      </trkpt>
      <trkpt lat="47.64382" lon="-3.44571">
        <ele>-1.79</ele>
        <time>2016-05-01T09:40:27Z</time>
      </trkpt>
      <trkpt lat="47.64382" lon="-3.44571">
        <ele>-1.79</ele>
        <time>2016-05-01T09:41:02Z</time>
      </trkpt>
      <trkpt lat="47.64382" lon="-3.44572">
        <ele>-1.3</ele>
        <time>2016-05-01T09:41:36Z</time>
      </trkpt>
      <trkpt lat="47.64381" lon="-3.44572">
        <ele>-0.34</ele>
        <time>2016-05-01T09:42:09Z</time>
      </trkpt>
      <trkpt lat="47.64382" lon="-3.44572">
        <ele>0.14</ele>
        <time>2016-05-01T09:42:44Z</time>
      </trkpt>
      <trkpt lat="47.64381" lon="-3.44572">
        <ele>0.14</ele>
        <time>2016-05-01T09:43:25Z</time>
      </trkpt>
      <trkpt lat="47.64381" lon="-3.44572">
        <ele>0.62</ele>
        <time>2016-05-01T09:44:05Z</time>
      </trkpt>
      <trkpt lat="47.64382" lon="-3.44571">
        <ele>-0.34</ele>
        <time>2016-05-01T09:44:33Z</time>
      </trkpt>
      <trkpt lat="47.64382" lon="-3.44571">
        <ele>-0.82</ele>
        <time>2016-05-01T09:45:08Z</time>
      </trkpt>
      <trkpt lat="47.64382" lon="-3.4457">
        <ele>-0.34</ele>
        <time>2016-05-01T09:45:49Z</time>
      </trkpt>
      <trkpt lat="47.64381" lon="-3.44571">
        <ele>-1.79</ele>
        <time>2016-05-01T09:46:31Z</time>
      </trkpt>
      <trkpt lat="47.64381" lon="-3.44572">
        <ele>-0.82</ele>
        <time>2016-05-01T09:47:16Z</time>
      </trkpt>
      <trkpt lat="47.64382" lon="-3.44571">
        <ele>-1.3</ele>
        <time>2016-05-01T09:47:35Z</time>
      </trkpt>
      <trkpt lat="47.64381" lon="-3.4457">
        <ele>-1.3</ele>
        <time>2016-05-01T09:47:50Z</time>
      </trkpt>
      <trkpt lat="47.64381" lon="-3.44569">
        <ele>-1.79</ele>
        <time>2016-05-01T09:48:05Z</time>
      </trkpt>
      <trkpt lat="47.64381" lon="-3.44569">
        <ele>-5.15</ele>
        <time>2016-05-01T09:48:16Z</time>
      </trkpt>
      <trkpt lat="47.64381" lon="-3.44568">
        <ele>-5.15</ele>
        <time>2016-05-01T09:48:38Z</time>
      </trkpt>
      <trkpt lat="47.64381" lon="-3.44567">
        <ele>-4.67</ele>
        <time>2016-05-01T09:49:03Z</time>
      </trkpt>
      <trkpt lat="47.64381" lon="-3.44567">
        <ele>-4.19</ele>
        <time>2016-05-01T09:49:08Z</time>
      </trkpt>
      <trkpt lat="47.64383" lon="-3.44564">
        <ele>-7.07</ele>
        <time>2016-05-01T10:03:50Z</time>
      </trkpt>
      <trkpt lat="47.64381" lon="-3.44567">
        <ele>-3.23</ele>
        <time>2016-05-01T10:04:03Z</time>
      </trkpt>
      <trkpt lat="47.64383" lon="-3.44567">
        <ele>-2.27</ele>
        <time>2016-05-01T10:04:23Z</time>
      </trkpt>
      <trkpt lat="47.64382" lon="-3.44565">
        <ele>-1.3</ele>
        <time>2016-05-01T10:04:45Z</time>
      </trkpt>
      <trkpt lat="47.6438" lon="-3.44563">
        <ele>-2.27</ele>
        <time>2016-05-01T10:05:08Z</time>
      </trkpt>
      <trkpt lat="47.64381" lon="-3.44565">
        <ele>-2.75</ele>
        <time>2016-05-01T10:05:28Z</time>
      </trkpt>
      <trkpt lat="47.6438" lon="-3.44567">
        <ele>-1.79</ele>
        <time>2016-05-01T10:05:44Z</time>
      </trkpt>
      <trkpt lat="47.64381" lon="-3.44567">
        <ele>-1.79</ele>
        <time>2016-05-01T10:05:59Z</time>
      </trkpt>
      <trkpt lat="47.64382" lon="-3.44572">
        <ele>-3.71</ele>
        <time>2016-05-01T10:06:12Z</time>
      </trkpt>
      <trkpt lat="47.64383" lon="-3.44571">
        <ele>-3.23</ele>
        <time>2016-05-01T10:06:28Z</time>
      </trkpt>
      <trkpt lat="47.64382" lon="-3.44571">
        <ele>-3.23</ele>
        <time>2016-05-01T10:06:39Z</time>
      </trkpt>
      <trkpt lat="47.64382" lon="-3.4457">
        <ele>-2.75</ele>
        <time>2016-05-01T10:06:53Z</time>
      </trkpt>
      <trkpt lat="47.64382" lon="-3.4457">
        <ele>-2.27</ele>
        <time>2016-05-01T10:07:02Z</time>
      </trkpt>
      <trkpt lat="47.64381" lon="-3.44568">
        <ele>-2.75</ele>
        <time>2016-05-01T10:07:13Z</time>
      </trkpt>
      <trkpt lat="47.64381" lon="-3.4457">
        <ele>-2.27</ele>
        <time>2016-05-01T10:07:26Z</time>
      </trkpt>
      <trkpt lat="47.64382" lon="-3.4457">
        <ele>-2.27</ele>
        <time>2016-05-01T10:07:31Z</time>
      </trkpt>
      <trkpt lat="47.64389" lon="-3.44575">
        <ele>-1.79</ele>
        <time>2016-05-01T10:07:45Z</time>
      </trkpt>
      <trkpt lat="47.64397" lon="-3.44582">
        <ele>1.1</ele>
        <time>2016-05-01T10:07:56Z</time>
      </trkpt>
      <trkpt lat="47.64413" lon="-3.44595">
        <ele>-0.34</ele>
        <time>2016-05-01T10:08:09Z</time>
      </trkpt>
      <trkpt lat="47.64428" lon="-3.44609">
        <ele>-2.75</ele>
        <time>2016-05-01T10:08:25Z</time>
      </trkpt>
      <trkpt lat="47.6444" lon="-3.44622">
        <ele>-2.75</ele>
        <time>2016-05-01T10:08:39Z</time>
      </trkpt>
      <trkpt lat="47.64444" lon="-3.44626">
        <ele>-1.79</ele>
        <time>2016-05-01T10:08:43Z</time>
      </trkpt>
      <trkpt lat="47.64457" lon="-3.44641">
        <ele>-1.79</ele>
        <time>2016-05-01T10:08:56Z</time>
      </trkpt>
      <trkpt lat="47.64463" lon="-3.44648">
        <ele>-1.79</ele>
        <time>2016-05-01T10:09:01Z</time>
      </trkpt>
      <trkpt lat="47.64478" lon="-3.4465">
        <ele>-0.82</ele>
        <time>2016-05-01T10:09:16Z</time>
      </trkpt>
      <trkpt lat="47.64485" lon="-3.44646">
        <ele>-1.79</ele>
        <time>2016-05-01T10:09:24Z</time>
      </trkpt>
      <trkpt lat="47.64486" lon="-3.44642">
        <ele>-2.27</ele>
        <time>2016-05-01T10:09:26Z</time>
      </trkpt>
      <trkpt lat="47.64497" lon="-3.44624">
        <ele>-1.79</ele>
        <time>2016-05-01T10:09:39Z</time>
      </trkpt>
      <trkpt lat="47.64503" lon="-3.446">
        <ele>0.14</ele>
        <time>2016-05-01T10:09:53Z</time>
      </trkpt>
      <trkpt lat="47.64505" lon="-3.44593">
        <ele>1.1</ele>
        <time>2016-05-01T10:09:57Z</time>
      </trkpt>
    </trkseg>
  </trk>
</gpx>